[[{"header":{"parameterUnit":"m.s-1","parameterCategory":1,"la1":30.6,"la2":28.766,"lo1":-90.7593,"lo2":-88.6598,"dy":0.0162,"dx":0.0183,"nx":116,"ny":114,"refTime":"2023-04-07T00:00:00:Z","depth":0,"parameterNumber":2,"parameterNumberName":"U-component_of_WINDS"},"data":[0.0,0.0,0.0,0.0,0.0,0.0,0.0,0.0,0.0,0.0,0.0,0.0,0.0,0.0,0.0,0.0,0.0,0.0,0.0,0.0,0.0,0.0,0.0,0.0,0.0,0.0,0.0,0.0,0.0,0.0,0.0,0.0,0.0,0.0,0.0,0.0,0.0,0.0,0.0,0.0,0.0,0.0,0.0,0.0,0.0,0.0,0.0,0.0,0.0,0.0,0.0,0.0,0.0,0.0,0.0,0.0,0.0,0.0,0.0,0.0,0.0,0.0,0.0,0.0,0.0,0.0,0.0,0.0,0.0,0.0,0.0,0.0,0.0,0.0,0.0,0.0,0.0,0.0,0.0,0.0,0.0,0.0,0.0,0.0,0.0,0.0,0.0,0.0,0.0,0.0,0.0,0.0,0.0,0.0,0.0,0.0,0.0,0.0,0.0,0.0,0.0,0.0,0.0,0.0,0.0,0.0,0.0,0.0,0.0,0.0,0.0,0.0,0.0,0.0,0.0,0.0,0.0,0.0,0.0,0.0,0.0,0.0,0.0,0.0,0.0,0.0,0.0,0.0,0.0,0.0,0.0,0.0,0.0,0.0,0.0,0.0,0.0,0.0,0.0,0.0,0.0,0.0,0.0,0.0,0.0,0.0,0.0,0.0,0.0,0.0,0.0,0.0,0.0,0.0,0.0,0.0,0.0,0.0,0.0,0.0,0.0,0.0,0.0,0.0,0.0,0.0,0.0,0.0,0.0,0.0,0.0,0.0,0.0,0.0,0.0,0.0,0.0,0.0,0.0,0.0,0.0,0.0,0.0,0.0,0.0,0.0,0.0,0.0,0.0,0.0,0.0,0.0,0.0,0.0,0.0,0.0,0.0,0.0,0.0,0.0,0.0,0.0,0.0,0.0,0.0,0.0,0.0,0.0,0.0,0.0,0.0,0.0,0.0,0.0,0.0,0.0,0.0,0.0,0.0,0.0,0.0,0.0,0.0,0.0,0.0,0.0,0.0,0.0,0.0,0.0,0.0,0.0,0.0,0.0,0.0,0.0,0.0,0.0,0.0,0.0,0.0,0.0,0.0,0.0,0.0,0.0,0.0,0.0,0.0,0.0,0.0,0.0,0.0,0.0,0.0,0.0,0.0,0.0,0.0,0.0,0.0,0.0,0.0,0.0,0.0,0.0,0.0,0.0,0.0,0.0,0.0,0.0,0.0,0.0,0.0,0.0,0.0,0.0,0.0,0.0,0.0,0.0,0.0,0.0,0.0,0.0,0.0,0.0,0.0,0.0,0.0,0.0,0.0,0.0,0.0,0.0,0.0,0.0,0.0,0.0,0.0,0.0,0.0,0.0,0.0,0.0,0.0,0.0,0.0,0.0,0.0,0.0,0.0,0.0,0.0,0.0,0.0,0.0,0.0,0.0,0.0,0.0,0.0,0.0,0.0,0.0,0.0,0.0,0.0,0.0,0.0,0.0,0.0,0.0,0.0,0.0,0.0,0.0,0.0,0.0,0.0,0.0,0.0,0.0,0.0,0.0,0.0,0.0,0.0,0.0,0.0,0.0,0.0,0.0,0.0,0.0,0.0,0.0,0.0,0.0,0.0,0.0,0.0,0.0,0.0,0.0,0.0,0.0,0.0,0.0,0.0,0.0,0.0,0.0,0.0,0.0,0.0,0.0,0.0,0.0,0.0,0.0,0.0,0.0,0.0,0.0,0.0,0.0,0.0,0.0,0.0,0.0,0.0,0.0,0.0,0.0,0.0,0.0,0.0,0.0,0.0,0.0,0.0,0.0,0.0,0.0,0.0,0.0,0.0,0.0,0.0,0.0,0.0,0.0,0.0,0.0,0.0,0.0,0.0,0.0,0.0,0.0,0.0,0.0,0.0,0.0,0.0,0.0,0.0,0.0,0.0,0.0,0.0,0.0,0.0,0.0,0.0,0.0,0.0,0.0,0.0,0.0,0.0,0.0,0.0,0.0,0.0,0.0,0.0,0.0,0.0,0.0,0.0,0.0,0.0,0.0,0.0,0.0,0.0,0.0,0.0,0.0,0.0,0.0,0.0,0.0,0.0,0.0,0.0,0.0,0.0,0.0,0.0,0.0,0.0,0.0,0.0,0.0,0.0,0.0,0.0,0.0,0.0,0.0,0.0,0.0,0.0,0.0,0.0,0.0,0.0,0.0,0.0,0.0,0.0,0.0,0.0,0.0,0.0,0.0,0.0,0.0,0.0,0.0,0.0,0.0,0.0,0.0,0.0,0.0,0.0,0.0,0.0,0.0,0.0,0.0,0.0,0.0,0.0,0.0,0.0,0.0,0.0,0.0,0.0,0.0,0.0,0.0,0.0,0.0,0.0,0.0,0.0,0.0,0.0,0.0,0.0,0.0,0.0,0.0,0.0,0.0,0.0,0.0,0.0,0.0,0.0,0.0,0.0,0.0,0.0,0.0,0.0,0.0,0.0,0.0,0.0,0.0,0.0,0.0,0.0,0.0,0.0,0.0,0.0,0.0,0.0,0.0,0.0,0.0,0.0,0.0,0.0,0.0,0.0,0.0,0.0,0.0,0.0,0.0,0.0,0.0,0.0,0.0,0.0,0.0,0.0,0.0,0.0,0.0,0.0,0.0,0.0,0.0,0.0,0.0,0.0,0.0,0.0,0.0,0.0,0.0,0.0,0.0,0.0,0.0,0.0,0.0,0.0,0.0,0.0,0.0,0.0,0.0,0.0,0.0,0.0,0.0,0.0,0.0,0.0,0.0,0.0,0.0,0.0,0.0,0.0,0.0,0.0,0.0,0.0,0.0,0.0,0.0,0.0,0.0,0.0,0.0,0.0,0.0,0.0,0.0,0.0,0.0,0.0,0.0,0.0,0.0,0.0,0.0,0.0,0.0,0.0,0.0,0.0,0.0,0.0,0.0,0.0,0.0,0.0,0.0,0.0,0.0,0.0,0.0,0.0,0.0,0.0,0.0,0.0,0.0,0.0,0.0,0.0,0.0,0.0,0.0,0.0,0.0,0.0,0.0,0.0,0.0,0.0,0.0,0.0,0.0,0.0,0.0,0.0,0.0,0.0,0.0,0.0,0.0,0.0,0.0,0.0,0.0,0.0,0.0,0.0,0.0,0.0,0.0,0.0,0.0,0.0,0.0,0.0,0.0,0.0,0.0,0.0,0.0,0.0,0.0,0.0,0.0,0.0,0.0,0.0,0.0,0.0,0.0,0.0,0.0,0.0,0.0,0.0,0.0,0.0,0.0,0.0,0.0,0.0,0.0,0.0,0.0,0.0,0.0,0.0,0.0,0.0,0.0,0.0,0.0,0.0,0.0,0.0,0.0,0.0,0.0,0.0,0.0,0.0,0.0,0.0,0.0,0.0,0.0,0.0,0.0,0.0,0.0,0.0,0.0,0.0,0.0,0.0,0.0,0.0,0.0,0.0,0.0,0.0,0.0,0.0,0.0,0.0,0.0,0.0,0.0,0.0,0.0,0.0,0.0,0.0,0.0,0.0,0.0,0.0,0.0,0.0,0.0,0.0,0.0,0.0,0.0,0.0,0.0,0.0,0.0,0.0,0.0,0.0,0.0,0.0,0.0,0.0,0.0,0.0,0.0,0.0,0.0,0.0,0.0,0.0,0.0,0.0,0.0,0.0,0.0,0.0,0.0,0.0,0.0,0.0,0.0,0.0,0.0,0.0,0.0,0.0,0.0,0.0,0.0,0.0,0.0,0.0,0.0,0.0,0.0,0.0,0.0,0.0,0.0,0.0,0.0,0.0,0.0,0.0,0.0,0.0,0.0,0.0,0.0,0.0,0.0,0.0,0.0,0.0,0.0,0.0,0.0,0.0,0.0,0.0,0.0,0.0,0.0,0.0,0.0,0.0,0.0,0.0,0.0,0.0,0.0,0.0,0.0,0.0,0.0,0.0,0.0,0.0,0.0,0.0,0.0,0.0,0.0,0.0,0.0,0.0,0.0,0.0,0.0,0.0,0.0,0.0,0.0,0.0,0.0,0.0,0.0,0.0,0.0,0.0,0.0,0.0,0.0,0.0,0.0,0.0,0.0,0.0,0.0,0.0,0.0,0.0,0.0,0.0,0.0,0.0,0.0,0.0,0.0,0.0,0.0,0.0,0.0,0.0,0.0,0.0,0.0,0.0,0.0,0.0,0.0,0.0,0.0,0.0,0.0,0.0,0.0,0.0,0.0,0.0,0.0,0.0,0.0,0.0,0.0,0.0,0.0,0.0,0.0,0.0,0.0,0.0,0.0,0.0,0.0,0.0,0.0,0.0,0.0,0.0,0.0,0.0,0.0,0.0,0.0,0.0,0.0,0.0,0.0,0.0,0.0,0.0,0.0,0.0,0.0,0.0,0.0,0.0,0.0,0.0,0.0,0.0,0.0,0.0,0.0,0.0,0.0,0.0,0.0,0.0,0.0,0.0,0.0,0.0,0.0,0.0,0.0,0.0,0.0,0.0,0.0,0.0,0.0,0.0,0.0,0.0,0.0,0.0,0.0,0.0,0.0,0.0,0.0,0.0,0.0,0.0,0.0,0.0,0.0,0.0,0.0,0.0,0.0,0.0,0.0,0.0,0.0,0.0,0.0,0.0,0.0,0.0,0.0,0.0,0.0,0.0,0.0,0.0,0.0,0.0,0.0,0.0,0.0,0.0,0.0,0.0,0.0,0.0,0.0,0.0,0.0,0.0,0.0,0.0,0.0,0.0,0.0,0.0,0.0,0.0,0.0,0.0,0.0,0.0,0.0,0.0,0.0,0.0,0.0,0.0,0.0,0.0,0.0,0.0,0.0,0.0,0.0,0.0,0.0,0.0,0.0,0.0,0.0,0.0,0.0,0.0,0.0,0.0,0.0,0.0,0.0,0.0,0.0,0.0,0.0,0.0,0.0,0.0,0.0,0.0,0.0,0.0,0.0,0.0,0.0,0.0,0.0,0.0,0.0,0.0,0.0,0.0,0.0,0.0,0.0,0.0,0.0,0.0,0.0,0.0,0.0,0.0,0.0,0.0,0.0,0.0,0.0,0.0,0.0,0.0,0.0,0.0,0.0,0.0,0.0,0.0,0.0,0.0,0.0,0.0,0.0,0.0,0.0,0.0,0.0,0.0,0.0,0.0,0.0,0.0,0.0,0.0,0.0,0.0,0.0,0.0,0.0,0.0,0.0,0.0,0.0,0.0,0.0,0.0,0.0,0.0,0.0,0.0,0.0,0.0,0.0,0.0,0.0,0.0,0.0,0.0,0.0,0.0,0.0,0.0,0.0,0.0,0.0,0.0,0.0,0.0,0.0,0.0,0.0,0.0,0.0,0.0,0.0,0.0,0.0,0.0,0.0,0.0,0.0,0.0,0.0,0.0,0.0,0.0,0.0,0.0,0.0,0.0,0.0,0.0,0.0,0.0,0.0,0.0,0.0,0.0,0.0,0.0,0.0,0.0,0.0,0.0,0.0,0.0,0.0,0.0,0.0,0.0,0.0,0.0,0.0,0.0,0.0,0.0,0.0,0.0,0.0,0.0,0.0,0.0,0.0,0.0,0.0,0.0,0.0,0.0,0.0,0.0,0.0,0.0,0.0,0.0,0.0,0.0,0.0,0.0,0.0,0.0,0.0,0.0,0.0,0.0,0.0,0.0,0.0,0.0,0.0,0.0,0.0,0.0,0.0,0.0,0.0,0.0,0.0,0.0,0.0,0.0,0.0,0.0,0.0,0.0,0.0,0.0,0.0,0.0,0.0,0.0,0.0,0.0,0.0,0.0,0.0,0.0,0.0,0.0,0.0,0.0,0.0,0.0,0.0,0.0,0.0,0.0,0.0,0.0,0.0,0.0,0.0,0.0,0.0,0.0,0.0,0.0,0.0,0.0,0.0,0.0,0.0,0.0,0.0,0.0,0.0,0.0,0.0,0.0,0.0,0.0,0.0,0.0,0.0,0.0,0.0,0.0,0.0,0.0,0.0,0.0,0.0,0.0,0.0,0.0,0.0,0.0,0.0,0.0,0.0,0.0,0.0,0.0,0.0,0.0,0.0,0.0,0.0,0.0,0.0,0.0,0.0,0.0,0.0,0.0,0.0,0.0,0.0,0.0,0.0,0.0,0.0,0.0,0.0,1.7029,0.0,0.0,0.0,0.0,0.0,0.0,0.0,0.0,0.0,0.0,0.0,0.0,0.0,0.0,0.0,0.0,0.0,0.0,0.0,0.0,0.0,0.0,0.0,0.0,0.0,0.0,0.0,0.0,0.0,0.0,0.0,0.0,0.0,0.0,0.0,0.0,0.0,0.0,0.0,3.2662,3.2662,3.2307,3.4209,3.5153,3.5225,0.0,0.0,0.0,0.0,0.0,0.0,0.0,0.0,0.0,0.0,0.0,0.0,0.0,0.0,0.0,0.0,0.0,0.0,0.0,0.0,0.0,0.0,0.0,0.0,0.0,0.0,0.0,0.0,0.0,0.0,0.0,0.0,0.0,0.0,0.0,0.0,0.0,0.0,0.0,0.0,0.0,0.0,0.0,0.0,0.0,0.0,0.0,0.0,0.0,0.0,0.0,0.0,0.0,0.0,0.0,0.0,0.0,0.0,0.0,0.0,0.0,0.0,0.0,0.0,0.0,0.0,0.0,0.0,0.0,0.0,0.0,1.4541,0.0,0.0,0.0,0.0,0.0,0.0,0.0,0.0,0.0,0.0,0.0,0.0,0.0,0.0,0.0,0.0,0.0,0.0,0.0,0.0,0.0,0.0,0.0,0.0,3.4695,3.481,3.5382,3.5688,0.0,0.0,0.0,0.0,0.0,0.0,0.0,3.2293,3.2615,3.322,3.2615,3.2797,3.3791,3.4539,3.4918,3.4978,3.5303,0.0,0.0,0.0,0.0,0.0,0.0,0.0,0.0,0.0,0.0,0.0,0.0,0.0,0.0,0.0,0.0,0.0,0.0,0.0,0.0,0.0,0.0,0.0,0.0,0.0,0.0,0.0,0.0,0.0,0.0,0.0,0.0,0.0,0.0,0.0,0.0,0.0,0.0,0.0,0.0,0.0,0.0,0.0,0.0,0.0,0.0,0.0,0.0,0.0,0.0,0.0,0.0,0.0,0.0,0.0,0.0,0.0,0.0,0.0,0.0,0.0,0.0,0.0,1.2391,1.1186,1.0857,0.8798,0.8002,0.8323,0.954,0.9927,0.9774,0.0,0.0,0.0,0.0,0.0,0.0,0.0,0.0,0.0,0.0,0.0,0.0,0.0,0.0,0.0,0.0,0.0,0.0,0.0,0.0,0.0,0.0,3.4425,3.5451,3.6084,3.6239,3.6015,0.0,0.0,0.0,0.0,0.0,0.0,3.2293,3.2293,3.2344,3.2446,3.2344,3.3322,3.5329,3.6113,3.6456,3.639,3.5299,3.4442,3.3783,0.0,0.0,0.0,0.0,0.0,0.0,0.0,0.0,0.0,0.0,0.0,0.0,0.0,0.0,0.0,0.0,0.0,0.0,0.0,0.0,0.0,0.0,0.0,0.0,0.0,0.0,0.0,0.0,0.0,0.0,0.0,0.0,0.0,0.0,0.0,0.0,0.0,0.0,0.0,0.0,0.0,2.2542,2.1304,0.0,0.0,0.0,0.0,0.0,0.0,0.0,0.0,0.0,0.0,0.0,0.0,0.0,0.0,1.6669,1.4915,1.3366,1.1963,0.9399,0.7529,0.623,0.4718,0.4058,0.4097,0.4307,0.0,0.9299,0.8417,0.0,0.0,0.0,0.0,0.0,0.0,0.0,0.0,0.0,0.0,0.0,0.0,0.0,0.0,0.0,0.0,0.0,0.0,0.0,0.0,0.0,3.4497,3.5371,3.57,3.5961,3.5688,3.4683,3.4137,0.0,0.0,0.0,3.1565,3.2276,3.2293,3.2513,3.2916,3.3744,3.4438,3.4974,3.5335,3.53,3.492,3.388,3.3314,3.3068,3.1937,0.0,0.0,0.0,0.0,0.0,0.0,0.0,0.0,0.0,0.0,0.0,0.0,0.0,0.0,0.0,0.0,0.0,0.0,0.0,0.0,0.0,0.0,0.0,0.0,0.0,0.0,0.0,0.0,0.0,0.0,0.0,0.0,0.0,0.0,0.0,0.0,0.0,0.0,0.0,2.3504,2.2626,2.0979,2.1015,2.105,0.0,0.0,0.0,0.0,0.0,0.0,0.0,0.0,0.0,1.8043,1.6196,1.4933,1.4338,1.2023,1.0327,0.9278,0.6921,0.5246,0.4163,0.2729,0.2292,0.2671,0.2234,0.3292,0.5296,0.5265,0.4784,0.4032,0.0,0.0,0.0,0.0,0.0885,-0.055,0.0,0.0,0.0,0.0,0.0,0.0,0.0,0.0,0.0,0.0,0.0,0.0,3.3389,3.4812,3.567,3.5526,3.5968,3.5729,3.4493,3.396,0.0,0.0,3.1599,3.1613,3.2564,3.2933,3.3508,3.4269,3.5549,3.6011,3.5656,3.5835,3.5471,3.4627,3.3861,3.32,3.2552,3.0951,2.9624,2.8547,0.0,0.0,0.0,0.0,0.0,0.0,0.0,0.0,0.0,0.0,0.0,0.0,0.0,0.0,0.0,0.0,0.0,0.0,0.0,0.0,0.0,0.0,0.0,0.0,0.0,0.0,0.0,0.0,0.0,0.0,0.0,0.0,0.0,0.0,0.0,0.0,0.0,2.2573,2.1732,2.0182,1.9522,1.929,0.0,0.0,0.0,0.0,0.0,0.0,1.7965,1.7812,1.7128,1.574,1.3694,1.2326,1.176,0.9581,0.8041,0.7106,0.5129,0.3797,0.3039,0.1518,0.1108,0.1599,0.0831,0.0799,0.1378,0.2205,0.1915,0.0916,0.0328,-0.0239,-0.0834,-0.2008,-0.3227,-0.4409,0.0,0.0,0.0,0.0,0.0,0.0,0.0,0.0,0.0,0.0,0.0,3.2632,3.3322,3.5665,3.6948,3.6385,3.6888,3.6651,3.5332,3.3453,3.2385,3.2293,3.1599,3.1867,3.3322,3.4721,3.5842,3.6626,3.7398,3.8125,3.8785,3.9487,3.9037,3.7582,3.6878,3.5055,3.2391,3.046,2.9235,2.8547,2.7869,0.0,0.0,0.0,0.0,0.0,0.0,0.0,0.0,0.0,0.0,0.0,0.0,0.0,0.0,0.0,0.0,0.0,0.0,0.0,0.0,0.0,0.0,0.0,0.0,0.0,0.0,0.0,0.0,0.0,0.0,0.0,0.0,0.0,0.0,0.0,0.0,0.0,0.0,1.8122,1.6522,0.0,0.0,0.0,0.0,1.6158,1.7294,1.7674,1.6916,1.5337,1.4182,1.3575,1.1192,0.9574,0.8907,0.8275,0.7242,0.587,0.4284,0.3201,0.2484,0.08,0.0062,0.0062,-0.0801,-0.117,-0.1077,-0.0306,0.0031,-0.0244,-0.3348,-0.4508,-0.4713,-0.7101,-0.8054,-0.8195,0.0,0.0,0.0,0.0,0.0,0.0,0.0,0.0,3.119,3.119,3.2256,3.3288,3.4032,3.5628,3.6771,3.7028,3.6215,3.5361,3.4579,3.2974,3.1901,3.1619,3.1326,3.1884,3.3372,3.4839,3.6225,3.7499,3.8717,3.9445,3.9698,3.9451,3.8789,3.7777,3.701,3.5597,3.3619,3.1195,2.9564,2.8472,2.6931,2.6881,0.0,0.0,0.0,0.0,0.0,0.0,0.0,0.0,0.0,0.0,0.0,0.0,0.0,0.0,0.0,0.0,0.0,0.0,0.0,0.0,0.0,0.0,0.0,0.0,0.0,0.0,0.0,0.0,0.0,0.0,0.0,0.0,0.0,0.0,0.0,0.0,0.0,1.9057,1.7462,0.0,0.0,1.5804,1.5382,1.5598,1.5903,1.5808,1.5114,1.4344,1.3674,1.3091,1.0771,0.9403,0.9159,0.7517,0.6196,0.5196,0.4187,0.2996,0.1711,0.1098,0.0522,-0.0033,-0.0913,-0.1302,-0.1366,-0.2272,-0.257,-0.2629,-0.4644,-0.5793,-0.6577,-0.8287,-0.9042,-0.9276,0.0,0.0,0.0,0.0,0.0,0.0,0.0,0.0,3.1106,3.0869,3.2324,3.3592,3.4083,3.5921,3.7236,3.7551,3.6011,3.4888,3.4627,3.2515,3.1389,3.1549,3.2056,3.2763,3.3744,3.5977,3.7635,3.8625,4.0104,4.084,4.0832,4.0294,3.9511,3.848,3.7957,3.6754,3.5026,3.3036,3.1046,2.9086,2.7335,2.7508,2.8648,0.0,0.0,0.0,0.0,0.0,0.0,0.0,0.0,0.0,0.0,0.0,0.0,0.0,0.0,0.0,0.0,0.0,0.0,0.0,0.0,0.0,0.0,0.0,0.0,0.0,0.0,0.0,0.0,0.0,0.0,0.0,0.0,0.0,0.0,0.0,1.9183,1.9322,1.7266,1.59,1.6019,1.487,1.4265,1.458,1.4985,1.4889,1.4164,1.3654,1.3065,1.2375,1.025,0.8989,0.8691,0.7005,0.5739,0.4969,0.4229,0.3286,0.2186,0.1562,0.0973,0.037,-0.1139,-0.1775,-0.1909,-0.3713,-0.4641,-0.4978,-0.5607,-0.6483,-0.7486,-0.8374,-0.902,-0.9485,0.0,0.0,0.0,0.0,0.0,0.0,0.0,3.119,3.0937,3.0209,3.2053,3.344,3.344,3.6586,3.8498,3.797,3.6333,3.537,3.5509,3.205,3.0683,3.2226,3.3698,3.4506,3.4624,3.8251,4.0155,4.0197,4.1677,4.2371,4.232,4.232,4.1471,3.9916,3.9916,3.8638,3.6477,3.5833,3.3679,3.0567,2.9205,2.9011,2.9555,0.0,0.0,0.0,0.0,0.0,0.0,0.0,0.0,0.0,0.0,0.0,0.0,0.0,0.0,0.0,0.0,0.0,0.0,0.0,0.0,0.0,0.0,0.0,0.0,0.0,0.0,0.0,0.0,0.0,0.0,0.0,0.0,0.0,2.2341,2.0114,1.846,1.8574,1.5662,1.33,1.2425,1.2758,1.3058,1.3089,1.4556,1.5088,1.4309,1.3244,1.2279,1.1465,0.961,0.8232,0.7389,0.675,0.6002,0.512,0.4435,0.4059,0.3892,0.2181,0.1344,0.1075,-0.1575,-0.2718,-0.2885,-0.4697,-0.6127,-0.7086,-0.6503,-0.6795,-0.758,-0.7725,-0.8345,-0.9136,0.0,0.0,0.0,0.0,0.0,0.0,0.0,3.119,3.0937,3.0209,3.2493,3.4201,3.4201,3.7018,3.8867,3.8708,3.5302,3.339,3.3964,3.0006,2.9025,3.2158,3.3203,3.4979,3.7686,3.9817,4.1424,4.2479,4.4028,4.4198,4.3115,4.3115,4.1953,3.9916,3.9916,3.8888,3.715,3.6971,3.6088,3.4562,3.1285,2.9535,2.8813,0.0,0.0,0.0,0.0,0.0,0.0,0.0,0.0,0.0,0.0,0.0,0.0,0.0,0.0,0.0,0.0,0.0,0.0,0.0,0.0,0.0,0.0,0.0,0.0,0.0,0.0,0.0,0.0,0.0,0.0,0.0,0.0,2.134,2.0901,1.9635,1.8548,1.795,1.6033,1.4924,1.5343,1.4589,1.4371,1.5061,1.5886,1.6243,1.6016,1.453,1.3891,1.4325,1.1328,0.9552,0.9268,0.7788,0.6575,0.5616,0.6132,0.5269,0.3197,0.343,0.1944,-0.0889,-0.2237,-0.3301,-0.4147,-0.601,-0.7333,-0.8146,-0.7682,-0.8161,-0.9159,-0.963,-1.0113,-1.0658,0.0,0.0,0.0,0.0,0.0,0.0,0.0,3.0531,3.0362,2.9277,3.2544,3.4726,3.4117,3.6721,3.8413,3.8115,3.4539,3.2357,3.2476,3.0311,3.0161,3.2645,3.4675,3.6907,3.9419,4.1525,4.32,4.4367,4.5568,4.5703,4.4823,4.4823,4.3739,4.1788,4.1707,4.0429,3.8341,3.8281,3.7719,3.6641,3.4053,3.2407,3.136,3.0118,3.0205,3.0798,2.9613,2.9871,3.0584,2.9048,0.0,0.0,0.0,0.0,0.0,0.0,0.0,0.0,0.0,0.0,0.0,0.0,0.0,0.0,0.0,0.0,0.0,0.0,0.0,0.0,0.0,0.0,0.0,0.0,2.2315,2.1797,2.0771,1.9782,1.8803,1.7697,1.6827,1.6026,1.523,1.5438,1.5609,1.5541,1.6579,1.6775,1.5657,1.4794,1.4438,1.4672,1.2199,1.093,1.108,0.9061,0.7582,0.6647,0.6646,0.5532,0.3447,0.3655,0.2022,0.0,-0.2359,-0.3517,-0.4635,-0.6528,-0.7895,0.0,0.0,0.0,0.0,0.0,-1.1758,-1.2398,0.0,0.0,0.0,0.0,0.0,0.0,0.0,2.955,2.9447,2.7993,3.2134,3.467,3.3203,3.5723,3.7212,3.6491,3.3749,3.1769,3.1123,3.1853,3.2784,3.3863,3.7263,3.958,4.0587,4.3311,4.5111,4.5957,4.6684,4.7005,4.6921,4.6921,4.6019,4.4353,4.4186,4.2521,3.9868,3.9707,3.8871,3.7584,3.703,3.6252,3.519,3.3335,3.3214,3.3838,3.2042,3.1457,3.1271,2.9497,0.0,0.0,0.0,0.0,0.0,0.0,0.0,0.0,0.0,0.0,0.0,0.0,0.0,0.0,0.0,0.0,0.0,0.0,0.0,0.0,0.0,0.0,0.0,0.0,2.2879,2.2693,2.1526,2.0559,1.9441,1.8009,1.7819,1.6737,1.401,1.5848,1.6591,1.5125,1.6921,1.6973,1.4405,0.0,0.0,0.0,0.0,1.2256,1.2643,1.0367,0.8721,0.7847,0.6496,0.5255,0.4065,0.3154,0.1539,-0.0621,-0.2485,-0.3873,-0.5038,-0.6905,-0.8447,-0.9587,-0.9379,-1.0268,-1.1757,-1.271,-1.3566,-1.4337,0.0,0.0,0.0,0.0,0.0,0.0,0.0,2.9128,2.8873,2.7925,3.0801,3.2374,3.0903,3.3389,3.4861,3.4117,3.1901,3.0463,3.0328,3.1546,3.3732,3.6907,3.8862,4.1085,4.3684,4.4874,4.6143,4.7466,4.8223,4.8274,4.7699,4.7699,4.6417,4.4151,4.4113,4.2961,4.1083,4.101,4.0232,3.902,3.8901,3.7165,3.4608,3.3649,3.2781,3.1939,3.1014,3.1386,3.2134,3.1254,3.1286,3.1644,3.0957,3.0133,0.0,0.0,0.0,0.0,0.0,0.0,0.0,0.0,0.0,0.0,0.0,0.0,0.0,0.0,0.0,0.0,0.0,0.0,0.0,2.3486,2.3405,2.2946,2.2469,2.2225,2.1578,2.0157,1.8399,1.7211,1.7088,1.7082,1.6555,1.5192,1.7195,1.7567,1.5422,1.538,0.0,1.5203,1.3708,1.2985,1.301,1.0819,0.9192,0.8104,0.0,0.0,0.3275,0.2223,0.0195,-0.2654,-0.4675,-0.617,-0.7324,-0.9299,-1.1169,-1.2775,-1.2537,-1.35,-1.5139,-1.5748,-1.6299,-1.6926,0.0,0.0,0.0,0.0,0.0,0.0,0.0,2.8003,2.804,2.7019,3.0042,3.1752,3.026,3.207,3.2949,3.185,3.0021,2.9582,3.1106,3.2933,3.5301,3.8311,4.0967,4.3234,4.5111,4.6244,4.753,4.9001,4.9373,4.956,4.9528,4.9187,4.7873,4.5828,4.5355,4.4,4.2028,4.1942,4.1115,3.9888,3.9559,3.8018,3.5878,3.5235,3.4382,3.3394,3.2736,3.2706,3.2856,3.1839,3.1496,3.1345,3.0372,2.9834,2.9412,0.0,0.0,0.0,0.0,0.0,0.0,0.0,0.0,0.0,0.0,0.0,0.0,0.0,0.0,2.2999,0.0,0.0,2.2698,2.3463,2.4021,2.4062,2.3215,2.312,2.237,2.0327,1.9546,1.8918,1.8372,1.8824,1.8865,1.8209,1.9031,1.8862,1.7118,1.6552,1.6008,1.5481,1.4122,1.3467,1.354,1.1297,0.9562,0.841,0.6549,0.4773,0.3155,0.1448,-0.0997,-0.3957,-0.5571,-0.7435,-0.9439,-1.1866,-1.404,-1.587,-1.6424,-1.6819,-1.7192,-1.8383,-1.9381,-2.0305,0.0,0.0,0.0,0.0,0.0,0.0,0.0,2.6732,2.7106,2.6115,2.9092,3.0825,2.9565,3.0632,3.0937,2.977,2.8787,2.9533,3.253,3.481,3.7104,3.9529,4.2838,4.4993,4.5889,4.709,4.8409,4.9881,5.0016,5.0388,5.098,5.0195,4.8992,4.7469,4.6413,4.4766,4.2815,4.2643,4.1863,4.0726,4.0068,3.9005,3.7719,3.6956,3.6193,3.5415,3.4726,3.3888,3.2976,3.2004,3.1077,3.0163,2.9265,2.916,2.9172,2.7959,2.7125,0.0,0.0,0.0,0.0,0.0,0.0,0.0,0.0,0.0,2.4147,2.3846,2.3881,2.38,2.3267,2.3565,2.3798,2.3399,2.4591,2.512,2.3702,2.3672,2.2891,2.0484,2.0654,2.049,1.923,2.0305,2.102,2.0793,2.0521,1.9653,1.8083,1.7114,1.6134,1.5113,1.4008,1.3539,1.3815,1.1395,0.9572,0.8347,0.5892,0.3958,0.2551,0.0082,-0.258,-0.5323,-0.7038,-0.9382,-1.2164,-1.4624,-1.6738,-1.8602,-2.0105,-2.0117,-1.9481,-2.0828,-2.2207,-2.3462,0.0,0.0,0.0,0.0,0.0,0.0,0.0,0.0,2.615,2.603,2.6993,2.7526,2.713,2.7807,2.8229,2.8077,2.9142,3.1106,3.4049,3.6383,3.8937,4.1796,4.3667,4.5258,4.6633,4.6836,4.7648,4.912,4.9779,5.0135,5.0202,4.9293,4.832,4.728,4.5678,4.4304,4.3223,4.3195,4.2806,4.2126,4.1467,4.0367,3.905,3.7793,3.6552,3.5415,3.4726,3.3305,3.1795,3.2228,3.1195,2.9786,3.0163,2.9564,2.8562,2.7824,2.7131,2.6456,2.5785,2.493,2.3645,2.1318,2.2116,2.3191,0.0,0.0,2.3824,2.4388,2.3573,2.3234,2.4668,2.3977,2.3418,2.398,2.4927,2.512,2.3702,2.4264,2.423,2.2551,2.1017,2.0346,2.0953,2.0858,2.0364,1.9399,1.9468,1.8551,1.6293,1.5842,1.5204,1.4238,1.3225,1.2851,1.3099,1.0671,0.8709,0.7243,0.4994,0.2603,0.0084,-0.2778,-0.5378,-0.7731,-1.1273,-1.4217,-1.6661,-1.7811,-1.9128,-2.0647,-2.241,-2.3319,-2.3555,-2.3311,-2.4101,-2.5311,0.0,0.0,0.0,0.0,0.0,0.0,0.0,0.0,0.0,2.5163,2.6249,2.6895,2.6363,2.6808,2.7165,2.7165,2.8145,3.0207,3.3643,3.5994,3.8751,4.2134,4.4587,4.616,4.6786,4.7631,4.8595,4.9644,4.9949,5.0032,4.9893,4.9093,4.7902,4.6422,4.5316,4.4259,4.329,4.329,4.2955,4.2336,4.1692,4.0352,3.8676,3.736,3.5579,3.3724,3.344,3.2332,0.0,3.041,2.9703,2.8982,2.8845,2.8453,2.7808,2.6754,2.544,2.3959,2.2183,2.2263,0.0,0.0,2.2484,2.367,2.3909,2.4687,2.5393,2.557,2.5109,2.4888,2.5475,2.4563,2.3932,0.0,2.4696,2.4365,2.3205,2.3388,2.3129,2.1669,2.1511,2.1666,2.1958,2.2678,2.2902,2.2452,2.0989,1.9676,1.8512,1.6239,1.4442,1.3281,1.2141,1.0945,0.9712,0.8597,0.704,0.5025,0.2723,0.0742,-0.0974,-0.4858,-0.8812,-1.2761,-1.5427,-1.7619,-1.9445,-2.0896,-2.1834,-2.2536,-2.4114,-2.5071,-2.5561,-2.5339,-2.5828,-2.6578,0.0,0.0,0.0,0.0,0.0,0.0,0.0,0.0,0.0,0.0,2.5767,2.648,2.6224,2.6504,2.6691,2.6691,2.7588,2.9465,3.2594,3.5323,3.8183,4.1255,4.4265,4.5974,4.6177,4.7631,4.8624,4.9095,4.9498,4.951,4.9106,4.8304,4.7209,4.5849,4.4841,4.3989,4.329,4.3135,4.2791,4.2306,4.1287,3.9858,3.8167,3.6148,3.3974,3.1961,3.1959,3.0673,2.8881,2.8259,2.7589,2.6971,2.7023,2.6933,2.6601,2.5595,2.4149,2.255,2.0957,0.0,0.0,2.2821,2.368,2.4732,2.5884,2.6662,2.7164,2.714,2.6905,2.6606,2.6233,2.5443,2.4739,2.4446,2.4496,2.414,2.2886,2.2808,2.2454,2.1156,2.2408,2.3052,2.2205,2.3625,2.4345,2.373,2.1615,1.9957,1.8956,1.5954,1.3507,1.1781,1.0521,0.8951,0.6973,0.646,0.5039,0.262,0.0663,-0.1294,-0.3362,-0.8371,-1.295,-1.7018,-1.8846,-2.0456,-2.1883,-2.3185,-2.3968,-2.4429,-2.5439,-2.6223,-2.6738,-2.6889,-2.7203,-2.7494,0.0,0.0,0.0,0.0,0.0,0.0,0.0,0.0,0.0,0.0,0.0,0.0,0.0,2.6691,2.6691,2.6691,2.8096,2.9619,3.1157,3.4747,3.7506,3.9022,4.1931,4.3876,4.4649,4.6092,4.6784,4.6601,4.8034,4.8266,4.7349,4.6432,4.5941,4.5849,4.4098,4.3329,4.3245,4.2671,4.2425,4.2231,4.0247,3.9035,3.7973,3.4113,3.1797,3.0645,3.0578,2.8104,2.5062,2.6267,2.4994,2.3205,2.507,2.5248,2.4738,2.4592,2.3991,2.3515,0.0,0.0,2.4554,2.5232,2.5947,2.6701,2.7375,2.8053,2.8679,2.9103,2.8551,2.7711,2.6998,2.6629,2.5732,2.3686,2.4595,2.4892,2.2953,2.3166,2.3084,2.2065,2.3806,2.4107,0.0,2.292,2.3136,2.0985,2.0045,1.833,1.5604,1.4146,1.2256,0.9686,0.8316,0.7113,0.6029,0.4729,0.2812,0.0275,-0.0625,-0.3473,-0.81,-1.4293,-1.788,-1.9328,-2.1255,-2.288,-2.4217,-2.4251,-2.5103,-2.6402,-2.6461,-2.6801,-2.7318,-2.7858,-2.8059,-2.8009,0.0,0.0,0.0,0.0,0.0,0.0,0.0,0.0,0.0,0.0,0.0,0.0,0.0,0.0,0.0,0.0,2.5849,2.7219,2.96,3.2,3.4594,3.7408,3.9901,4.1576,4.232,4.3287,4.3693,4.3653,4.4123,4.3892,4.2994,4.2646,4.2196,4.1568,4.0965,4.0943,4.1339,4.0681,4.0666,4.0846,3.8437,3.7075,3.6088,3.2527,2.9831,2.7824,0.0,2.5269,2.337,2.2908,2.2176,2.1545,2.2199,2.2536,2.2636,2.2189,0.0,0.0,0.0,0.0,2.6823,2.7948,2.8405,2.8861,2.9953,2.9625,2.8972,2.8626,2.7889,2.6905,2.5704,2.4888,2.4245,2.3839,2.3661,2.3197,2.2322,2.1863,2.1126,1.9707,2.0546,0.0,0.0,0.0,0.0,2.1726,2.0609,1.8877,1.6226,1.3748,1.1077,0.8241,0.6208,0.4222,0.2166,0.0092,-0.1709,-0.3227,-0.6385,-1.0103,-1.4384,-1.732,-2.0109,-2.2659,-2.3305,-2.4438,-2.5787,-2.6159,-2.6559,-2.704,-2.704,-2.757,-2.8348,-2.8172,-2.8335,-2.8537,0.0,0.0,0.0,0.0,0.0,0.0,0.0,0.0,0.0,0.0,0.0,0.0,0.0,0.0,0.0,0.0,0.0,2.529,2.7196,2.8902,3.1049,3.379,3.6032,3.7535,3.8263,3.9202,3.9535,3.9205,3.97,3.9472,3.855,3.8811,3.8595,3.8018,3.8018,3.8392,3.8945,3.8033,3.7898,3.8078,3.5684,3.4047,3.2656,2.9354,2.6788,0.0,2.3001,2.1978,2.1417,2.1193,2.0828,2.0481,2.0707,2.1048,2.1362,0.0,0.0,0.0,0.0,2.7185,2.9276,3.0363,3.0627,3.0851,3.166,3.0397,2.877,2.7781,2.6766,2.5585,2.4172,2.3315,2.2938,2.3209,2.2494,2.1686,2.1106,2.032,1.9445,1.8374,1.8691,1.8507,0.0,0.0,0.0,2.0047,1.993,1.8471,1.488,1.2942,1.0171,0.6367,0.3991,0.1509,-0.1096,-0.3959,-0.6383,-0.8489,-1.2234,-1.571,-1.8918,-2.0819,-2.2849,-2.4871,-2.521,-2.5894,-2.6813,-2.7165,-2.7281,-2.7341,-2.7494,-2.8134,-2.885,-2.8499,-2.8587,-2.8888,0.0,0.0,0.0,0.0,0.0,0.0,0.0,0.0,0.0,0.0,0.0,0.0,0.0,0.0,0.0,0.0,0.0,0.0,2.4202,2.5621,2.7062,2.8477,3.0571,3.2052,3.2716,3.4077,3.4376,3.3478,3.4815,3.5014,3.4174,3.4801,3.51,3.51,3.51,3.5474,3.5998,3.4758,3.4173,3.3962,3.1989,3.0083,2.8058,2.4911,2.2919,2.1547,1.9144,1.859,1.9256,2.0978,2.0805,0.0,0.0,0.0,0.0,0.0,0.0,2.6092,2.8181,3.016,3.1809,3.2497,3.2617,3.2512,3.2422,3.0381,2.8081,2.6609,2.5165,2.3788,0.0,0.0,2.1902,2.1889,2.1312,2.0561,1.967,1.8935,1.8386,0.0,0.0,0.0,0.0,0.0,0.0,1.6305,0.0,1.7193,1.2062,1.191,0.9535,0.4159,0.1659,-0.0972,-0.3839,-0.7393,-1.1189,-1.5219,-1.7821,-2.0011,-2.1822,-2.4724,-2.5984,-2.5972,-2.6937,-2.7354,-2.7425,-2.7463,-2.7475,-2.7526,-2.8006,-2.8523,-2.8938,-2.89,-2.8888,-2.895,0.0,0.0,0.0,0.0,0.0,0.0,0.0,0.0,0.0,0.0,0.0,0.0,0.0,0.0,0.0,0.0,0.0,0.0,2.308,2.3896,2.4932,2.6199,2.7373,2.8301,2.895,2.9332,2.9419,2.9178,2.9553,2.9588,2.9352,2.9532,2.9621,2.9621,2.9621,2.9996,3.0582,3.0238,2.988,2.9369,2.7859,2.667,2.5517,2.3258,2.1875,2.1009,1.9883,1.9258,1.907,1.9516,0.0,0.0,0.0,2.0887,2.2195,0.0,0.0,2.8054,3.0229,3.2254,3.3888,3.4577,3.3978,3.2855,3.1426,2.8987,2.637,2.3993,2.2401,2.1229,0.0,0.0,0.0,2.1731,2.1728,0.0,2.1681,2.1022,0.0,1.8535,0.0,1.7087,1.5924,1.7253,0.0,0.0,1.7449,1.7813,1.5641,1.4163,1.0519,0.4197,0.0983,-0.3178,-0.8571,-1.3321,-1.7239,-2.0246,-2.1049,-2.2621,-2.4891,-2.5941,-2.6832,-2.7543,-2.7774,-2.8303,-2.8965,-2.9422,-2.9604,-2.9617,-2.9774,-2.9712,-2.9515,-2.9089,-2.8888,-2.895,0.0,0.0,0.0,0.0,0.0,0.0,0.0,0.0,0.0,0.0,0.0,0.0,0.0,0.0,0.0,0.0,0.0,0.0,0.0,2.1693,2.2332,2.3305,2.3766,2.4316,2.5001,2.5017,2.5009,2.5009,2.5309,2.5443,2.5458,2.5728,2.5848,2.5824,2.5634,2.5884,2.6465,2.5956,2.5575,0.0,0.0,2.3165,2.2161,2.0826,1.9908,1.9274,1.864,1.8504,1.8757,0.0,0.0,2.1131,2.1506,2.2712,2.4346,2.6104,0.0,3.0215,3.2304,3.3893,3.5026,3.5415,3.4277,3.2705,3.1257,2.8225,2.5025,2.2648,2.0816,0.0,1.926,0.0,0.0,0.0,0.0,0.0,2.1081,2.0784,2.0156,0.0,1.8394,0.0,1.6292,1.7417,1.7674,0.0,1.7387,1.7334,1.5454,1.3892,1.0035,0.3502,-0.0965,-0.7297,-1.571,-1.8912,-2.1672,-2.409,-2.4438,-2.541,-2.6944,-2.7677,-2.8174,-2.8473,0.0,-2.9408,-2.9945,-3.069,-3.1002,-3.0993,-3.0831,-3.0596,-3.0304,-2.9555,-2.9302,-2.9265,0.0,0.0,0.0,0.0,0.0,0.0,0.0,0.0,0.0,0.0,2.1804,2.2099,0.0,0.0,0.0,0.0,0.0,0.0,0.0,0.0,1.9944,2.0539,2.0554,2.0842,2.141,2.1425,2.1425,2.1425,2.2029,2.2298,2.2313,2.2853,2.3029,2.2965,2.2556,2.2597,2.2876,2.2038,2.1569,2.1306,2.0884,1.9988,1.8817,0.0,1.7839,1.7324,1.6807,1.7262,1.838,0.0,2.1282,2.2011,2.3743,2.5338,2.6948,2.9032,3.0666,3.2224,3.4105,3.5055,3.5472,3.5311,3.3763,3.199,3.0921,2.7314,2.362,2.1573,0.0,1.8247,1.8043,1.752,1.7729,1.9544,0.0,1.9027,1.9724,1.9912,1.9925,1.978,1.9404,1.8754,1.7794,1.8495,1.8434,1.7048,1.6947,1.5986,1.3818,1.2384,0.8268,0.0893,-0.5032,-1.2979,-2.3137,-2.379,-2.5047,-2.691,-2.7428,-2.7922,-2.836,-2.9352,-2.9592,-2.9252,0.0,0.0,-3.0743,-3.1694,-3.1986,-3.1764,-3.1622,-3.1372,-3.0963,-3.0254,-2.9845,-2.9528,0.0,0.0,0.0,0.0,0.0,0.0,0.0,0.0,0.0,0.0,2.0112,2.0452,0.0,0.0,0.0,0.0,0.0,0.0,0.0,0.0,0.0,1.9872,1.9869,1.9932,2.0052,2.0052,2.0052,2.0052,2.0172,2.0217,2.0232,2.0337,2.0142,1.9711,1.9633,1.9134,1.8401,1.9272,1.8768,1.7462,1.841,1.831,1.7602,1.7518,0.0,0.0,1.7264,1.7363,1.8014,2.1016,2.2397,2.317,2.5197,2.6956,2.8732,3.1133,3.2367,3.3274,3.4892,3.5415,3.5294,3.4461,3.2594,3.0244,2.7673,2.4186,0.0,0.0,1.7202,1.6279,1.6436,1.6665,1.7362,1.9136,0.0,0.0,0.0,0.0,2.1745,0.0,0.0,0.0,0.0,0.0,0.0,0.0,0.0,0.0,1.5228,1.2082,0.4524,-0.7967,-1.5007,-2.0953,-2.5884,-2.6841,-2.7717,-2.85,-2.8599,-2.8962,-2.9503,-2.9704,-3.0152,-3.0813,0.0,0.0,-3.2278,-3.3224,-3.2811,-3.1764,-3.3036,-3.2219,-3.0411,-3.0823,-3.0148,-2.895,0.0,0.0,0.0,0.0,0.0,0.0,0.0,2.0852,2.0174,1.9747,1.9708,2.0032,2.0894,2.1181,2.1306,0.0,0.0,0.0,0.0,0.0,0.0,0.0,1.9708,1.9708,1.9708,1.9708,0.0,0.0,0.0,1.9818,2.0,0.0,0.0,1.8401,1.7853,1.7117,1.6341,1.6672,1.6298,1.5588,1.6526,1.6706,1.6459,0.0,0.0,0.0,0.0,1.7313,1.8179,2.0627,2.202,2.3237,2.6385,2.8206,2.9493,3.1425,3.2568,3.3334,3.3835,3.4341,3.4476,3.3518,3.132,2.8797,2.659,0.0,0.0,0.0,1.6743,1.6123,1.6088,1.6271,0.0,0.0,0.0,0.0,0.0,0.0,0.0,0.0,0.0,0.0,0.0,0.0,0.0,0.0,0.0,0.0,1.0507,0.415,-0.4082,-1.4015,-2.0566,-2.5165,-2.7764,-2.906,-2.9589,-2.9377,-2.9377,-2.9528,-2.9792,-2.9792,-3.0037,-3.052,-3.1499,0.0,-3.2713,-3.4192,-3.4334,-3.3657,-3.3912,-3.2954,-3.1438,-3.1259,-3.0401,-2.9328,0.0,0.0,0.0,0.0,0.0,0.0,2.0878,2.04,1.9951,1.9741,1.9903,2.0255,2.0796,2.1134,2.1181,0.0,0.0,0.0,0.0,0.0,0.0,0.0,0.0,0.0,0.0,0.0,0.0,0.0,0.0,0.0,0.0,0.0,0.0,0.0,0.0,0.0,1.4688,1.4539,1.4411,0.0,0.0,0.0,0.0,0.0,0.0,0.0,0.0,0.0,1.8597,2.0013,2.1217,2.277,2.647,2.8245,2.9305,3.0829,3.2131,3.2982,3.2681,3.3276,3.3711,3.2441,2.9937,2.7352,2.5711,2.2589,0.0,1.7604,1.6704,1.6206,1.5979,0.0,1.6486,0.0,1.7949,0.0,0.0,0.0,0.0,0.0,0.0,0.0,0.0,0.0,0.0,0.0,0.0,0.0,0.2504,-0.5594,-1.3112,-1.9312,-2.454,-2.7928,-2.9377,-3.0598,-3.0733,-2.9792,-2.9792,-2.9792,-2.9792,-2.9792,-2.9895,-3.0177,-3.1646,0.0,0.0,-3.4476,-3.5091,-3.4955,-3.4499,-3.348,-3.2128,-3.155,-3.0548,-2.9391,0.0,0.0,0.0,0.0,0.0,0.0,2.05,2.0824,2.0796,1.9822,2.0551,2.0943,2.0427,2.0399,2.0399,0.0,0.0,0.0,0.0,0.0,0.0,0.0,0.0,0.0,0.0,0.0,0.0,0.0,0.0,0.0,0.0,0.0,0.0,0.0,0.0,0.0,0.0,1.3307,0.0,0.0,0.0,0.0,0.0,0.0,0.0,0.0,0.0,0.0,0.0,0.0,0.0,2.1951,2.4097,2.5954,2.7702,2.9656,0.0,0.0,3.257,3.3276,3.3474,3.1146,2.8479,2.5827,2.3668,0.0,1.7634,1.6772,1.6009,1.5478,1.5459,1.5791,1.6398,1.7328,0.0,1.8769,0.0,0.0,0.0,0.0,0.0,0.0,0.0,0.0,0.0,0.0,0.0,0.0,0.0,-1.3713,-1.942,-2.4905,-2.8238,-3.029,-3.099,-3.1117,-3.0733,-2.9792,-2.9792,-2.9792,-2.9792,-2.9792,-3.0279,-3.1068,0.0,0.0,0.0,-3.3705,-3.3811,-3.3458,-3.4845,-3.3564,-3.1033,-3.155,-3.0272,-2.8306,0.0,0.0,0.0,0.0,0.0,0.0,2.0348,2.0319,2.0177,1.9756,1.9796,1.9753,1.9485,1.9167,1.9335,2.0213,0.0,0.0,0.0,0.0,0.0,0.0,0.0,0.0,0.0,0.0,0.0,0.0,0.0,0.0,0.0,0.0,0.0,0.0,0.0,0.0,0.0,0.0,0.0,0.0,0.0,0.0,0.0,0.0,0.0,0.0,0.0,0.0,0.0,0.0,0.0,0.0,2.0912,2.2126,0.0,0.0,2.9301,3.0521,3.0387,3.1726,3.2561,3.0129,2.7404,2.4925,2.3271,0.0,1.7385,1.6652,1.5921,1.541,1.541,1.5557,1.5766,1.6103,1.6533,0.0,1.8986,0.0,0.0,0.0,0.0,0.0,0.0,0.0,0.0,0.0,0.0,0.0,0.0,-2.0806,-2.3896,-2.7894,-3.0646,-3.2035,-3.2055,-3.2033,-3.1573,-3.062,-3.0075,-2.9792,-2.9792,-2.9792,-2.9998,-3.0381,0.0,0.0,0.0,-3.338,-3.3849,-3.3778,-3.4996,-3.435,-3.2631,-3.2027,-3.1128,-3.0157,0.0,0.0,0.0,0.0,0.0,2.0263,2.0141,2.0056,1.9878,1.9508,1.9307,1.907,1.8698,1.8341,1.8526,1.9552,1.9037,0.0,0.0,0.0,0.0,0.0,0.0,0.0,0.0,0.0,1.9522,1.9641,0.0,0.0,0.0,0.0,0.0,0.0,0.0,0.0,0.0,0.0,0.0,0.0,0.0,0.0,0.0,0.0,0.0,0.0,0.0,0.0,0.0,0.0,0.0,0.0,1.9008,1.966,2.1102,0.0,2.689,2.8334,2.8224,2.9895,3.1114,2.8788,2.6377,2.4178,0.0,0.0,1.7715,1.6978,1.6415,1.5997,1.5777,1.5829,1.579,1.5373,0.0,1.6463,1.7715,0.0,0.0,0.0,0.0,0.0,0.0,0.0,0.0,0.0,0.0,0.0,0.0,-2.6198,-2.8174,-3.0338,-3.2659,-3.348,-3.2593,-3.2593,-3.1997,-3.0758,-3.0101,-2.9792,-2.9792,-2.9792,-2.9792,-2.983,0.0,0.0,0.0,-3.2925,-3.3739,-3.4095,-3.51,-3.4787,-3.3628,-3.2597,-3.1859,-3.1398,0.0,0.0,0.0,0.0,0.0,0.0,1.9764,2.0273,2.0249,1.9055,1.9488,1.9435,1.8254,1.8106,1.8125,1.8125,1.8112,0.0,0.0,0.0,0.0,0.0,0.0,0.0,0.0,0.0,1.865,1.8112,1.865,1.8361,0.0,0.0,0.0,0.0,0.0,0.0,0.0,0.0,0.0,0.0,0.0,0.0,0.0,0.0,0.0,0.0,0.0,0.0,0.0,0.0,0.0,0.0,0.0,1.9359,2.015,2.1845,2.4188,2.6276,2.6468,2.8014,2.9061,2.7018,2.5267,2.3517,0.0,0.0,1.8474,1.7743,1.7578,1.7357,1.6624,1.6869,1.6779,1.5515,1.5635,0.0,1.7724,0.0,0.0,0.0,0.0,0.0,0.0,0.0,0.0,0.0,0.0,0.0,0.0,-2.9542,-3.2544,-3.2558,-3.4476,-3.4543,-3.2629,-3.2593,-3.1659,-2.983,-2.9792,-2.9792,-2.9792,-2.9792,-2.9792,0.0,0.0,0.0,0.0,-3.2213,-3.3171,-3.4095,-3.51,-3.4555,-3.3204,-3.319,-3.2279,-3.1113,0.0,0.0,0.0,0.0,0.0,0.0,1.9711,1.9564,1.9328,1.8959,1.845,1.7984,1.7592,1.7229,1.7013,1.7013,1.7353,0.0,0.0,0.0,0.0,0.0,0.0,0.0,0.0,0.0,1.8283,1.8106,1.7907,1.7626,1.7271,1.5684,1.4402,0.0,0.0,0.0,0.0,0.0,0.0,0.0,0.0,0.0,0.0,0.0,0.0,0.0,0.0,0.0,0.0,0.0,0.0,0.0,0.0,0.0,0.0,2.0338,2.243,0.0,2.4741,2.5994,2.686,2.5191,2.3803,2.2589,2.1609,1.9994,1.8635,1.8394,1.795,1.7523,1.7302,1.6967,1.6562,1.6138,1.6546,0.0,0.0,0.0,0.0,0.0,0.0,0.0,0.0,0.0,0.0,0.0,0.0,0.0,0.0,-2.9897,-3.1646,-3.1646,-3.3463,-3.3856,-3.2593,-3.196,-3.1328,-3.0758,-3.0101,-2.9792,-2.9792,-2.9792,0.0,0.0,0.0,0.0,0.0,-3.1938,-3.2784,-3.3206,-3.4854,-3.5192,-3.4632,-3.3594,-3.3271,-3.3337,0.0,0.0,0.0,0.0,0.0,0.0,1.9424,1.9114,1.8746,1.8361,1.7706,1.7209,1.7013,1.6689,1.65,1.65,1.6816,0.0,0.0,0.0,0.0,0.0,0.0,0.0,1.7504,1.7686,1.7706,1.7504,1.7374,1.7188,1.6972,1.541,1.4354,1.3624,1.1935,0.0,0.0,0.0,0.0,0.0,0.0,0.0,1.6204,0.0,0.0,0.0,0.0,0.0,0.0,0.0,0.0,0.0,0.0,0.0,0.0,0.0,2.0378,2.2003,2.2812,2.3827,2.4418,2.3568,2.2454,0.0,0.0,2.013,1.9123,1.9123,1.8935,1.8518,1.7749,1.7667,1.7461,1.6605,1.6833,0.0,0.0,0.0,0.0,0.0,0.0,0.0,0.0,0.0,0.0,0.0,0.0,0.0,0.0,0.0,-3.1044,-3.0696,-3.25,-3.3031,-3.2069,-3.1499,-3.1007,-3.0658,-3.0075,-2.9792,-2.9792,-2.9792,0.0,0.0,0.0,0.0,0.0,-3.1829,-3.2593,-3.2784,-3.4739,-3.5504,-3.5379,-3.4416,-3.4413,-3.4752,0.0,0.0,0.0,0.0,0.0,0.0,0.0,1.8817,1.8438,1.7422,1.7229,1.698,1.6488,1.6402,1.638,1.6423,1.6402,0.0,0.0,0.0,0.0,0.0,0.0,0.0,1.65,1.6993,1.6993,1.65,1.6993,1.6993,1.6466,1.5265,1.4377,1.3705,1.2376,1.1789,1.1864,1.2556,1.3239,1.3792,1.3786,1.4482,0.0,0.0,0.0,0.0,0.0,0.0,0.0,0.0,0.0,0.0,0.0,0.0,0.0,0.0,0.0,0.0,0.0,2.1487,2.1807,2.1985,0.0,0.0,0.0,2.0188,0.0,1.9798,2.0264,2.0064,1.818,1.885,1.9071,1.715,0.0,0.0,0.0,0.0,0.0,0.0,0.0,0.0,0.0,0.0,0.0,0.0,0.0,0.0,0.0,0.0,-3.0696,-2.983,-3.1476,-3.1997,-3.1106,-3.1106,-3.0658,-2.9792,-2.9792,-2.9792,-2.9792,-2.9792,0.0,0.0,0.0,0.0,0.0,-3.1756,-3.2522,-3.2784,-3.4673,-3.5439,-3.5504,-3.5504,-3.5504,-3.5415,0.0,0.0,0.0,0.0,0.0,0.0,0.0,0.0,0.0,0.0,1.6532,1.5962,1.582,1.5399,1.531,0.0,0.0,0.0,0.0,0.0,0.0,0.0,0.0,0.0,1.65,1.6616,1.6637,1.65,1.6637,1.6616,1.6466,1.5265,1.4629,1.4377,1.2604,1.1789,1.1888,1.3058,1.3674,1.3839,1.4295,1.4641,0.0,0.0,0.0,0.0,1.6324,1.6752,0.0,0.0,0.0,0.0,0.0,0.0,0.0,0.0,1.7664,1.7554,1.8308,0.0,1.9483,1.9528,1.9758,1.994,0.0,0.0,0.0,0.0,0.0,0.0,0.0,1.9237,0.0,0.0,0.0,0.0,0.0,0.0,0.0,0.0,0.0,0.0,0.0,0.0,0.0,0.0,0.0,0.0,0.0,0.0,-3.0037,-2.9792,-3.0216,-3.0355,-3.0139,-3.0139,-2.9998,-2.9792,-2.9792,-2.9792,-2.9792,-2.9792,0.0,0.0,0.0,0.0,-2.9895,-3.1044,-3.196,-3.2713,-3.3891,-3.4839,-3.5504,-3.5504,-3.5504,-3.5377,0.0,0.0,0.0,0.0,0.0,0.0,0.0,0.0,0.0,0.0,1.573,1.5186,1.5186,1.4903,1.4835,0.0,0.0,0.0,0.0,0.0,0.0,0.0,0.0,1.65,1.65,1.65,1.65,1.65,1.65,1.65,1.6466,1.5555,1.5096,1.505,1.3419,1.237,1.1839,1.2248,1.241,1.2434,1.2439,0.0,0.0,0.0,0.0,0.0,1.657,1.7055,0.0,1.7585,1.7504,1.7303,0.0,0.0,0.0,0.0,1.638,1.6535,1.676,1.7508,1.8286,1.8608,1.9006,1.9385,1.9721,1.9798,0.0,0.0,0.0,0.0,0.0,0.0,0.0,0.0,0.0,0.0,0.0,0.0,0.0,0.0,0.0,0.0,0.0,0.0,0.0,0.0,0.0,0.0,0.0,0.0,-2.9792,-2.9792,-2.9792,-2.9792,-2.9792,-2.9792,-2.9792,-2.9792,-2.9792,-2.9792,-2.9792,-2.9792,-2.9792,0.0,0.0,0.0,-2.9856,-3.0796,-3.1499,-3.2069,-3.2996,-3.3685,-3.4158,-3.4158,-3.4158,-3.4114,0.0,0.0,0.0,0.0,0.0,0.0,0.0,0.0,0.0,0.0,0.0,0.0,0.0,0.0,0.0,0.0,0.0,0.0,0.0,0.0,0.0,0.0,1.6129,1.65,1.65,1.65,1.65,1.65,1.6588,1.6588,1.65,1.5971,1.557,1.5286,1.4145,1.2962,1.1765,1.1091,1.0788,1.0737,1.0192,0.0,0.0,0.0,0.0,0.0,0.0,0.0,0.0,1.7967,1.7733,1.7182,1.6583,0.0,0.0,0.0,0.0,0.0,1.5875,1.6765,1.7804,1.8531,1.8768,1.9044,1.9669,1.9798,0.0,0.0,0.0,0.0,0.0,1.8566,0.0,0.0,0.0,0.0,0.0,0.0,0.0,0.0,0.0,0.0,0.0,0.0,0.0,0.0,0.0,0.0,0.0,0.0,0.0,-2.9792,-2.9792,-2.9792,-2.9792,-2.9792,-2.9792,-2.9792,-2.9792,-2.9792,-2.9792,-2.9792,-2.9792,0.0,0.0,0.0,-2.9856,-3.0658,-3.1068,-3.1278,-3.2069,-3.2464,-3.2593,-3.2593,-3.2593,-3.263,0.0,0.0,0.0,0.0,0.0,0.0,0.0,0.0,0.0,0.0,0.0,0.0,0.0,0.0,0.0,0.0,0.0,0.0,0.0,0.0,0.0,1.4835,1.591,1.65,1.65,1.65,1.65,1.65,1.7011,1.6999,1.65,1.6346,1.5499,1.4039,1.3287,1.2517,1.1765,1.1091,1.0788,1.0788,1.0695,0.0,0.0,0.0,0.0,0.0,0.0,0.0,0.0,1.8243,1.7706,1.7109,1.6557,0.0,0.0,0.0,0.0,0.0,1.5669,1.6859,1.8001,1.8555,1.9176,1.9669,1.9773,0.0,1.9798,0.0,0.0,0.0,0.0,1.7785,0.0,0.0,0.0,0.0,0.0,0.0,0.0,0.0,0.0,0.0,0.0,0.0,0.0,0.0,0.0,0.0,0.0,0.0,0.0,-2.9792,-2.9792,-2.9792,-2.9792,-2.9792,-2.9792,-2.9792,-2.9792,-2.9792,-2.9792,-2.9792,-2.9792,0.0,0.0,-2.9792,-2.9792,-2.9972,-3.0482,-3.1217,-3.1352,-3.1888,-3.2593,-3.2593,-3.2593,-3.2629,0.0,0.0,0.0,0.0,0.0,0.0,0.0,0.0,0.0,0.0,0.0,0.0,0.0,0.0,0.0,0.0,0.0,0.0,0.0,0.0,1.4698,1.4698,1.5866,1.65,1.65,1.65,1.6651,1.6986,1.6936,1.6936,1.6964,1.6286,1.5177,1.3726,1.3076,1.1794,1.0087,0.9795,0.9441,0.9169,0.0,0.0,0.0,0.0,0.0,0.0,0.0,0.0,0.0,0.0,1.7932,1.7042,1.6191,0.0,0.0,0.0,0.0,0.0,1.5864,1.6817,1.7623,1.8275,1.8895,1.9359,1.9359,0.0,0.0,0.0,0.0,0.0,0.0,0.0,0.0,0.0,0.0,0.0,0.0,0.0,0.0,0.0,0.0,0.0,0.0,0.0,0.0,0.0,0.0,0.0,0.0,0.0,0.0,0.0,-2.9327,-2.9189,-2.8875,-2.9176,-2.9478,-2.9792,-2.9792,-2.9792,-2.9792,-2.9792,-2.9792,-2.9792,0.0,-2.9792,-2.9792,-2.9792,-3.0037,-3.0457,-3.0457,-3.0709,-3.1095,-3.1095,-3.1402,-3.1779,0.0,0.0,0.0,0.0,0.0,0.0,0.0,0.0,0.0,0.0,0.0,0.0,0.0,0.0,0.0,0.0,0.0,0.0,0.0,1.3907,1.4491,1.4491,1.5511,1.6207,1.6488,1.65,1.681,1.741,1.6936,1.687,1.7134,1.5938,1.4699,1.3436,1.2648,1.1056,0.8947,0.8606,0.8257,0.799,0.0,0.0,0.0,0.0,0.0,0.0,0.0,0.0,0.0,0.0,0.0,0.0,0.0,0.0,0.0,1.3956,1.432,1.4923,1.6092,1.6788,1.7315,1.7862,0.0,0.0,0.0,0.0,0.0,0.0,0.0,0.0,0.0,0.0,0.0,0.0,0.0,0.0,0.0,0.0,0.0,0.0,0.0,0.0,0.0,0.0,0.0,0.0,0.0,0.0,0.0,0.0,0.0,0.0,-2.8168,-2.7911,-2.7422,-2.7814,-2.8484,-2.9402,-2.9409,-2.9342,-2.9218,-2.9069,-2.904,-2.904,-2.904,-2.8966,-2.8856,-2.8991,-2.8966,-2.8868,-2.8991,-2.904,-2.9052,-2.9326,-2.9858,-3.0417,0.0,0.0,0.0,0.0,0.0,0.0,0.0,0.0,0.0,0.0,0.0,0.0,0.0,0.0,0.0,0.0,0.0,0.0,0.0,1.3505,1.3862,1.3862,1.4491,1.5354,1.6479,1.65,1.681,1.741,1.736,1.7029,1.6453,1.5234,1.4023,1.2812,1.1463,1.0434,0.9625,0.8323,0.8123,0.8725,0.8698,0.0,0.0,0.0,0.0,0.0,0.0,0.0,0.0,0.0,0.0,0.0,0.0,0.0,1.3909,1.4468,1.5051,1.5652,1.623,1.6872,1.7393,1.7438,1.8242,0.0,2.0339,2.0232,0.0,2.1308,0.0,0.0,0.0,0.0,0.0,0.0,0.0,0.0,0.0,0.0,0.0,0.0,0.0,0.0,0.0,0.0,0.0,0.0,0.0,0.0,0.0,0.0,0.0,0.0,0.0,-2.5814,-2.5415,-2.5438,-2.6406,-2.8198,-2.8203,-2.7965,-2.7472,-2.695,-2.673,-2.673,-2.673,-2.6499,-2.6103,-2.6579,-2.6488,-2.6114,-2.659,-2.673,-2.6842,-2.7855,-2.8255,-2.8454,0.0,0.0,0.0,0.0,0.0,0.0,0.0,0.0,0.0,0.0,0.0,0.0,0.0,0.0,0.0,0.0,0.0,0.0,0.0,1.3813,1.419,1.3815,1.4376,1.5085,1.5908,1.593,1.6421,1.741,1.6974,1.647,1.5873,1.4247,1.2998,1.2055,1.0738,0.9533,0.8455,0.7931,0.8111,0.8803,0.9621,1.1342,0.0,0.0,0.0,0.0,0.0,0.0,0.0,0.0,1.7315,1.6277,1.5762,1.5028,1.4491,1.5073,1.541,1.5724,1.6296,1.6603,1.6649,1.6343,1.6955,0.0,0.0,1.9004,1.8835,1.9135,1.712,0.0,0.0,0.0,0.0,0.0,0.0,0.0,0.0,0.0,0.0,0.0,0.0,0.0,0.0,0.0,0.0,0.0,0.0,0.0,0.0,0.0,0.0,0.0,0.0,-2.4617,-2.4161,-2.4464,-2.4842,-2.5258,-2.6209,-2.6432,-2.6011,-2.6357,-2.6345,-2.6053,-2.6053,-2.5941,-2.5824,-2.5974,-2.5941,-2.5858,-2.6322,-2.6524,-2.6637,-2.7683,-2.8096,-2.8255,0.0,0.0,0.0,0.0,0.0,0.0,0.0,0.0,0.0,0.0,0.0,0.0,0.0,0.0,0.0,0.0,0.0,0.0,1.3214,1.3967,1.4154,1.3552,1.3907,1.4491,1.5298,1.532,1.6008,1.741,1.6744,1.5938,1.4994,1.3504,1.2415,1.167,1.0602,0.9592,0.8652,0.821,0.8541,0.9452,1.0329,1.2239,0.0,0.0,0.0,0.0,0.0,0.0,0.0,0.0,1.7211,1.6348,1.5983,1.5466,1.5096,1.571,1.5656,1.5538,1.608,1.5922,1.5498,1.5096,0.0,0.0,1.6662,1.7031,1.7281,1.7353,1.3711,0.0,0.0,0.0,0.0,0.0,0.0,0.0,0.0,0.0,0.0,0.0,0.0,0.0,0.0,0.0,0.0,0.0,0.0,0.0,0.0,0.0,0.0,0.0,0.0,-2.3074,-2.2601,-2.2961,-2.2961,-2.2611,-2.3781,-2.4357,-2.4415,-2.4838,-2.4859,-2.4546,-2.4546,-2.446,-2.4392,-2.4643,-2.4807,-2.4979,-2.5302,-2.5442,-2.5599,-2.7075,-2.7602,-2.7815,0.0,0.0,0.0,0.0,0.0,0.0,0.0,0.0,0.0,0.0,0.0,0.0,0.0,0.0,0.0,0.0,0.0,0.0,1.3792,1.3802,1.3529,1.2929,1.2905,1.3478,1.4675,1.4709,1.5601,1.7375,1.6708,1.5509,1.3802,1.312,1.2434,1.1765,1.1091,1.0788,1.0712,0.9304,0.9537,1.0805,1.0764,1.2253,1.4821,0.0,0.0,0.0,0.0,0.0,0.0,0.0,1.6891,1.6412,1.6475,1.6095,1.5732,1.6315,1.5791,1.5094,1.5467,1.4849,1.4016,0.0,0.0,0.0,1.3356,1.4513,1.5823,1.6362,0.0,0.2436,-0.2095,0.0,0.0,0.0,0.0,0.0,0.0,0.0,0.0,0.0,0.0,0.0,0.0,0.0,0.0,0.0,0.0,0.0,0.0,0.0,0.0,0.0,0.0,0.0,-2.0605,-2.0605,-2.0605,-2.0605,-2.1016,-2.172,-2.2663,-2.2149,-2.1885,-2.1875,-2.1875,-2.1641,-2.1259,-2.2107,-2.2711,-2.3091,-2.3091,-2.3091,-2.3387,-2.5641,-2.6524,-2.6853,0.0,0.0,0.0,0.0,0.0,0.0,0.0,0.0,0.0,0.0,0.0,0.0,0.0,0.0,0.0,0.0,0.0,0.0,1.3862,1.419,1.3967,1.2954,1.331,1.3897,1.4675,1.513,1.5604,1.6128,1.5509,1.4717,1.3768,1.2638,1.1978,1.1765,1.1091,1.0788,1.0762,1.0348,1.0965,1.2269,1.3064,1.4763,1.7029,0.0,0.0,0.0,0.0,0.0,0.0,0.0,0.0,0.0,1.6488,1.638,1.6259,1.6457,1.5985,1.5364,1.4992,1.3875,0.0,1.1913,0.0,0.0,0.0,1.1873,0.0,0.0,0.0,0.0,0.0,0.0,0.0,0.0,0.0,0.0,0.0,0.0,0.0,0.0,0.0,0.0,0.0,0.0,0.0,0.0,0.0,0.0,0.0,0.0,0.0,0.0,0.0,0.0,-2.0605,-2.0605,-2.0605,-2.0605,-2.0742,-2.0948,-2.1231,-2.1696,-2.1719,-2.1385,-2.1385,-2.1317,-2.121,-2.1463,-2.1999,-2.2705,-2.2705,-2.3325,-2.4457,-2.5975,-2.6964,-2.7815,0.0,0.0,0.0,0.0,0.0,0.0,0.0,0.0,0.0,0.0,0.0,0.0,0.0,0.0,0.0,0.0,0.0,0.0,0.0,1.4846,1.4629,1.3658,1.3967,1.4445,1.5028,1.541,1.5477,1.5231,1.4652,1.4167,1.3768,1.2962,1.2711,1.2918,1.2288,1.1994,1.1969,1.1408,1.2098,1.3614,1.4733,1.6536,1.8755,0.0,0.0,0.0,0.0,0.0,0.0,0.0,0.0,0.0,1.65,1.65,1.6429,1.6033,1.5188,1.4235,1.3399,1.1803,0.0,0.9358,0.8428,0.7274,0.5549,0.0,0.0,0.0,0.0,0.0,0.0,0.0,0.0,0.0,0.0,0.0,0.0,0.0,0.0,0.0,0.0,0.0,0.0,0.0,0.0,0.0,0.0,0.0,0.0,0.0,0.0,0.0,0.0,0.0,-1.9962,-1.9962,-2.0167,-2.0605,-2.0605,-2.0517,-2.037,-2.1075,-2.1123,-2.0674,-2.0674,-2.081,-2.0986,-2.1122,-2.1974,-2.3199,-2.3199,-2.4116,-2.563,-2.6707,-2.7522,-2.8255,0.0,0.0,0.0,0.0,0.0,0.0,0.0,0.0,0.0,0.0,1.4858,0.0,0.0,0.0,0.0,0.0,0.0,0.0,0.0,1.5543,1.5276,1.4721,1.4744,1.5039,1.5588,1.5543,1.5231,1.4629,1.4073,1.3792,1.3792,1.3792,1.4118,1.465,1.4091,1.3808,1.3699,1.2525,1.3066,1.4835,1.5999,1.7836,2.0138,2.2289,0.0,0.0,0.0,0.0,0.0,0.0,0.0,0.0,1.6522,1.65,1.6302,1.5338,1.3929,1.2393,1.1196,0.0,0.0,0.6237,0.4403,0.0,-0.0938,0.0,0.0,0.0,0.0,0.0,0.0,0.0,0.0,0.0,0.0,0.0,0.0,0.0,0.0,0.0,0.0,0.0,0.0,0.0,0.0,0.0,0.0,0.0,0.0,0.0,0.0,0.0,0.0,0.0,-1.8838,-1.8957,-1.9462,0.0,-2.0508,-2.0273,-1.9873,-2.0341,-2.0273,-1.9853,-1.9893,-2.0137,-2.0586,-2.1035,-2.2372,-2.4135,-2.4177,-2.5176,-2.676,-2.7723,-2.8176,-2.8386,0.0,0.0,0.0,0.0,0.0,0.0,0.0,0.0,0.0,0.0,0.0,0.0,0.0,0.0,0.0,0.0,0.0,0.0,0.0,1.5163,1.4835,1.4709,1.5141,1.5477,1.561,1.5141,1.4606,1.398,1.3862,1.3792,1.3792,1.3792,1.4029,1.4474,1.4317,1.3994,1.3586,1.3761,1.4584,1.5923,1.7693,1.9643,2.1613,2.2681,2.2971,0.0,0.0,0.0,0.0,0.0,0.0,0.0,1.6637,1.65,1.6355,1.5654,1.4335,1.2609,1.0423,0.7722,0.0,0.0,0.0429,-0.1986,-0.3609,0.0,0.0,0.0,0.0,0.0,0.0,0.0,0.0,0.0,0.0,0.0,0.0,0.0,0.0,0.0,0.0,0.0,0.0,0.0,0.0,0.0,0.0,0.0,0.0,0.0,0.0,0.0,0.0,-1.6364,-1.7658,-1.855,-1.8922,0.0,-1.9659,-1.9834,-1.9434,-1.9863,-1.9824,-1.9443,-1.9775,-1.9971,-2.0117,-2.0869,-2.2191,-2.3682,-2.4051,-2.5658,-2.7763,-2.8004,-2.8688,-2.9495,0.0,0.0,0.0,0.0,0.0,0.0,0.0,0.0,0.0,0.0,0.0,0.0,0.0,0.0,0.0,0.0,0.0,0.0,0.0,0.0,1.5265,1.5545,1.5876,1.5908,1.561,1.5017,1.4399,1.3792,1.3792,1.3956,1.4247,1.4488,1.475,1.4974,1.517,1.4818,1.4118,1.4927,1.6126,1.7677,1.9821,2.178,2.3487,2.3859,2.3672,2.2929,2.0902,0.0,0.0,0.0,0.0,0.0,0.0,0.0,1.6352,1.554,1.4082,1.2057,0.898,0.0,0.0,-0.1555,0.0,-0.6036,-0.7603,0.0,0.0,0.0,0.0,0.0,0.0,0.0,0.0,0.0,0.0,0.0,0.0,0.0,0.0,0.0,0.0,0.0,0.0,0.0,0.0,0.0,0.0,0.0,0.0,0.0,0.0,0.0,-1.4287,-1.4877,-1.6103,-1.6696,-1.7385,-1.812,-1.8695,-1.8934,-1.8984,-1.9163,-1.9143,-1.8994,-1.9424,-1.9905,-2.038,-2.0977,-2.2708,-2.4937,-2.4416,-2.5821,-2.8056,-2.7522,-2.7706,-2.8291,0.0,0.0,0.0,0.0,0.0,0.0,0.0,0.0,0.0,0.0,0.0,0.0,0.0,0.0,0.0,0.0,0.0,0.0,0.0,0.0,0.0,1.6315,1.6324,1.6051,1.5454,1.4846,1.4306,1.3792,1.3792,1.4167,1.4869,1.5273,1.5542,1.5693,1.6119,1.5778,1.4982,1.6158,1.756,1.9143,2.1436,2.3224,2.4477,2.4454,2.3911,2.2911,2.1079,0.0,0.0,0.0,0.0,0.0,0.0,0.0,1.6253,1.5133,1.3411,1.1072,0.7435,0.0,-0.0886,-0.6092,-0.8329,0.0,0.0,0.0,0.0,0.0,0.0,0.0,0.0,0.0,0.0,0.0,0.0,0.0,0.0,0.0,0.0,0.0,0.0,0.0,0.0,0.0,0.0,0.0,0.0,0.0,0.0,0.0,-1.308,-1.3126,-1.3133,-1.365,-1.4756,-1.4949,-1.5945,-1.775,-1.7871,-1.8104,-1.849,-1.8655,-1.867,-1.8627,-1.9102,-1.9974,-2.1056,-2.1436,-2.3513,-2.6362,-2.5103,-2.5928,-2.7735,-2.6842,-2.6524,-2.6637,0.0,0.0,0.0,0.0,0.0,0.0,0.0,0.0,0.0,0.0,0.0,0.0,0.0,0.0,0.0,0.0,0.0,0.0,0.0,0.0,0.0,1.572,1.572,1.5444,1.4835,1.4236,1.3886,1.3792,1.3792,1.4388,1.5488,1.538,1.5543,1.5961,1.6495,1.6359,1.5844,1.7754,1.8613,1.8912,2.0986,2.2084,2.2469,2.2239,2.2328,2.2316,2.0124,0.0,0.0,0.0,1.8456,0.0,0.0,0.0,0.0,1.4432,1.2307,0.9739,0.0,0.0,-0.6103,0.0,-1.0863,-1.2099,0.0,0.0,0.0,0.0,0.0,0.0,0.0,0.0,0.0,0.0,0.0,0.0,0.0,0.0,0.0,0.0,0.0,0.0,0.0,0.0,0.0,0.0,0.0,0.0,0.0,-1.2425,-1.2538,-1.2837,-1.2844,-1.3421,-1.46,-1.5549,-1.638,-1.7117,-1.7713,-1.8007,-1.8096,-1.8879,-1.8981,-1.8627,-1.9102,-2.0316,-2.2083,-2.289,-2.4273,-2.5916,-2.6099,-2.6416,-2.6678,-2.6554,-2.6524,-2.6637,0.0,0.0,0.0,0.0,0.0,0.0,0.0,0.0,0.0,0.0,0.0,0.0,0.0,0.0,0.0,0.0,0.0,0.0,0.0,0.0,0.0,1.5588,1.561,1.5163,1.4213,1.426,1.4143,1.3792,1.4778,1.5527,1.6062,1.6539,1.6345,1.5661,1.7203,1.7217,1.6214,1.8405,1.936,1.9531,2.1392,2.2022,2.1758,2.1314,2.1029,2.0598,1.85,0.0,0.0,0.0,0.0,0.0,0.0,0.0,0.0,0.0,1.1786,0.0,0.213,-0.3795,-0.8736,0.0,-1.2093,-1.3082,0.0,0.0,0.0,0.0,0.0,0.0,0.0,0.0,0.0,0.0,0.0,0.0,0.0,0.0,0.0,0.0,0.0,0.0,0.0,0.0,0.0,0.0,0.0,0.0,-1.2311,-1.2305,-1.2617,-1.326,-1.3305,-1.3844,-1.4943,-1.5414,-1.6022,-1.6802,-1.7596,-1.8398,-1.9199,-1.9552,-1.9633,-1.9506,-2.0393,-2.1969,-2.3886,-2.4194,-2.5587,-2.746,-2.677,-2.6524,-2.6431,-2.5797,-2.5136,-2.4766,0.0,0.0,0.0,0.0,0.0,0.0,0.0,0.0,0.0,0.0,0.0,0.0,0.0,0.0,0.0,0.0,0.0,0.0,0.0,0.0,0.0,1.5565,1.5309,1.479,1.405,1.4329,1.4457,1.4458,1.576,1.6473,1.6649,1.7695,1.7301,1.5832,1.7803,1.7999,1.6977,1.9068,1.9941,1.9987,2.1155,2.1249,2.0577,1.952,1.8973,1.8512,1.6663,0.0,0.0,0.0,0.0,0.0,0.0,0.0,0.0,0.0,0.0,0.0,0.0,0.0,-1.0318,-1.174,-1.2704,-1.335,0.0,0.0,0.0,0.0,0.0,0.0,0.0,0.0,0.0,0.0,0.0,0.0,0.0,0.0,0.0,0.0,0.0,0.0,0.0,0.0,0.0,0.0,0.0,0.0,-1.2622,-1.2666,-1.3098,-1.4063,-1.4099,-1.4557,-1.5552,-1.5893,-1.6493,-1.7306,-1.8232,-1.9274,-2.0297,-2.0732,-2.1035,-2.12,-2.2065,-2.3616,-2.5553,-2.5593,-2.6857,-2.8528,-2.7071,-2.6524,-2.6348,-2.4882,-2.4221,-2.4059,0.0,0.0,0.0,0.0,0.0,0.0,0.0,0.0,0.0,0.0,0.0,0.0,1.3428,1.3125,1.3037,1.3437,1.3105,1.3406,1.4617,1.4167,1.4365,1.5543,1.4492,0.0,1.4629,1.412,1.4641,1.6271,1.6357,1.668,1.7274,1.8406,1.8244,1.7059,1.8187,1.8652,1.8658,2.0118,2.0366,1.9761,1.9349,1.8782,1.7942,1.5666,0.0,0.0,0.0,0.0,0.0,0.0,0.0,0.0,0.0,0.0,0.0,0.0,0.0,0.0,0.0,-0.9454,0.0,-1.2501,0.0,0.0,0.0,0.0,0.0,0.0,0.0,0.0,0.0,0.0,0.0,0.0,0.0,0.0,0.0,0.0,0.0,0.0,0.0,0.0,0.0,0.0,0.0,0.0,0.0,0.0,-1.3564,-1.3637,-1.4099,-1.5092,-1.5128,-1.5579,-1.6532,-1.7776,-1.8666,-1.9182,-2.0195,-2.0702,-2.0829,-2.2536,-2.3615,-2.4044,-2.3738,-2.4713,-2.6566,-2.7138,-2.7675,-2.802,-2.6912,-2.6524,-2.6224,-2.4016,-2.452,-2.6182,0.0,0.0,0.0,0.0,0.0,0.0,0.0,0.0,0.0,0.0,0.0,0.0,0.0,1.3135,1.3047,1.3467,1.3125,1.3406,1.4617,1.4143,1.4167,1.4983,1.4236,1.3909,1.412,1.463,1.5395,1.64,1.7913,1.856,1.8416,1.9199,1.9307,1.8856,1.9213,1.8874,1.8058,1.9046,1.9104,1.8561,1.8363,1.7515,1.625,0.0,0.0,0.0,0.0,0.0,0.0,0.0,0.0,0.0,0.0,0.0,0.0,0.0,0.0,0.0,0.0,0.0,0.0,-1.208,0.0,0.0,0.0,0.0,0.0,0.0,0.0,0.0,0.0,0.0,0.0,0.0,0.0,0.0,0.0,0.0,0.0,0.0,0.0,0.0,0.0,0.0,0.0,0.0,0.0,0.0,-1.4585,-1.4665,-1.5092,-1.6079,-1.636,-1.7081,-1.8335,-1.8831,-1.9445,-2.0267,-2.0613,-2.1599,-2.3064,-2.3728,-2.48,-2.6225,-2.6444,-2.6932,-2.7594,-2.8187,-2.8691,-2.9157,-2.8752,-2.8159,-2.7319,-2.585,-2.5347,-2.5336,0.0,0.0,0.0,0.0,0.0,0.0,0.0,0.0,0.0,1.3529,0.0,0.0,0.0,0.0,1.3509,1.4032,1.3816,1.4129,1.5199,1.4711,1.4563,1.4971,1.4411,1.4289,1.4665,1.5417,1.6387,1.7583,1.8925,1.9492,1.9302,1.9449,1.9501,1.9522,1.9453,1.8921,1.8095,1.8386,0.0,1.8173,0.0,0.0,1.5809,0.0,0.0,0.0,0.0,0.0,0.0,0.0,0.0,0.0,0.0,0.0,0.0,0.0,0.0,0.0,-1.0192,0.0,0.0,0.0,0.0,0.0,0.0,0.0,0.0,0.0,0.0,0.0,0.0,0.0,0.0,0.0,0.0,0.0,0.0,0.0,0.0,0.0,0.0,0.0,0.0,0.0,0.0,0.0,0.0,0.0,-1.5384,-1.5581,-1.6167,-1.723,-1.7543,-1.825,-1.9492,-1.9502,-2.0183,-2.1523,-2.1803,-2.308,-2.5063,-2.5405,-2.6277,-2.7582,-2.7946,-2.8109,-2.811,-2.835,-2.8631,-2.8887,-2.8186,-2.7754,-2.736,-2.588,-2.5347,-2.5336,0.0,0.0,0.0,0.0,0.0,0.0,0.0,0.0,1.3573,1.2988,0.0,0.0,0.0,0.0,0.0,1.5133,1.521,1.5542,1.6373,1.5843,1.5543,1.5613,1.5017,1.5223,1.6384,1.6407,1.7559,1.9879,1.9315,1.9329,1.9842,1.9061,1.8796,1.8921,1.8724,1.873,1.8846,0.0,1.8396,1.8672,0.0,1.5564,1.6526,0.0,0.0,0.0,1.1115,0.9637,0.0,0.0,0.0,0.0,0.0,0.0,0.0,0.0,0.0,0.0,0.0,0.0,0.0,0.0,0.0,0.0,0.0,0.0,0.0,0.0,0.0,0.0,0.0,0.0,0.0,0.0,0.0,0.0,0.0,0.0,0.0,0.0,0.0,0.0,0.0,0.0,0.0,0.0,0.0,-1.4942,-1.5896,-1.6394,-1.7265,-1.8572,-1.8627,-1.9046,-1.9922,-1.9951,-2.0936,-2.2935,-2.3885,-2.513,-2.6677,-2.7668,-2.8146,-2.8109,-2.8146,-2.8133,-2.8049,-2.7669,-2.74,-2.7116,-2.5047,-2.5187,-2.6202,-2.3973,-2.4542,-2.6262,0.0,0.0,0.0,0.0,0.0,1.3334,1.3176,1.3387,1.3521,0.0,0.0,0.0,1.4561,1.4609,1.4762,1.5164,1.521,1.5734,1.6967,1.6074,1.5703,1.6158,1.5234,1.5223,1.6384,1.6785,1.7717,1.9257,1.9958,1.988,1.9039,1.8892,1.8374,1.7554,1.7383,1.7022,1.6533,1.7378,0.0,1.6713,1.6332,1.5688,0.0,0.0,0.0,0.0,0.0,0.8478,0.6772,0.0,0.3024,-0.0717,0.0,0.0,0.0,0.0,0.0,0.0,-1.2997,0.0,0.0,0.0,0.0,0.0,0.0,0.0,0.0,0.0,0.0,0.0,0.0,0.0,0.0,0.0,0.0,0.0,0.0,0.0,0.0,0.0,0.0,0.0,0.0,0.0,0.0,0.0,-1.481,-1.5749,-1.6906,-1.767,-1.836,-1.9092,-1.9404,-1.9824,-2.0381,-2.0703,-2.189,-2.3912,-2.4508,-2.5829,-2.7705,-2.8697,-2.8746,-2.8133,-2.8818,-2.8515,-2.751,-2.7386,-2.7311,-2.7191,-2.6247,-2.5932,-2.5857,-2.4756,-2.4336,-2.4452,0.0,0.0,0.0,0.0,0.0,1.3203,1.3379,1.3613,1.3743,0.0,0.0,0.0,1.5469,1.5237,1.5371,1.6133,1.6217,1.6707,1.7934,1.7351,1.7027,1.7143,1.6502,1.6585,1.7483,1.779,1.8548,1.9745,1.988,1.9564,1.8783,1.7721,1.6885,1.6262,1.5585,1.4914,1.4362,0.0,0.0,0.0,1.5391,0.0,0.0,1.2952,1.1356,0.0,0.0,0.0,0.3498,0.1894,-0.1433,0.0,0.0,0.0,0.0,0.0,0.0,0.0,0.0,0.0,0.0,0.0,0.0,0.0,0.0,-0.9489,0.0,0.0,0.0,0.0,0.0,0.0,0.0,0.0,0.0,0.0,0.0,0.0,0.0,0.0,0.0,0.0,0.0,0.0,0.0,0.0,-1.542,-1.648,-1.7574,-1.8237,-1.8802,-1.9277,-1.9697,-2.0215,-2.084,-2.1064,-2.2437,-2.4947,-2.52,-2.6762,-2.9404,-2.9689,-2.9714,-2.9545,-2.9606,-2.8932,-2.7726,-2.6869,-2.6423,-2.615,-2.5028,-2.4606,-2.4618,-2.404,-2.3929,-2.4205,0.0,0.0,1.3066,1.3447,1.3545,1.3701,1.4055,1.4143,1.4182,0.0,1.5151,1.5984,1.6327,1.5864,1.6083,1.7495,1.766,1.81,1.9033,1.9033,1.8782,1.8317,1.8242,1.8455,1.8995,1.8921,1.9433,2.0572,1.9105,1.8412,1.8375,1.578,1.4606,1.4568,1.3379,0.0,0.0,0.0,0.0,1.5285,1.3526,1.3388,0.0,0.0,0.8413,0.0,0.3993,0.1579,-0.0633,-0.2858,-0.5927,0.0,0.0,0.0,0.0,0.0,-1.1973,0.0,0.0,0.0,0.0,0.0,0.0,0.0,-1.0213,-0.9511,-0.8698,0.0,0.0,0.0,0.0,0.0,0.0,0.0,0.0,0.0,0.0,0.0,0.0,0.0,0.0,0.0,0.0,0.0,-1.4717,-1.4717,-1.5937,-1.7112,-1.8026,-1.8462,-1.8887,-1.9277,-1.9736,-2.0391,-2.119,-2.1239,-2.2726,-2.5612,-2.5788,-2.7639,-3.09,-3.051,-3.069,-3.1234,-3.0259,-2.9217,-2.8048,-2.6065,-2.505,-2.4564,-2.2696,-2.2383,-2.2969,-2.2804,-2.3568,-2.4787,0.0,1.3154,1.3408,1.3496,1.3763,1.4007,1.4094,1.4434,1.4658,1.4658,1.5161,1.5543,1.5604,1.6007,1.6641,1.7523,1.8151,1.8811,1.9597,1.9233,1.8958,1.8845,1.8418,1.8455,1.8995,1.8434,1.8435,1.9111,1.7376,1.5934,1.4785,1.3341,1.1873,1.0463,1.0524,1.0139,0.0,0.0,0.0,1.0739,1.1811,0.0,1.0235,0.8938,0.662,0.3696,0.0835,-0.1598,-0.3962,0.0,-0.9859,-1.1319,0.0,0.0,0.0,0.0,0.0,0.0,0.0,0.0,0.0,0.0,0.0,0.0,-0.9591,-0.9463,-0.9351,0.0,0.0,0.0,0.0,0.0,0.0,0.0,0.0,0.0,0.0,0.0,0.0,0.0,0.0,0.0,0.0,0.0,-1.4231,-1.4231,-1.5771,-1.7199,-1.8346,-1.8894,-1.9199,-1.9287,-2.0077,-2.0693,-2.119,-2.1582,-2.2685,-2.4527,-2.5768,-2.728,-2.9075,-3.0619,-3.059,-2.9375,-2.9942,-2.8757,-2.6306,-2.4752,-2.4194,-2.4183,-2.2868,-2.2285,-2.2323,-2.381,-2.4086,-2.4081,0.0,1.3525,1.386,1.4102,1.4316,1.4631,1.5197,1.5502,1.5785,1.6165,1.662,1.6769,1.6342,1.726,1.8009,1.8315,1.8486,1.8901,1.9643,1.9181,1.885,1.885,1.8946,1.9133,1.9384,1.9054,1.8586,1.8109,1.6383,1.4619,1.2819,1.1104,0.9438,0.7895,0.7758,0.7078,0.0,0.0,0.636,0.5861,0.8662,0.0,0.7493,0.5401,0.2684,-0.0397,-0.3548,-0.6401,-0.8945,-1.0668,-1.1932,0.0,0.0,-1.2655,-1.2547,0.0,-1.1597,-1.128,0.0,0.0,0.0,-1.0197,0.0,0.0,0.0,-0.9376,-0.9513,0.0,0.0,0.0,0.0,0.0,0.0,0.0,0.0,0.0,0.0,0.0,0.0,0.0,0.0,0.0,0.0,0.0,-1.4377,-1.5049,-1.6083,-1.7074,-1.791,-1.8829,-1.9287,-1.9287,-2.0155,-2.0781,-2.119,-2.167,-2.2651,-2.4198,-2.5205,-2.6565,-2.8248,-2.9298,-2.9558,-2.9106,-2.9272,-2.8285,-2.6442,-2.485,-2.4206,-2.4041,-2.2471,-2.2462,-2.3416,-2.3937,-2.45,-2.5228,1.3591,1.3948,1.4392,1.4929,1.5068,1.5433,1.6355,1.6492,1.6712,1.7238,1.7652,1.759,1.6742,1.7838,1.8565,1.8367,1.8182,1.8365,1.8999,1.861,1.8348,1.8325,1.9141,1.9619,1.966,1.9619,1.8903,1.7532,1.5558,1.3454,1.1249,0.8885,0.7102,0.5851,0.516,0.4183,0.0,0.0,0.0,0.153,0.0,0.521,0.4213,0.0926,-0.1972,-0.4696,-0.8021,-1.1032,-1.335,-1.2922,0.0,-1.3525,-1.3058,-1.2823,0.0,0.0,0.0,0.0,0.0,0.0,0.0,0.0,0.0,-0.8668,0.0,0.0,0.0,0.0,0.0,0.0,0.0,0.0,0.0,0.0,0.0,0.0,0.0,0.0,0.0,0.0,0.0,0.0,0.0,0.0,-1.5024,-1.6467,-1.6919,-1.7371,-1.7823,-1.8844,-1.937,-1.9287,-2.0077,-2.0615,-2.0889,-2.1322,-2.2083,-2.3212,-2.3768,-2.4889,-2.6517,-2.6797,-2.715,-2.7497,-2.7006,-2.641,-2.5638,-2.432,-2.3962,-2.4037,-2.2289,-2.2859,-2.4626,-2.4215,-2.5121,-2.6633,1.397,1.4414,1.4939,1.5635,1.6071,1.6345,1.6482,1.6492,1.6438,1.6287,1.5979,1.5498,1.4782,0.0,0.0,0.0,0.0,0.0,1.7006,0.0,1.7119,1.6924,1.8154,1.8917,1.9096,1.8919,1.8409,1.7594,1.4298,1.149,0.9085,0.64,0.4608,0.3627,0.2905,0.0,0.0,0.0,0.1131,0.0,-0.0992,-0.0978,0.0,-0.4032,-0.6351,-0.8468,-1.149,-1.3451,-1.4586,0.0,-1.4101,-1.3538,0.0,-1.2303,0.0,0.0,0.0,0.0,0.0,0.0,0.0,0.0,-0.9265,0.0,0.0,0.0,0.0,0.0,0.0,0.0,0.0,0.0,0.0,0.0,0.0,0.0,0.0,0.0,0.0,0.0,0.0,0.0,0.0,0.0,-1.6409,-1.8116,-1.8607,-1.9022,-1.9434,-1.9686,-1.9671,-1.9314,-1.9746,-1.9937,-1.9779,-2.0056,-2.0063,-1.9694,-2.0687,-2.131,-2.1534,-2.2583,-2.219,-2.0742,-2.0945,-2.0818,-2.0486,-2.0775,-2.2175,-2.4106,-2.3343,-2.3559,-2.4437,-2.5703,-2.6309,-2.6762,1.4617,1.4853,1.5261,1.5554,1.5761,1.6007,1.6425,1.6866,1.7038,1.6765,1.7005,0.0,0.0,0.0,0.0,0.0,0.0,1.6613,0.0,0.0,1.7317,1.7015,1.8818,1.9819,1.9715,1.9792,1.9034,1.7377,1.4431,1.1324,0.8059,0.5408,0.3646,0.2636,0.1905,0.0,0.017,0.0,0.0,0.0,0.0,0.0,0.0,-0.751,-0.9451,-1.1768,-1.2673,-1.3606,-1.4266,0.0,-1.2669,0.0,0.0,0.0,0.0,0.0,0.0,0.0,0.0,0.0,0.0,0.0,0.0,0.0,0.0,0.0,-0.9068,0.0,0.0,0.0,0.0,0.0,0.0,0.0,0.0,0.0,0.0,0.0,0.0,0.0,0.0,0.0,0.0,0.0,0.0,0.0,0.0,-1.9171,-1.9342,-1.9715,-1.9824,-1.9646,-1.9809,-1.9573,-1.8849,-1.9605,-1.9555,-1.869,-1.8819,-1.8428,-1.7644,-1.7141,-1.6421,-1.564,-1.644,-1.7465,-1.8691,-2.0452,-2.2351,-2.4221,-2.4503,-2.5014,-2.5637,-2.6517,-2.6997,-2.7472,1.5405,0.0,0.0,1.5968,1.5835,1.5892,1.6436,1.6889,0.0,0.0,0.0,0.0,1.57,1.687,0.0,0.0,1.559,1.5468,0.0,0.0,1.6955,0.0,0.0,0.0,0.0,2.0242,1.9622,1.7736,1.4807,1.1598,0.8105,0.495,0.3181,0.2523,0.0,0.0173,-0.0929,0.0,0.0,-0.6783,-0.8223,-0.9515,-1.053,-1.0498,-1.1839,-1.3694,-1.3363,-1.3516,-1.3663,-1.2273,-1.1755,0.0,-1.1182,0.0,0.0,0.0,0.0,0.0,-1.0546,0.0,0.0,0.0,0.0,0.0,0.0,0.0,0.0,0.0,0.0,0.0,0.0,0.0,0.0,0.0,0.0,0.0,0.0,0.0,0.0,0.0,0.0,0.0,0.0,0.0,0.0,0.0,-1.9216,-2.0093,-2.0182,-2.0559,-2.0565,-2.0224,-2.0017,-1.9388,-1.8323,-1.8903,-1.8574,-1.7352,-1.6216,-1.4827,-1.319,-1.1127,-1.0516,-1.1099,-1.2159,-1.4609,-1.8044,-2.0803,-2.3258,-2.5352,-2.6307,-2.7117,-2.7695,-2.7378,-2.759,-2.8329,1.6309,1.6454,0.0,0.0,0.0,1.6464,1.6492,0.0,0.0,0.0,0.0,0.0,0.0,0.0,0.0,0.0,0.0,1.2341,1.325,0.0,1.5315,0.0,0.0,1.8856,0.0,0.0,1.9826,1.9048,1.5268,1.2103,0.9521,0.4894,0.303,0.346,0.1102,-0.0059,-0.0347,-0.2327,-0.4982,-0.7951,-0.9113,-1.0698,-1.2484,0.0,-1.3514,-1.3652,-1.4042,0.0,0.0,-1.3119,-1.2348,0.0,0.0,0.0,0.0,0.0,0.0,0.0,0.0,0.0,0.0,-0.9493,0.0,0.0,0.0,0.0,-0.8027,0.0,0.0,0.0,0.0,0.0,0.0,0.0,0.0,0.0,0.0,0.0,0.0,0.0,0.0,0.0,0.0,0.0,0.0,-2.0279,-2.1677,-2.2614,-2.2951,-2.2925,-2.2327,-2.1007,-2.0279,-1.9372,-1.8314,-1.7578,-1.6354,-1.4672,-1.2343,-0.9908,-0.7474,-0.4671,-0.4647,-0.6829,-0.7803,-1.1898,-1.8128,-2.1198,-2.4668,-2.8062,-2.9017,-2.9982,-3.0604,-2.8492,-2.8214,-2.918,0.0,0.0,0.0,0.0,0.0,0.0,0.0,1.5844,0.0,0.0,0.0,0.0,0.0,0.0,1.2603,0.0,0.0,1.26,1.3355,1.5337,0.0,0.0,0.0,2.01,0.0,0.0,0.0,0.0,0.0,1.3585,0.961,0.599,0.3778,0.2791,0.0,-0.0576,0.0,0.0,0.0,0.0,0.0,-1.1946,-1.278,0.0,0.0,-1.3165,-1.2319,-1.213,0.0,-1.0932,-1.0401,-1.0232,-1.0163,-1.0002,-0.985,-1.018,-1.0267,0.0,0.0,0.0,-1.0192,-0.9735,0.0,0.0,0.0,0.0,0.0,0.0,0.0,0.0,0.0,0.0,0.0,0.0,0.0,0.0,0.0,0.0,0.0,0.0,0.0,0.0,0.0,0.0,0.0,-2.0679,-2.2309,-2.3487,0.0,-2.3846,-2.3466,-2.2935,-2.1436,-2.0031,-1.8768,-1.7655,-1.6573,-1.5554,-1.2614,-0.9858,-0.7289,-0.2994,-0.3918,-0.8819,-0.8531,-1.3832,-2.2911,-2.5165,-2.7524,-2.9788,-3.0297,-3.1032,-3.1695,-3.0932,-3.0856,-3.1268,1.6627,0.0,0.0,0.0,0.0,0.0,0.0,0.0,0.0,0.0,1.4318,0.0,1.2413,0.0,1.1826,0.0,1.1974,1.2463,1.3796,1.559,0.0,1.5972,1.8816,0.0,0.0,0.0,0.0,0.0,0.0,1.397,1.0298,0.6161,0.3828,0.2926,0.0,-0.1576,-0.3143,0.0,-0.8421,0.0,0.0,-1.2521,0.0,0.0,-1.2494,-1.272,0.0,-1.1343,-1.1232,-0.9716,-0.9337,-0.9512,-0.9397,-0.9557,-0.9837,-1.018,-1.0334,-1.0459,-1.0566,-1.0667,0.0,-0.9922,-0.9819,0.0,-0.9043,0.0,0.0,0.0,0.0,0.0,0.0,0.0,0.0,0.0,0.0,0.0,0.0,0.0,0.0,0.0,0.0,0.0,0.0,0.0,-2.0402,-2.1465,-2.2835,-2.3977,0.0,0.0,-2.4462,-2.43,-2.2362,-2.0939,-2.017,-1.8202,-1.7019,-1.6525,-1.3045,-0.9878,-0.702,-0.3495,-0.5477,-1.1751,-1.1897,-1.7998,-2.7872,-2.9338,-3.1043,-3.2678,-3.2864,-3.3429,-3.404,-3.2684,-3.2718,-3.3415,0.0,0.0,0.0,0.0,1.6083,0.0,0.0,0.0,1.3743,0.0,1.3308,1.2932,1.0773,1.0843,1.1107,1.126,1.1011,0.0,1.4482,1.5806,0.0,0.0,1.8451,1.934,1.8963,0.0,0.0,0.0,0.0,0.0,1.131,0.5473,0.3142,0.3635,-0.0481,0.0,-0.4656,-0.7497,-0.9548,-1.1031,-1.2359,-1.2471,-1.1816,-1.1848,0.0,-1.2344,-1.1949,-1.1324,-1.0562,-0.9542,-0.9211,-0.9264,-0.9593,-0.9499,-0.9417,-1.0325,-1.0347,-1.02,-1.0512,-1.0794,-1.0804,-1.0127,0.0,0.0,0.0,0.0,-1.0134,0.0,0.0,0.0,0.0,0.0,0.0,0.0,0.0,0.0,0.0,0.0,0.0,0.0,0.0,0.0,0.0,-2.1115,-2.2058,-2.2694,-2.3378,-2.4235,0.0,0.0,-2.5352,-2.5189,-2.3237,-2.2298,-2.2508,-1.9306,-1.7656,-1.7564,-1.3594,-1.0045,-0.6906,-0.6098,-0.9262,-1.5549,-1.7583,-2.39,-3.2815,-3.3571,-3.4936,-3.6504,-3.6489,-3.7018,-3.7369,-3.3779,-3.3858,-3.5532,1.6267,1.6815,1.699,0.0,1.5137,1.4849,0.0,0.0,0.0,0.0,1.2748,1.2065,0.9799,0.9913,1.0339,1.0885,1.1267,0.0,0.0,0.0,0.0,1.7736,2.0103,2.0825,1.9617,2.1526,0.0,1.704,0.0,0.0,0.9053,0.5377,0.2811,0.1105,0.0,0.0,-0.6908,-0.9241,-1.1073,-1.2393,-1.274,-1.2601,0.0,0.0,-1.2494,-1.2163,-1.082,-1.0527,-1.0604,-0.9562,-0.9211,-0.9264,-0.9593,-0.978,-0.991,-1.0167,-1.0334,-1.0492,-1.0573,-1.0646,-1.0756,-1.095,-1.1039,-1.114,0.0,0.0,0.0,0.0,0.0,0.0,0.0,0.0,0.0,0.0,0.0,0.0,0.0,0.0,0.0,0.0,0.0,0.0,0.0,-2.2783,-2.308,-2.3355,-2.4,-2.4857,0.0,0.0,0.0,-2.7742,-2.675,-2.5919,-2.5269,-2.2144,-2.0467,-2.0263,-1.6686,-1.4266,-1.2858,-1.2014,-1.5693,-2.281,-2.3298,-2.8987,-3.7773,-3.6896,-3.7213,-3.8193,-3.7639,-3.76,-3.7671,-3.6719,-3.6749,-3.72,1.6338,0.0,0.0,1.6557,0.0,0.0,1.3982,0.0,0.0,1.1758,1.1913,0.0,1.0031,0.9812,1.0391,1.1905,1.2315,0.0,0.0,0.0,0.0,1.9302,2.0779,2.1025,1.9837,2.0765,0.0,1.5598,0.0,0.0,0.7683,0.4041,0.1377,-0.0467,0.0,-0.6856,0.0,-1.1122,-1.2438,-1.3135,-1.2983,0.0,0.0,-1.2812,-1.2746,-1.2404,-1.1124,-1.0914,-1.1074,-1.0034,-0.9666,-0.9695,-0.982,-0.9987,-1.014,-1.0274,-1.0459,-1.0593,-1.0593,-1.0593,-1.07,-1.1122,-1.1236,-1.1356,-1.181,-1.2017,-1.1944,0.0,0.0,0.0,0.0,0.0,0.0,0.0,0.0,0.0,0.0,0.0,0.0,0.0,0.0,0.0,0.0,-2.369,-2.33,-2.3209,-2.3555,-2.414,0.0,0.0,0.0,-2.8349,-2.7692,-2.7525,-2.7966,-2.4669,-2.3102,-2.3211,-1.961,-1.7372,-1.6385,-1.7156,-2.0724,-2.6319,-2.7758,-3.2793,-3.9896,-3.8545,-3.8541,-3.9368,-3.8968,-3.8805,-3.8805,-3.8805,-3.8569,-3.8218,0.0,0.0,0.0,0.0,0.0,0.0,0.0,1.2307,0.0,1.0767,0.0,1.1249,1.0647,1.0356,1.1106,1.3393,0.0,1.5464,1.8995,1.8876,1.9378,2.0959,2.1101,2.0685,1.9683,1.8976,0.0,0.0,0.0,0.0,0.6226,0.1752,-0.0851,0.0,0.0,0.0,0.0,-1.2825,-1.3477,0.0,-1.3027,-1.2935,-1.2983,-1.2925,-1.2974,-1.2963,-1.228,-1.197,-1.1732,-1.0712,-1.0404,-1.0407,-1.0233,-1.0174,-1.0221,-1.0512,-1.0593,-1.0593,-1.0593,-1.062,-1.0713,-1.0929,-1.1049,-1.1162,-1.1376,-1.1657,-1.1774,-1.1275,-1.233,-1.3467,0.0,0.0,0.0,0.0,0.0,0.0,0.0,0.0,0.0,0.0,0.0,0.0,0.0,0.0,-2.3145,-2.2719,-2.2626,0.0,0.0,0.0,0.0,-2.791,-2.7665,0.0,-3.0332,0.0,-2.5737,-2.6069,-2.2517,-2.0175,-1.9145,-2.1878,-2.4836,-2.804,-3.1313,-3.5572,-4.0097,-3.9142,-3.9283,-4.0096,-4.0096,-4.0096,-4.0096,-4.0096,-3.9662,-3.8978,0.0,0.0,0.0,0.0,0.0,1.3157,1.2071,1.144,1.0864,1.0278,1.0845,1.0987,1.0049,1.1352,1.2628,1.351,1.5016,0.0,0.0,0.0,0.0,2.2161,2.2318,2.1278,1.8953,1.7723,1.5052,0.0,0.0,0.0,0.208,-0.145,0.0,0.0,0.0,0.0,-1.3058,-1.3372,0.0,-1.3013,-1.2935,-1.3111,-1.3359,-1.3042,-1.3311,-1.3841,-1.3378,-1.2845,-1.2192,-1.1008,-1.0854,-1.1056,-1.064,-1.0512,-1.0526,-1.0579,-1.0593,-1.0593,-1.0593,-1.0767,-1.0929,-1.0982,-1.1356,-1.1663,-1.1435,-1.1657,-1.1907,-1.1974,-1.3195,-1.4611,-1.5687,0.0,0.0,0.0,0.0,0.0,0.0,0.0,0.0,0.0,0.0,0.0,0.0,0.0,0.0,0.0,0.0,0.0,0.0,0.0,0.0,0.0,0.0,0.0,0.0,0.0,-2.888,-2.7741,-2.5518,-2.4534,-2.4752,-2.659,-2.883,-3.149,-3.4383,-3.69,-3.8955,-3.9339,-3.974,-4.0096,-4.0096,-4.0096,-4.0096,-4.0096,-4.002,-3.9876,0.0,0.0,0.0,0.0,0.0,0.0,0.0,1.1458,0.0,1.0236,1.1395,1.2069,1.1602,1.282,1.4292,1.5857,1.7605,1.9768,2.2495,2.3013,2.3302,2.3528,2.3322,0.0,1.9239,1.6699,1.369,1.0191,0.0,0.0,0.0,0.0,0.0,0.0,0.0,-1.2582,0.0,0.0,0.0,-1.3525,-1.3525,-1.3874,-1.4348,-1.416,-1.4598,-1.521,-1.4604,-1.4329,-1.406,-1.2662,-1.2055,-1.1785,-1.1374,-1.0926,-1.0593,-1.0593,-1.0593,-1.0593,-1.0593,-1.0693,-1.0841,-1.0955,-1.1202,-1.1506,-1.1745,-1.2064,-1.2473,-1.3074,-1.4061,-1.5526,-1.7839,-2.0223,0.0,0.0,0.0,0.0,0.0,0.0,0.0,0.0,0.0,0.0,0.0,0.0,0.0,0.0,0.0,0.0,0.0,0.0,0.0,0.0,0.0,0.0,0.0,0.0,0.0,-2.9764,-2.7207,-2.6257,-2.6876,-2.8478,-3.0004,-3.1655,-3.4723,-3.6883,-3.8311,-3.9457,-3.9988,-4.0096,-4.0096,-4.0096,-4.0096,-4.0096,-4.0096,-4.0096,0.0,1.6631,0.0,0.0,1.4694,0.0,1.3138,1.2206,1.1296,1.0604,1.21,1.3231,1.3285,1.4489,1.6161,1.8347,2.0095,2.2164,2.4693,2.4692,2.4618,2.4664,2.386,2.1947,1.8888,1.532,1.1981,0.0,0.0,0.0,0.0,0.0,0.0,0.0,0.0,0.0,0.0,0.0,-1.4192,-1.4104,-1.4104,-1.4586,-1.5347,-1.5242,-1.5803,-1.6567,-1.5842,-1.5759,-1.5845,-1.4619,-1.3455,-1.243,-1.1936,-1.1257,-1.0593,-1.0593,-1.0593,-1.0593,-1.0593,-1.0839,-1.1136,-1.1276,-1.1506,-1.1885,-1.2385,-1.2787,-1.3308,-1.4169,-1.5254,-1.7005,-2.0017,-2.14,0.0,0.0,0.0,0.0,0.0,0.0,0.0,0.0,0.0,0.0,0.0,0.0,0.0,0.0,0.0,0.0,0.0,0.0,0.0,0.0,0.0,-3.0461,-3.2529,0.0,-3.1082,0.0,-2.8602,-2.7651,-2.8357,-2.9563,-3.0671,-3.1758,-3.451,-3.6538,-3.797,-3.9286,-3.9833,-3.9876,-4.0045,-4.0096,-4.0096,-4.0096,-4.0096,-4.0096,0.0,0.0,0.0,0.0,0.0,0.0,0.0,1.3827,1.358,1.1475,1.2574,1.3559,1.356,1.6119,1.8328,1.9541,2.1339,2.3432,2.5801,2.5548,2.5258,2.5141,2.3386,2.0489,1.6323,1.2881,0.8999,0.0,0.0,0.0,0.0,0.0,0.0,0.0,0.0,0.0,0.0,-1.4746,-1.4492,-1.4104,-1.4104,-1.4804,-1.5801,-1.5368,-1.6152,-1.7443,-1.7006,-1.6651,-1.6419,-1.6278,-1.4779,-1.2807,-1.2035,-1.1257,-1.0593,-1.0593,-1.0593,-1.0593,-1.0593,-1.1628,-1.2624,-1.2347,-1.3214,-1.4043,-1.3589,-1.3922,-1.4505,-1.507,-1.7362,-1.9927,-2.2062,-2.2526,-2.2839,0.0,0.0,0.0,0.0,0.0,0.0,0.0,0.0,0.0,0.0,0.0,0.0,0.0,0.0,0.0,0.0,0.0,0.0,-2.4539,0.0,-2.9101,-3.0645,-3.1058,0.0,-3.1286,-3.0379,-3.0305,-3.0939,-3.1084,-3.2272,-3.4309,-3.5281,-3.6504,-3.7858,-3.8668,-3.9016,-3.9086,-3.9808,-4.0096,-4.0096,-4.0096,-4.0096,-4.0096,0.0,0.0,0.0,0.0,0.0,0.0,0.0,1.4449,1.4627,1.4388,1.4889,1.5557,1.6274,1.8405,2.0224,2.1385,2.3425,2.5408,2.7234,2.6355,2.572,2.5624,2.2219,1.8604,1.4909,1.0322,0.614,0.0,0.0,0.0,0.0,0.0,0.0,0.0,0.0,-1.4935,-1.5464,-1.5464,-1.5606,-1.586,-1.61,-1.6488,-1.6956,-1.7202,-1.7702,-1.8224,-1.808,-1.7924,-1.7688,-1.6782,-1.5255,-1.3575,-1.2787,-1.1965,-1.1226,-1.0744,-1.0593,-1.0753,-1.1468,-1.2118,-1.2719,-1.3273,-1.3851,-1.4264,-1.4265,-1.4776,-1.5531,-1.6503,-1.8925,-2.1277,-2.2475,-2.2987,-2.3334,0.0,0.0,0.0,0.0,0.0,0.0,0.0,0.0,0.0,0.0,0.0,0.0,0.0,0.0,0.0,0.0,0.0,0.0,-2.4351,0.0,-2.8412,-2.9193,-2.9676,-3.0219,-3.0793,-3.0075,-3.0309,-3.145,-3.186,-3.3244,-3.5273,-3.5562,-3.651,-3.7806,-3.8121,-3.8497,-3.8935,-3.9262,-3.9662,-4.0096,-4.0096,-4.0096,-4.0096,1.3697,0.0,1.3906,0.0,1.363,1.3957,1.4459,1.5125,1.584,1.6658,1.7139,1.7661,1.8364,1.9996,2.156,2.2757,2.4689,2.6409,2.7769,2.6319,2.5201,2.4723,2.0247,0.0,1.2201,0.737,0.3165,-0.0255,-0.4671,0.0,0.0,0.0,0.0,0.0,-1.4961,-1.5413,-1.6407,-1.6407,-1.6688,-1.7205,-1.7499,-1.7743,-1.7977,-1.8489,-1.8821,-1.9006,-1.9006,-1.9006,-1.8797,-1.7567,-1.626,-1.4944,-1.3747,-1.2787,-1.205,-1.1476,-1.1203,-1.1323,-1.2438,-1.2896,-1.3312,-1.427,-1.4681,-1.4909,-1.5054,-1.5738,-1.6793,-1.8463,-2.0355,-2.1969,-2.2815,-2.3312,-2.3551,-2.3377,0.0,0.0,0.0,0.0,0.0,0.0,0.0,-2.5066,-2.4884,0.0,0.0,0.0,0.0,0.0,0.0,0.0,0.0,0.0,0.0,0.0,0.0,-2.867,-2.9551,-3.0507,-3.0118,-3.0601,-3.1853,-3.2586,-3.3684,-3.5062,-3.5269,-3.5903,-3.6847,-3.7288,-3.7905,-3.8608,-3.8827,-3.9394,-4.0096,-4.0096,-4.0096,-4.0096,1.4585,1.409,1.3344,1.3044,1.3674,1.4213,1.4204,1.6118,1.7567,1.7583,1.8862,1.9547,1.9043,2.0612,2.2183,2.3389,2.467,2.5852,2.6942,2.5135,2.3367,0.0,0.0,1.2618,0.7586,0.3863,0.0098,-0.3728,0.0,0.0,-1.0375,0.0,-1.6255,-1.7666,-1.7708,-1.7704,-1.7567,-1.7567,-1.7594,-1.7594,-1.7605,-1.8031,-1.8688,-1.8688,-1.915,-1.9798,-1.9798,-1.9735,-1.9582,-1.8915,-1.8136,-1.7087,-1.4876,-1.3636,-1.2978,-1.2978,-1.2594,-1.2379,-1.3339,-1.4123,-1.4782,-1.5355,-1.6087,-1.658,-1.6162,-1.6864,-1.8347,-2.1094,-2.1673,-2.2086,-2.3363,-2.361,-2.3399,-2.2807,0.0,0.0,0.0,0.0,0.0,0.0,-2.3813,-2.4055,-2.3403,0.0,0.0,0.0,0.0,0.0,0.0,0.0,0.0,-2.3138,-2.4412,0.0,-2.6424,-2.8338,-2.9711,-3.0507,-3.1167,-3.1866,-3.2614,-3.3287,-3.3572,-3.3565,-3.4247,-3.4514,-3.4658,-3.6045,-3.71,-3.7908,-3.8608,-3.9394,-4.0096,-4.0096,-4.0096,-4.0096,1.4078,1.3702,1.3369,1.4162,1.4243,1.4728,1.6288,1.7113,1.7961,1.8953,1.9501,2.0054,2.0756,2.1318,2.2287,0.0,2.4335,2.5198,0.0,2.3373,2.0509,1.8794,1.2981,0.7522,0.2681,-0.1146,-0.4492,-0.74,0.0,0.0,0.0,-1.7328,-1.8066,-1.8214,-1.7849,-1.7924,-1.8355,-1.8355,-1.8635,-1.9097,-1.9097,-1.8939,-1.8741,-1.9254,-1.9281,-1.9123,-1.9605,-2.0093,-2.0345,-1.962,-1.9207,-1.8687,-1.6988,-1.5245,-1.3748,-1.3484,-1.3289,-1.3476,-1.492,-1.5475,-1.5773,-1.62,-1.6497,-1.6502,-1.5791,-1.6662,-1.8254,-2.0597,-2.1093,-2.1333,-2.2147,-2.2667,-2.2924,-2.2733,-2.2786,0.0,0.0,0.0,0.0,0.0,-2.3796,-2.4213,0.0,-2.463,0.0,0.0,0.0,0.0,0.0,0.0,0.0,0.0,-2.5839,0.0,-2.7142,-2.857,-2.9711,-3.0507,-3.0731,-3.1174,-3.1853,-3.2076,-3.2414,-3.2866,-3.3532,-3.409,-3.4563,-3.5463,-3.629,-3.7054,-3.7847,-3.8608,-3.9342,-3.9901,-4.0096,-4.0096,1.3914,1.4026,1.4135,1.4942,1.4865,1.5119,1.6574,1.7235,1.7934,1.8847,1.967,2.0546,2.1578,2.1655,0.0,2.385,2.4344,2.4846,2.5576,2.139,1.7582,1.4765,0.8432,0.2782,-0.194,0.0,0.0,-1.0199,-1.3414,-1.6314,-1.8909,-1.8825,-1.8993,-1.9289,-1.8589,-1.8596,-1.9123,-1.9123,-1.9371,-1.9798,-1.9798,-1.9527,-1.9176,-1.9605,-1.9501,-1.9176,-1.9631,-2.0383,-2.1051,-2.0591,-2.0416,-2.0166,-1.8684,-1.6933,-1.5284,-1.4505,-1.4148,-1.4302,-1.5716,-1.5736,-1.5459,-1.5901,-1.6027,-1.6054,-1.6189,-1.713,-1.8515,-2.0405,-2.099,-2.1323,-2.1966,-2.2418,-2.2715,-2.2706,-2.283,-2.2887,-2.2753,0.0,0.0,0.0,0.0,0.0,0.0,-2.4368,0.0,0.0,0.0,0.0,0.0,0.0,0.0,-2.5426,-2.7071,0.0,-2.7847,-2.9101,-3.013,-3.0896,-3.1135,-3.1331,-3.1511,-3.1511,-3.1735,-3.2168,-3.3095,-3.3724,-3.4219,-3.5115,-3.5911,-3.663,-3.7144,-3.7819,-3.8553,-3.9049,-3.9226,-3.9226,1.4055,1.4815,0.0,0.0,1.543,0.0,1.5468,1.6698,1.7633,1.766,1.9504,2.1028,2.1625,2.1744,2.2235,2.3393,0.0,0.0,0.0,1.9157,1.4625,1.0037,0.3867,-0.1577,-0.6168,-0.8254,-1.0296,-1.2364,-1.5117,-1.7544,-1.9555,-1.8709,-1.9121,-2.0517,-1.9641,-1.9396,-1.9643,-1.9643,-1.9643,-1.9643,-1.9643,-1.9643,-1.9643,-1.9643,-1.9669,-1.9721,-1.9721,-2.0582,-2.1697,-2.1661,-2.167,-2.1431,-1.9984,-1.8624,-1.7313,-1.5874,-1.5125,-1.4972,-1.5819,-1.5147,-1.4326,-1.4774,-1.4976,-1.5468,-1.7194,-1.8109,-1.9013,-2.0499,-2.126,-2.1831,-2.2503,-2.2658,-2.2693,-2.2707,-2.3152,-2.3104,-2.1963,0.0,0.0,0.0,0.0,0.0,0.0,-2.356,-2.4547,0.0,0.0,0.0,0.0,0.0,-2.7589,-2.7388,-2.8125,-2.8554,-2.861,-2.9947,-3.0943,-3.1585,-3.2243,-3.2213,-3.157,-3.1615,-3.1645,-3.1705,-3.3021,-3.3559,-3.3664,-3.4981,-3.5879,-3.6523,-3.6584,-3.707,-3.7719,-3.7793,-3.7793,-3.7793,0.0,0.0,1.479,1.575,1.5635,1.5584,1.6151,1.7006,1.7786,1.8367,1.9838,2.1028,2.1625,2.2146,2.2729,2.337,2.3213,2.2955,2.2679,1.6633,1.1008,0.6485,0.0415,-0.5047,-0.9771,-1.0764,-1.2846,-1.6118,-1.6808,-1.7919,-1.9355,-1.8747,-1.8652,-1.9008,-1.8315,-1.8064,-1.8112,-1.8112,-1.8112,-1.8112,-1.8112,-1.8112,-1.8112,-1.8112,-1.8474,-1.8953,-1.8953,-2.0143,-2.1754,-2.2158,-2.2361,-2.2266,-2.1246,-1.9724,-1.8024,-1.6412,-1.5856,-1.5756,-1.5685,-1.5419,-1.5135,-1.4939,-1.5512,-1.6378,-1.7379,-1.8155,-1.9072,-2.0512,-2.0922,-2.1207,-2.1812,-2.2358,-2.2706,-2.2693,-2.3152,-2.3588,-2.3773,-2.3513,0.0,0.0,-2.3276,-2.3275,-2.3682,-2.5505,-2.7107,0.0,0.0,0.0,0.0,-3.1558,-3.035,-2.8211,-2.926,-3.0163,-3.0745,-3.1617,-3.2123,-3.2258,-3.2946,-3.2916,-3.2273,-3.2796,-3.3036,-3.308,-3.3888,-3.4279,-3.4339,-3.516,-3.5619,-3.5814,-3.6384,-3.6722,-3.6964,-3.7573,-3.7793,-3.7793,1.2572,1.3281,1.3972,1.4894,1.5071,1.5329,1.592,1.6912,1.7857,1.8549,2.0155,2.1438,2.2077,2.2725,2.3337,2.3856,2.3124,2.1807,1.9911,1.4147,0.8297,0.2721,-0.2511,-0.7141,-1.115,-1.2189,-1.4183,-1.732,-1.7435,-1.7858,-1.8526,-1.8227,-1.7884,-1.7529,-1.7568,-1.739,-1.7092,-1.7446,-1.7605,-1.7605,-1.7605,-1.7605,-1.7605,-1.7605,-1.7852,-1.8205,-1.8205,-1.9311,-2.0897,-2.1727,-2.2309,-2.2538,-2.1685,-2.0308,-1.8696,-1.7082,-1.6218,-1.5769,-1.5775,-1.5512,-1.521,-1.5174,-1.5734,-1.6552,-1.7688,-1.8561,-1.9368,-2.0173,-2.0602,-2.0901,-2.1226,-2.1799,-2.2342,-2.2657,-2.3186,-2.3685,-2.4086,-2.3683,0.0,-2.3295,-2.3486,-2.3798,-2.4123,-2.6427,-2.8222,-2.8931,0.0,0.0,-3.2633,-3.2284,-3.1559,-3.0372,-3.0645,-3.1205,-3.1944,-3.2931,-3.326,-3.2976,-3.3634,-3.3604,-3.2976,-3.3335,-3.3499,-3.3529,-3.4219,-3.4503,-3.4563,-3.522,-3.5504,-3.5537,-3.5943,-3.6086,-3.6149,-3.66,-3.6753,-3.6753,1.0803,1.187,1.2983,1.3677,1.4261,1.4865,1.5458,1.6715,1.7872,1.8649,2.0478,2.1946,2.2626,2.3061,2.3447,2.3833,2.2468,2.0116,1.6553,1.1592,0.5832,-0.0841,-0.4935,-0.8459,-1.1451,-1.2841,-1.4497,-1.6566,-1.6782,-1.6912,-1.6987,-1.6987,-1.663,-1.606,-1.6722,-1.6623,-1.5987,-1.6684,-1.7043,-1.7194,-1.7118,-1.7239,-1.7455,-1.7417,-1.7484,-1.7634,-1.7634,-1.8526,-1.9937,-2.1207,-2.2081,-2.2514,-2.1909,-2.0691,-1.9235,-1.7853,-1.6472,-1.5478,-1.5817,-1.5435,-1.5014,-1.546,-1.5963,-1.6764,-1.8282,-1.9263,-1.9927,-2.0171,-2.0607,-2.096,-2.1057,-2.1516,-2.206,-2.2737,-2.3282,-2.3718,-2.4078,0.0,-2.3417,-2.2985,-2.3927,-2.4625,-2.4663,-2.728,-2.8944,-2.8876,-3.0953,-3.2121,0.0,-3.2066,-3.2353,-3.2853,-3.2078,-3.2019,-3.2796,-3.4023,-3.4292,-3.3649,-3.4339,-3.4277,-3.3649,-3.3754,-3.3799,-3.3829,-3.4382,-3.4668,-3.4713,-3.5265,-3.5504,-3.5504,-3.5504,-3.5504,-3.5504,-3.5504,-3.5504,-3.5504,1.0409,1.0933,1.1773,1.3498,1.3892,1.4506,1.6079,1.7052,1.8074,1.9363,2.0788,2.1946,2.2626,2.2243,2.163,2.094,1.7662,1.5342,1.4626,0.8579,0.2444,-0.337,-0.6545,-0.9365,-1.2007,-1.2735,-1.3266,-1.3662,-1.3674,-1.3835,-1.4046,-1.4046,-1.4133,-1.4281,-1.441,-1.4262,-1.3868,-1.3993,-1.4528,-1.5275,-1.4898,-1.5581,-1.6816,-1.6457,-1.6919,-1.7754,-1.7754,-1.8685,-2.0157,-2.2099,-2.2539,-2.2394,-2.2994,-2.1469,-1.9386,-1.8809,-1.7101,-1.5361,-1.513,-1.4994,-1.5087,-1.5832,-1.6974,-1.8339,-1.9825,-2.0398,-2.0926,-2.1934,-2.1849,-2.1714,-2.2228,-2.2433,-2.2752,-2.3447,-2.3577,-2.4201,-2.5899,0.0,-2.4921,-2.6492,-2.6315,-2.6522,-2.7612,-2.9748,-3.1062,-3.1113,-3.3505,-3.4729,-3.4159,-3.4702,-3.4797,-3.4231,-3.3001,-3.2946,-3.4189,-3.4951,-3.4996,-3.4354,-3.5011,-3.4981,-3.4369,-3.4921,-3.519,-3.5205,-3.5295,-3.534,-3.5355,-3.5459,-3.5504,-3.5504,-3.5504,-3.5504,-3.5504,-3.5504,-3.5504,-3.5504,0.9501,0.9985,1.0767,1.2307,1.3048,1.4044,1.5894,1.6999,1.8101,1.953,2.0581,2.1476,2.21,2.1291,1.9837,1.774,1.3455,0.9602,0.6634,0.4075,0.0148,-0.5616,-0.7491,-0.9696,-1.2534,-1.2558,-1.2917,-1.3586,-1.3326,-1.3286,-1.3387,-1.3582,-1.3508,-1.3269,-1.3693,-1.3572,-1.3036,-1.3485,-1.3931,-1.4333,-1.413,-1.4499,-1.5159,-1.5005,-1.5246,-1.5711,-1.5711,-1.6717,-1.827,-2.0041,-2.1346,-2.2292,-2.244,-2.136,-1.9874,-1.9124,-1.7579,-1.6162,-1.6472,-1.6552,-1.6868,-1.8186,-1.8925,-1.969,-2.1051,-2.159,-2.1978,-2.2531,-2.2698,-2.2588,-2.2187,-2.2428,-2.2795,-2.3106,-2.365,0.0,0.0,-2.6233,-2.6639,-2.8312,-2.8257,-2.8442,-2.945,-3.0765,-3.1689,-3.2051,-3.3564,-3.4498,-3.4545,-3.4948,-3.5116,-3.5048,-3.4089,-3.3858,-3.4503,-3.516,-3.534,-3.504,-3.5355,-3.534,-3.504,-3.5355,-3.5504,-3.5504,-3.5504,-3.5504,-3.5504,-3.5504,-3.5504,-3.5504,-3.5504,-3.5504,-3.5504,-3.5504,-3.5504,-3.5504,0.8804,0.9211,1.0019,1.1389,1.2302,1.357,1.5708,1.6923,1.8035,1.9273,2.0092,2.0683,2.0993,1.9285,1.6901,1.3829,0.8608,0.342,-0.1544,-0.1407,-0.311,-0.7444,-0.836,-0.9933,-1.2504,-1.2215,-1.2497,-1.3453,-1.3355,-1.3324,-1.338,-1.3652,-1.3458,-1.2937,-1.3366,-1.3157,-1.2553,-1.3183,-1.3545,-1.3739,-1.3667,-1.3856,-1.4195,-1.408,-1.4096,-1.417,-1.391,-1.4829,-1.6362,-1.7832,-1.9791,-2.1606,-2.1548,-2.0949,-2.006,-1.9163,-1.7925,-1.7046,-1.7781,-1.8223,-1.8808,-2.0358,-2.0544,-2.0779,-2.2287,-2.2894,-2.3146,-2.3283,-2.3696,-2.3668,-2.2484,-2.2832,-2.3385,-2.351,0.0,0.0,0.0,-2.7653,-2.8388,-2.9955,-3.0176,-3.0426,-3.0925,-3.1782,-3.2423,-3.276,-3.35,-3.4187,-3.4726,-3.5,-3.5323,-3.5752,-3.5108,-3.4711,-3.4711,-3.5235,-3.5504,-3.5504,-3.5504,-3.5504,-3.5504,-3.5504,-3.5504,-3.5504,-3.5504,-3.5504,-3.5504,-3.5504,-3.5504,-3.5504,-3.5504,-3.5504,-3.5504,-3.5504,-3.5504,-3.5504,0.8804,0.8831,0.9534,1.168,1.2133,1.3127,1.6012,1.7124,1.7872,1.8596,1.9312,1.9578,1.9078,1.5336,1.1654,0.8628,0.224,-0.3115,-0.6543,-0.8023,-0.8755,-0.8709,-0.9403,-1.0331,-1.1491,-1.1471,-1.1499,-1.1594,-1.2516,-1.3063,-1.3296,-1.3319,-1.3457,-1.3606,-1.2779,-1.2265,-1.1979,-1.2007,-1.2565,-1.3304,-1.2935,-1.3718,-1.5047,-1.4606,-1.4722,-1.4966,-1.3973,-1.4344,-1.5521,-1.7064,-1.8448,-1.9738,-2.0948,-2.0456,-1.9408,-1.901,-1.8155,-1.7431,-1.7864,-1.8879,-1.9991,-2.0906,-2.1051,-2.1518,-2.3729,-2.4303,-2.451,-2.5009,-2.5181,-2.4983,-2.4097,-2.4626,-2.5375,-2.5951,0.0,0.0,-2.9925,-2.9685,-3.0092,-3.2126,-3.2364,-3.238,-3.2431,-3.3608,-3.4153,-3.3647,-3.4697,-3.5396,-3.5503,-3.612,-3.6476,-3.6523,-3.5817,-3.5429,-3.5429,-3.5489,-3.5504,-3.5504,-3.5504,-3.5504,-3.5504,-3.5504,-3.5504,-3.5504,-3.5504,-3.5504,-3.5504,-3.5504,-3.5504,-3.5504,-3.5504,-3.5504,-3.5504,-3.5504,-3.5504,-3.5504,0.8129,0.8129,0.8665,1.0375,1.0895,1.1839,1.3995,1.481,1.5495,1.637,1.6273,1.556,1.4107,1.0448,0.6207,0.1556,-0.363,-0.827,-1.2012,-1.2293,-1.1584,-0.9863,-1.0827,-1.1478,-1.1703,-1.1697,-1.2012,-1.2596,-1.2977,-1.3512,-1.4146,-1.3737,-1.359,-1.3673,-1.2732,-1.2238,-1.2101,-1.1462,-1.1412,-1.1691,-1.0894,-1.0967,-1.1526,-1.1346,-1.1371,-1.1501,-1.1082,-1.1581,-1.2789,-1.5117,-1.7228,-1.9193,-2.0653,-2.0767,-2.0059,-1.8458,-1.825,-1.8623,-1.8762,-1.8945,-1.9356,-2.0546,-2.0542,-2.0954,-2.3612,-2.4159,-2.4485,-2.5727,-2.6587,-2.6792,-2.5665,-2.6109,-2.6708,-2.6941,0.0,-2.9017,-3.0255,-3.1297,-3.237,-3.3626,-3.3806,-3.3844,-3.3829,-3.3551,-3.3588,-3.4149,-3.4254,-3.4622,-3.5502,-3.5775,-3.6149,-3.6584,-3.5894,-3.5733,-3.6165,-3.5733,-3.5733,-3.6165,-3.5733,-3.5504,-3.5504,-3.5504,-3.5504,-3.5504,-3.5504,-3.5504,-3.5504,-3.5504,-3.5504,-3.5504,-3.5504,-3.5504,-3.5504,-3.5504,-3.5504,-3.5504,0.7343,0.753,0.8059,0.9207,0.985,1.0672,1.1983,1.2405,1.278,1.3215,1.2441,1.0991,0.8767,0.4925,0.05,-0.4553,-0.8961,-1.3084,-1.6866,-1.6585,-1.4606,-1.0938,-1.1468,-1.1905,-1.2011,-1.204,-1.2356,-1.2991,-1.3275,-1.3753,-1.4375,-1.392,-1.3709,-1.3673,-1.2732,-1.2305,-1.2224,-1.1242,-1.0783,-1.0708,-0.9707,-0.9296,-0.9296,-0.9296,-0.9296,-0.9268,-0.899,-0.9525,-1.0723,-1.3252,-1.5834,-1.8283,-2.0051,-2.0589,-2.0209,-1.8318,-1.8309,-1.8844,-1.8523,-1.8224,-1.8381,-2.0169,-2.0522,-2.1103,-2.3554,-2.4357,-2.5044,-2.666,-2.7765,-2.8246,-2.7617,-2.8101,-2.8661,-2.8911,-2.9869,-3.0842,-3.1579,-3.2879,-3.4032,-3.4759,-3.5107,-3.5124,-3.4636,-3.4176,-3.4157,-3.4788,-3.4379,-3.4532,-3.5459,-3.5504,-3.5718,-3.6259,-3.575,-3.5863,-3.6569,-3.6086,-3.6117,-3.6615,-3.6352,-3.5973,-3.5504,-3.5718,-3.5733,-3.5504,-3.5504,-3.5504,-3.5504,-3.5504,-3.5504,-3.5504,-3.5504,-3.5504,-3.5504,-3.5504,-3.5504,-3.5504,0.6588,0.7182,0.7843,0.8398,0.9073,0.9757,1.029,1.0236,0.9881,0.9164,0.8006,0.6189,0.3359,-0.1213,-0.5548,-0.9326,-1.3683,-1.7633,-2.0891,-2.1192,-1.8364,-1.1925,-1.1114,-1.1273,-1.2268,-1.2305,-1.2305,-1.2305,-1.3244,-1.3709,-1.3709,-1.3709,-1.3709,-1.3673,-1.2732,-1.2305,-1.2231,-1.1242,-1.0789,-1.0714,-0.9707,-0.9296,-0.9263,-0.9263,-0.9263,-0.9175,-0.8295,-0.8633,-0.979,-1.1758,-1.4182,-1.6797,-1.903,-1.9736,-1.9581,-1.8818,-1.8342,-1.7794,-1.6853,-1.6602,-1.7273,-1.9922,-2.1227,-2.2274,-2.3774,-2.5145,-2.6512,-2.8003,-2.8702,-2.9247,-2.9989,-3.0717,-3.1464,-3.2192,-3.2933,-3.366,-3.4387,-3.4489,-3.4776,-3.5498,-3.6299,-3.6209,-3.477,-3.5874,-3.6394,-3.5682,-3.5547,-3.5504,-3.5504,-3.5504,-3.5504,-3.5504,-3.5504,-3.5863,-3.6569,-3.6615,-3.6615,-3.66,-3.7427,-3.7011,-3.5537,-3.629,-3.6196,-3.5504,-3.5504,-3.5504,-3.5504,-3.5504,-3.5504,-3.5504,-3.5504,-3.5504,-3.5504,-3.5504,-3.5504,-3.5504,0.614,0.6528,0.6827,0.6449,0.6573,0.6667,0.6498,0.6426,0.6166,0.5545,0.4089,0.1787,-0.1577,-0.5731,-0.9906,-1.394,-1.7301,-2.0216,-2.2556,-2.2479,-2.071,-1.7105,-1.4881,-1.3273,-1.2335,-1.2305,-1.2629,-1.3273,-1.3564,-1.4063,-1.4736,-1.4027,-1.3709,-1.3673,-1.2732,-1.2418,-1.2561,-1.1322,-1.0511,-0.9934,-0.8708,-0.7821,-0.7215,-0.7215,-0.7247,-0.7312,-0.7048,-0.8032,-0.9826,-1.2379,-1.5361,-1.8555,-2.1777,-2.2432,-2.1746,-2.0286,-1.9425,-1.8782,-1.8166,-1.8252,-1.8368,-1.791,-1.8845,-2.0563,-2.3216,-2.4932,-2.667,-2.9194,-3.0159,-3.0787,-3.1515,-3.2239,-3.2814,-3.3034,-3.3694,-3.4252,-3.4455,-3.4945,-3.5346,-3.5566,-3.5408,-3.549,-3.6087,-3.5616,-3.5814,-3.7041,-3.6603,-3.607,-3.5537,-3.5504,-3.5504,-3.5504,-3.5504,-3.5863,-3.6569,-3.6615,-3.6873,-3.744,-3.769,-3.7249,-3.6275,-3.6492,-3.6196,-3.5504,-3.5504,-3.5504,-3.5504,-3.5504,-3.5504,-3.5504,-3.5504,-3.5504,-3.5504,-3.5504,-3.5504,-3.5504,0.5472,0.562,0.5637,0.494,0.4472,0.4022,0.3487,0.2832,0.2074,0.1225,-0.0767,-0.3434,-0.682,-1.0791,-1.4499,-1.7745,-2.1038,-2.3515,-2.4922,-2.4984,-2.3863,-2.1407,-1.8839,-1.6023,-1.2908,-1.2482,-1.2592,-1.3135,-1.3135,-1.3448,-1.4055,-1.3411,-1.3135,-1.3135,-1.2678,-1.2616,-1.2739,-1.1629,-1.0589,-0.9615,-0.8437,-0.7312,-0.6306,-0.6361,-0.6402,-0.6489,-0.7149,-0.8449,-1.0418,-1.3726,-1.7489,-2.1282,-2.3827,-2.4089,-2.3158,-2.1822,-2.0638,-1.9595,-1.9009,-1.899,-1.9053,-1.8535,-1.9682,-2.1596,-2.4075,-2.5977,-2.7881,-3.0255,-3.1215,-3.1955,-3.2987,-3.3525,-3.3931,-3.4235,-3.4641,-3.4945,-3.4945,-3.5588,-3.6079,-3.6079,-3.6226,-3.6577,-3.7142,-3.6671,-3.6756,-3.7731,-3.704,-3.6415,-3.5943,-3.5651,-3.5504,-3.5504,-3.5504,-3.5701,-3.6165,-3.6768,-3.7338,-3.7822,-3.8418,-3.8133,-3.7084,-3.7395,-3.6934,-3.5958,-3.5958,-3.5782,-3.5504,-3.5504,-3.5504,-3.5504,-3.5504,-3.5504,-3.5504,-3.5504,-3.5504,-3.5504,0.4788,0.472,0.4501,0.3792,0.2741,0.1764,0.116,-0.0433,-0.1978,-0.3189,-0.5831,-0.873,-1.167,-1.5526,-1.8669,-2.0573,-2.433,-2.689,-2.7534,-2.8109,-2.7314,-2.4837,-2.2645,-1.9211,-1.4275,-1.3047,-1.2372,-1.2305,-1.2305,-1.2305,-1.2305,-1.2305,-1.2305,-1.2311,-1.2623,-1.2777,-1.2761,-1.1988,-1.088,-0.965,-0.8593,-0.7438,-0.6334,-0.6463,-0.6479,-0.6663,-0.8234,-0.9767,-1.174,-1.5958,-2.0444,-2.4463,-2.5329,-2.5009,-2.4165,-2.3419,-2.2037,-2.0549,-1.9781,-1.9555,-1.9894,-2.1396,-2.3145,-2.4805,-2.6057,-2.7986,-2.9905,-3.1364,-3.2093,-3.2936,-3.4336,-3.4658,-3.4928,-3.5583,-3.5701,-3.5718,-3.5802,-3.6383,-3.6829,-3.6897,-3.801,-3.8572,-3.7959,-3.8576,-3.869,-3.795,-3.7233,-3.6752,-3.6615,-3.5975,-3.5554,-3.5504,-3.5504,-3.5504,-3.5504,-3.6951,-3.7719,-3.7822,-3.9358,-3.9332,-3.7921,-3.8608,-3.8044,-3.6615,-3.6615,-3.6165,-3.5504,-3.5504,-3.5504,-3.5504,-3.5504,-3.5504,-3.5504,-3.5504,-3.5504,-3.5504,0.5133,0.4856,0.4286,0.3001,0.1408,0.0097,-0.0633,-0.2265,-0.3859,-0.5064,-0.7582,-1.0124,-1.2369,-1.5757,-1.8777,-2.0892,-2.4459,-2.706,-2.8127,-2.8895,-2.8485,-2.6632,-2.4852,-2.2043,-1.7952,-1.4923,-1.3025,-1.2305,-1.2305,-1.2305,-1.2305,-1.2305,-1.2305,-1.2305,-1.2371,-1.2665,-1.3001,-1.1617,-1.0656,-0.9978,-0.8464,-0.7321,-0.647,-0.6501,-0.7046,-0.7939,-0.9032,-1.1477,-1.5057,-2.0638,-2.4045,-2.6106,-2.689,-2.6599,-2.5808,-2.4983,-2.4068,-2.317,-2.2652,-2.3072,-2.4131,-2.5935,-2.7668,-2.8812,-2.8464,-3.0147,-3.216,-3.3549,-3.3934,-3.4303,-3.5194,-3.5876,-3.6355,-3.6524,-3.6535,-3.6738,-3.733,-3.7043,-3.7015,-3.7584,-3.7443,-3.7653,-3.8639,-3.9413,-3.9516,-3.8718,-3.8509,-3.7873,-3.6661,-3.6446,-3.6086,-3.5537,-3.5504,-3.5504,-3.5504,-3.6399,-3.7189,-3.7822,-3.9358,-3.9584,-3.8663,-3.8827,-3.8044,-3.6615,-3.6615,-3.6165,-3.5504,-3.5504,-3.5504,-3.5504,-3.5504,-3.5504,-3.5504,-3.5504,-3.5504,-3.5504,0.4658,0.4091,0.3238,0.1599,-0.0196,-0.1807,-0.3029,-0.4891,-0.6722,-0.8356,-1.068,-1.2838,-1.4603,-1.7747,-2.0813,-2.3486,-2.636,-2.828,-2.8885,-3.0217,-3.0288,-2.8741,-2.7159,-2.4697,-2.1265,-1.7925,-1.5153,-1.2989,-1.2989,-1.2732,-1.2305,-1.2305,-1.2305,-1.2311,-1.2489,-1.273,-1.2979,-1.2254,-1.1453,-1.0615,-0.9782,-0.8858,-0.8009,-0.797,-0.8608,-0.9761,-1.1276,-1.467,-1.9088,-2.3301,-2.5508,-2.6642,-2.7382,-2.7331,-2.6927,-2.639,-2.5679,-2.5067,-2.5189,-2.5823,-2.6873,-2.8559,-3.0463,-3.1651,-3.0849,-3.2101,-3.3634,-3.4361,-3.4776,-3.5267,-3.6028,-3.6502,-3.6931,-3.7263,-3.7313,-3.7449,-3.7855,-3.7872,-3.7973,-3.8379,-3.8396,-3.853,-3.8914,-3.9298,-3.9342,-3.8935,-3.8908,-3.8398,-3.7233,-3.6813,-3.6244,-3.5537,-3.5504,-3.5504,-3.5504,-3.6228,-3.6994,-3.7806,-3.8951,-3.9516,-3.9463,-3.9086,-3.8258,-3.716,-3.6768,-3.6165,-3.5504,-3.5504,-3.5504,-3.5504,-3.5504,-3.5504,-3.5504,-3.5504,-3.5504,-3.5504,0.3794,0.2863,0.1771,0.0267,-0.1735,-0.3668,-0.5249,-0.7456,-0.9677,-1.1748,-1.3919,-1.5791,-1.7226,-2.0093,-2.3031,-2.5849,-2.813,-2.9435,-2.9504,-3.1397,-3.1877,-3.0464,-2.9077,-2.694,-2.3927,-2.1128,-1.7862,-1.4148,-1.4019,-1.3564,-1.2806,-1.2806,-1.2806,-1.282,-1.3077,-1.3254,-1.3279,-1.3256,-1.2564,-1.1447,-1.1207,-1.0634,-0.9888,-0.98,-1.0611,-1.2043,-1.3919,-1.7941,-2.2623,-2.4691,-2.5935,-2.6746,-2.7401,-2.7675,-2.7745,-2.763,-2.7239,-2.6992,-2.7589,-2.8295,-2.9175,-3.0533,-3.2335,-3.3636,-3.3133,-3.389,-3.4692,-3.4692,-3.5284,-3.6011,-3.6694,-3.7015,-3.7388,-3.799,-3.8091,-3.8142,-3.8261,-3.8684,-3.9039,-3.9157,-3.9623,-3.9636,-3.8962,-3.8908,-3.8908,-3.8908,-3.9032,-3.8718,-3.7851,-3.7174,-3.6399,-3.5537,-3.5504,-3.5504,-3.5504,-3.6117,-3.6798,-3.7602,-3.8201,-3.8989,-3.9859,-3.9193,-3.8442,-3.7573,-3.6873,-3.6165,-3.5504,-3.5504,-3.5504,-3.5504,-3.5504,-3.5504,-3.5504,-3.5504,-3.5504,-3.5504,0.2863,0.1499,0.03,0.0033,-0.2727,-0.5278,-0.6185,-0.8848,-1.146,-1.351,-1.5664,-1.753,-1.8776,-2.1249,-2.3259,-2.4321,-2.7016,-2.8927,-2.9546,-3.1483,-3.1956,-3.0548,-2.9726,-2.7926,-2.4945,-2.3296,-2.0355,-1.6035,-1.5342,-1.4914,-1.4807,-1.4807,-1.4807,-1.4807,-1.4856,-1.5005,-1.516,-1.4012,-1.3158,-1.2386,-1.1215,-1.0767,-1.0733,-1.0733,-1.2346,-1.4786,-1.588,-1.9396,-2.3752,-2.4986,-2.6202,-2.7241,-2.752,-2.7944,-2.8367,-2.8352,-2.9092,-2.9927,-3.0036,-3.0967,-3.2102,-3.2942,-3.3762,-3.4514,-3.5071,-3.5318,-3.5447,-3.5447,-3.6079,-3.6677,-3.6778,-3.7821,-3.8734,-3.8836,-3.8853,-3.9056,-3.9723,-3.9326,-3.9225,-3.9893,-3.9439,-3.9032,-3.8908,-3.8908,-3.8908,-3.8908,-3.9542,-3.9305,-3.7879,-3.7706,-3.6965,-3.5569,-3.5504,-3.5504,-3.5504,-3.5587,-3.6038,-3.6752,-3.6873,-3.7671,-3.9059,-3.8935,-3.8101,-3.6768,-3.6646,-3.6165,-3.5504,-3.5504,-3.5504,-3.5504,-3.5504,-3.5504,-3.5504,-3.5504,-3.5504,-3.5504,0.1302,0.0167,-0.1033,-0.2068,-0.3929,-0.5745,-0.7131,-1.0093,-1.2843,-1.4684,-1.7009,-1.8842,-1.9879,-2.1362,-2.2758,-2.3979,-2.7056,-2.9232,-3.0097,-3.2385,-3.3278,-3.2278,-3.0865,-2.9297,-2.7595,-2.4978,-2.2455,-2.0101,-1.8318,-1.7145,-1.6613,-1.6613,-1.6613,-1.6613,-1.6613,-1.6375,-1.5989,-1.5431,-1.4764,-1.4041,-1.344,-1.3645,-1.4236,-1.4047,-1.5516,-1.7922,-1.9991,-2.2186,-2.4314,-2.5994,-2.6928,-2.7428,-2.793,-2.8807,-2.9681,-3.0028,-3.0823,-3.1687,-3.204,-3.2851,-3.3701,-3.4019,-3.46,-3.5194,-3.5515,-3.596,-3.6265,-3.6265,-3.6874,-3.7533,-3.7963,-3.8548,-3.9123,-3.9554,-3.9622,-3.974,-4.0062,-3.9825,-3.974,-4.0062,-3.9022,-3.829,-3.829,-3.7889,-3.7787,-3.8246,-3.9005,-3.8951,-3.7863,-3.7793,-3.7086,-3.5569,-3.5504,-3.5504,-3.5504,-3.5504,-3.6116,-3.7263,-3.6813,-3.7188,-3.8274,-3.7831,-3.7247,-3.6584,-3.6165,-3.5814,-3.5504,-3.5504,-3.5504,-3.5504,-3.5504,-3.5504,-3.5504,-3.5504,-3.5504,-3.5504]},{"header":{"parameterUnit":"m.s-1","parameterCategory":1,"la1":30.6,"la2":28.766,"lo1":-90.7593,"lo2":-88.6598,"dy":0.0162,"dx":0.0183,"nx":116,"ny":114,"refTime":"2023-04-07T00:00:00:Z","depth":0,"parameterNumber":3,"parameterNumberName":"V-component_of_WINDS"},"data":[0.0,0.0,0.0,0.0,0.0,0.0,0.0,0.0,0.0,0.0,0.0,0.0,0.0,0.0,0.0,0.0,0.0,0.0,0.0,0.0,0.0,0.0,0.0,0.0,0.0,0.0,0.0,0.0,0.0,0.0,0.0,0.0,0.0,0.0,0.0,0.0,0.0,0.0,0.0,0.0,0.0,0.0,0.0,0.0,0.0,0.0,0.0,0.0,0.0,0.0,0.0,0.0,0.0,0.0,0.0,0.0,0.0,0.0,0.0,0.0,0.0,0.0,0.0,0.0,0.0,0.0,0.0,0.0,0.0,0.0,0.0,0.0,0.0,0.0,0.0,0.0,0.0,0.0,0.0,0.0,0.0,0.0,0.0,0.0,0.0,0.0,0.0,0.0,0.0,0.0,0.0,0.0,0.0,0.0,0.0,0.0,0.0,0.0,0.0,0.0,0.0,0.0,0.0,0.0,0.0,0.0,0.0,0.0,0.0,0.0,0.0,0.0,0.0,0.0,0.0,0.0,0.0,0.0,0.0,0.0,0.0,0.0,0.0,0.0,0.0,0.0,0.0,0.0,0.0,0.0,0.0,0.0,0.0,0.0,0.0,0.0,0.0,0.0,0.0,0.0,0.0,0.0,0.0,0.0,0.0,0.0,0.0,0.0,0.0,0.0,0.0,0.0,0.0,0.0,0.0,0.0,0.0,0.0,0.0,0.0,0.0,0.0,0.0,0.0,0.0,0.0,0.0,0.0,0.0,0.0,0.0,0.0,0.0,0.0,0.0,0.0,0.0,0.0,0.0,0.0,0.0,0.0,0.0,0.0,0.0,0.0,0.0,0.0,0.0,0.0,0.0,0.0,0.0,0.0,0.0,0.0,0.0,0.0,0.0,0.0,0.0,0.0,0.0,0.0,0.0,0.0,0.0,0.0,0.0,0.0,0.0,0.0,0.0,0.0,0.0,0.0,0.0,0.0,0.0,0.0,0.0,0.0,0.0,0.0,0.0,0.0,0.0,0.0,0.0,0.0,0.0,0.0,0.0,0.0,0.0,0.0,0.0,0.0,0.0,0.0,0.0,0.0,0.0,0.0,0.0,0.0,0.0,0.0,0.0,0.0,0.0,0.0,0.0,0.0,0.0,0.0,0.0,0.0,0.0,0.0,0.0,0.0,0.0,0.0,0.0,0.0,0.0,0.0,0.0,0.0,0.0,0.0,0.0,0.0,0.0,0.0,0.0,0.0,0.0,0.0,0.0,0.0,0.0,0.0,0.0,0.0,0.0,0.0,0.0,0.0,0.0,0.0,0.0,0.0,0.0,0.0,0.0,0.0,0.0,0.0,0.0,0.0,0.0,0.0,0.0,0.0,0.0,0.0,0.0,0.0,0.0,0.0,0.0,0.0,0.0,0.0,0.0,0.0,0.0,0.0,0.0,0.0,0.0,0.0,0.0,0.0,0.0,0.0,0.0,0.0,0.0,0.0,0.0,0.0,0.0,0.0,0.0,0.0,0.0,0.0,0.0,0.0,0.0,0.0,0.0,0.0,0.0,0.0,0.0,0.0,0.0,0.0,0.0,0.0,0.0,0.0,0.0,0.0,0.0,0.0,0.0,0.0,0.0,0.0,0.0,0.0,0.0,0.0,0.0,0.0,0.0,0.0,0.0,0.0,0.0,0.0,0.0,0.0,0.0,0.0,0.0,0.0,0.0,0.0,0.0,0.0,0.0,0.0,0.0,0.0,0.0,0.0,0.0,0.0,0.0,0.0,0.0,0.0,0.0,0.0,0.0,0.0,0.0,0.0,0.0,0.0,0.0,0.0,0.0,0.0,0.0,0.0,0.0,0.0,0.0,0.0,0.0,0.0,0.0,0.0,0.0,0.0,0.0,0.0,0.0,0.0,0.0,0.0,0.0,0.0,0.0,0.0,0.0,0.0,0.0,0.0,0.0,0.0,0.0,0.0,0.0,0.0,0.0,0.0,0.0,0.0,0.0,0.0,0.0,0.0,0.0,0.0,0.0,0.0,0.0,0.0,0.0,0.0,0.0,0.0,0.0,0.0,0.0,0.0,0.0,0.0,0.0,0.0,0.0,0.0,0.0,0.0,0.0,0.0,0.0,0.0,0.0,0.0,0.0,0.0,0.0,0.0,0.0,0.0,0.0,0.0,0.0,0.0,0.0,0.0,0.0,0.0,0.0,0.0,0.0,0.0,0.0,0.0,0.0,0.0,0.0,0.0,0.0,0.0,0.0,0.0,0.0,0.0,0.0,0.0,0.0,0.0,0.0,0.0,0.0,0.0,0.0,0.0,0.0,0.0,0.0,0.0,0.0,0.0,0.0,0.0,0.0,0.0,0.0,0.0,0.0,0.0,0.0,0.0,0.0,0.0,0.0,0.0,0.0,0.0,0.0,0.0,0.0,0.0,0.0,0.0,0.0,0.0,0.0,0.0,0.0,0.0,0.0,0.0,0.0,0.0,0.0,0.0,0.0,0.0,0.0,0.0,0.0,0.0,0.0,0.0,0.0,0.0,0.0,0.0,0.0,0.0,0.0,0.0,0.0,0.0,0.0,0.0,0.0,0.0,0.0,0.0,0.0,0.0,0.0,0.0,0.0,0.0,0.0,0.0,0.0,0.0,0.0,0.0,0.0,0.0,0.0,0.0,0.0,0.0,0.0,0.0,0.0,0.0,0.0,0.0,0.0,0.0,0.0,0.0,0.0,0.0,0.0,0.0,0.0,0.0,0.0,0.0,0.0,0.0,0.0,0.0,0.0,0.0,0.0,0.0,0.0,0.0,0.0,0.0,0.0,0.0,0.0,0.0,0.0,0.0,0.0,0.0,0.0,0.0,0.0,0.0,0.0,0.0,0.0,0.0,0.0,0.0,0.0,0.0,0.0,0.0,0.0,0.0,0.0,0.0,0.0,0.0,0.0,0.0,0.0,0.0,0.0,0.0,0.0,0.0,0.0,0.0,0.0,0.0,0.0,0.0,0.0,0.0,0.0,0.0,0.0,0.0,0.0,0.0,0.0,0.0,0.0,0.0,0.0,0.0,0.0,0.0,0.0,0.0,0.0,0.0,0.0,0.0,0.0,0.0,0.0,0.0,0.0,0.0,0.0,0.0,0.0,0.0,0.0,0.0,0.0,0.0,0.0,0.0,0.0,0.0,0.0,0.0,0.0,0.0,0.0,0.0,0.0,0.0,0.0,0.0,0.0,0.0,0.0,0.0,0.0,0.0,0.0,0.0,0.0,0.0,0.0,0.0,0.0,0.0,0.0,0.0,0.0,0.0,0.0,0.0,0.0,0.0,0.0,0.0,0.0,0.0,0.0,0.0,0.0,0.0,0.0,0.0,0.0,0.0,0.0,0.0,0.0,0.0,0.0,0.0,0.0,0.0,0.0,0.0,0.0,0.0,0.0,0.0,0.0,0.0,0.0,0.0,0.0,0.0,0.0,0.0,0.0,0.0,0.0,0.0,0.0,0.0,0.0,0.0,0.0,0.0,0.0,0.0,0.0,0.0,0.0,0.0,0.0,0.0,0.0,0.0,0.0,0.0,0.0,0.0,0.0,0.0,0.0,0.0,0.0,0.0,0.0,0.0,0.0,0.0,0.0,0.0,0.0,0.0,0.0,0.0,0.0,0.0,0.0,0.0,0.0,0.0,0.0,0.0,0.0,0.0,0.0,0.0,0.0,0.0,0.0,0.0,0.0,0.0,0.0,0.0,0.0,0.0,0.0,0.0,0.0,0.0,0.0,0.0,0.0,0.0,0.0,0.0,0.0,0.0,0.0,0.0,0.0,0.0,0.0,0.0,0.0,0.0,0.0,0.0,0.0,0.0,0.0,0.0,0.0,0.0,0.0,0.0,0.0,0.0,0.0,0.0,0.0,0.0,0.0,0.0,0.0,0.0,0.0,0.0,0.0,0.0,0.0,0.0,0.0,0.0,0.0,0.0,0.0,0.0,0.0,0.0,0.0,0.0,0.0,0.0,0.0,0.0,0.0,0.0,0.0,0.0,0.0,0.0,0.0,0.0,0.0,0.0,0.0,0.0,0.0,0.0,0.0,0.0,0.0,0.0,0.0,0.0,0.0,0.0,0.0,0.0,0.0,0.0,0.0,0.0,0.0,0.0,0.0,0.0,0.0,0.0,0.0,0.0,0.0,0.0,0.0,0.0,0.0,0.0,0.0,0.0,0.0,0.0,0.0,0.0,0.0,0.0,0.0,0.0,0.0,0.0,0.0,0.0,0.0,0.0,0.0,0.0,0.0,0.0,0.0,0.0,0.0,0.0,0.0,0.0,0.0,0.0,0.0,0.0,0.0,0.0,0.0,0.0,0.0,0.0,0.0,0.0,0.0,0.0,0.0,0.0,0.0,0.0,0.0,0.0,0.0,0.0,0.0,0.0,0.0,0.0,0.0,0.0,0.0,0.0,0.0,0.0,0.0,0.0,0.0,0.0,0.0,0.0,0.0,0.0,0.0,0.0,0.0,0.0,0.0,0.0,0.0,0.0,0.0,0.0,0.0,0.0,0.0,0.0,0.0,0.0,0.0,0.0,0.0,0.0,0.0,0.0,0.0,0.0,0.0,0.0,0.0,0.0,0.0,0.0,0.0,0.0,0.0,0.0,0.0,0.0,0.0,0.0,0.0,0.0,0.0,0.0,0.0,0.0,0.0,0.0,0.0,0.0,0.0,0.0,0.0,0.0,0.0,0.0,0.0,0.0,0.0,0.0,0.0,0.0,0.0,0.0,0.0,0.0,0.0,0.0,0.0,0.0,0.0,0.0,0.0,0.0,0.0,0.0,0.0,0.0,0.0,0.0,0.0,0.0,0.0,0.0,0.0,0.0,0.0,0.0,0.0,0.0,0.0,0.0,0.0,0.0,0.0,0.0,0.0,0.0,0.0,0.0,0.0,0.0,0.0,0.0,0.0,0.0,0.0,0.0,0.0,0.0,0.0,0.0,0.0,0.0,0.0,0.0,0.0,0.0,0.0,0.0,0.0,0.0,0.0,0.0,0.0,0.0,0.0,0.0,0.0,0.0,0.0,0.0,0.0,0.0,0.0,0.0,0.0,0.0,0.0,0.0,0.0,0.0,0.0,0.0,0.0,0.0,0.0,0.0,0.0,0.0,0.0,0.0,0.0,0.0,0.0,0.0,0.0,0.0,0.0,0.0,0.0,0.0,0.0,0.0,0.0,0.0,0.0,0.0,0.0,0.0,0.0,0.0,0.0,0.0,0.0,0.0,0.0,0.0,0.0,0.0,0.0,0.0,0.0,0.0,0.0,0.0,0.0,0.0,0.0,0.0,0.0,0.0,0.0,0.0,0.0,0.0,0.0,0.0,0.0,0.0,0.0,0.0,0.0,0.0,0.0,0.0,0.0,0.0,0.0,0.0,0.0,0.0,0.0,0.0,0.0,0.0,0.0,0.0,0.0,0.0,0.0,0.0,0.0,0.0,0.0,0.0,0.0,0.0,0.0,0.0,0.0,0.0,0.0,0.0,0.0,0.0,0.0,0.0,0.0,0.0,0.0,0.0,0.0,0.0,0.0,0.0,0.0,0.0,0.0,0.0,0.0,0.0,0.0,0.0,0.0,0.0,0.0,0.0,0.0,0.0,0.0,0.0,0.0,0.0,0.0,0.0,0.0,0.0,0.0,0.0,0.0,0.0,0.0,0.0,0.0,0.0,0.0,0.0,0.0,0.0,0.0,0.0,0.0,0.0,0.0,0.0,0.0,0.0,0.0,0.0,0.0,0.0,0.0,0.0,0.0,0.0,0.0,0.0,0.0,0.0,0.0,0.0,0.0,0.0,0.0,0.0,0.0,0.0,0.0,0.0,0.0,0.0,0.0,0.0,0.0,0.0,0.0,0.0,0.0,0.0,0.0,0.0,0.0,0.0,0.0,0.0,0.0,0.0,0.0,0.0,0.0,0.0,0.0,0.0,0.0,0.0,0.0,0.0,0.0,0.0,0.0,0.0,0.0,0.0,0.0,0.0,0.0,0.0,0.0,0.0,0.0,0.0,0.0,0.0,0.0,0.0,0.0,0.0,0.0,0.0,0.0,0.0,0.0,0.0,0.0,0.0,0.0,0.0,0.0,0.0,0.0,0.0,0.0,0.0,1.8142,0.0,0.0,0.0,0.0,0.0,0.0,0.0,0.0,0.0,0.0,0.0,0.0,0.0,0.0,0.0,0.0,0.0,0.0,0.0,0.0,0.0,0.0,0.0,0.0,0.0,0.0,0.0,0.0,0.0,0.0,0.0,0.0,0.0,0.0,0.0,0.0,0.0,0.0,0.0,1.8857,1.8857,1.8652,2.0504,2.2503,2.4607,0.0,0.0,0.0,0.0,0.0,0.0,0.0,0.0,0.0,0.0,0.0,0.0,0.0,0.0,0.0,0.0,0.0,0.0,0.0,0.0,0.0,0.0,0.0,0.0,0.0,0.0,0.0,0.0,0.0,0.0,0.0,0.0,0.0,0.0,0.0,0.0,0.0,0.0,0.0,0.0,0.0,0.0,0.0,0.0,0.0,0.0,0.0,0.0,0.0,0.0,0.0,0.0,0.0,0.0,0.0,0.0,0.0,0.0,0.0,0.0,0.0,0.0,0.0,0.0,0.0,0.0,0.0,0.0,0.0,0.0,0.0,2.048,0.0,0.0,0.0,0.0,0.0,0.0,0.0,0.0,0.0,0.0,0.0,0.0,0.0,0.0,0.0,0.0,0.0,0.0,0.0,0.0,0.0,0.0,0.0,0.0,1.963,1.9744,2.012,2.0294,0.0,0.0,0.0,0.0,0.0,0.0,0.0,1.8598,1.8783,1.918,1.8783,1.8936,1.9558,1.9941,2.1555,2.4209,2.5708,0.0,0.0,0.0,0.0,0.0,0.0,0.0,0.0,0.0,0.0,0.0,0.0,0.0,0.0,0.0,0.0,0.0,0.0,0.0,0.0,0.0,0.0,0.0,0.0,0.0,0.0,0.0,0.0,0.0,0.0,0.0,0.0,0.0,0.0,0.0,0.0,0.0,0.0,0.0,0.0,0.0,0.0,0.0,0.0,0.0,0.0,0.0,0.0,0.0,0.0,0.0,0.0,0.0,0.0,0.0,0.0,0.0,0.0,0.0,0.0,0.0,0.0,0.0,2.2942,2.392,2.4968,2.5642,2.5574,2.4875,2.3319,2.2561,2.2479,0.0,0.0,0.0,0.0,0.0,0.0,0.0,0.0,0.0,0.0,0.0,0.0,0.0,0.0,0.0,0.0,0.0,0.0,0.0,0.0,0.0,0.0,1.8789,1.8652,1.9085,1.9167,1.9049,0.0,0.0,0.0,0.0,0.0,0.0,1.8598,1.8598,1.8627,1.8685,1.8627,1.9238,2.0449,2.085,2.1959,2.3575,2.2924,2.3782,2.5689,0.0,0.0,0.0,0.0,0.0,0.0,0.0,0.0,0.0,0.0,0.0,0.0,0.0,0.0,0.0,0.0,0.0,0.0,0.0,0.0,0.0,0.0,0.0,0.0,0.0,0.0,0.0,0.0,0.0,0.0,0.0,0.0,0.0,0.0,0.0,0.0,0.0,0.0,0.0,0.0,0.0,2.0701,2.0844,0.0,0.0,0.0,0.0,0.0,0.0,0.0,0.0,0.0,0.0,0.0,0.0,0.0,0.0,2.197,2.2427,2.2977,2.3606,2.386,2.4248,2.4755,2.5147,2.5262,2.5157,2.4904,0.0,2.4464,2.4017,0.0,0.0,0.0,0.0,0.0,0.0,0.0,0.0,0.0,0.0,0.0,0.0,0.0,0.0,0.0,0.0,0.0,0.0,0.0,0.0,0.0,1.8779,1.8511,1.8683,1.8175,1.7891,1.8055,1.8295,0.0,0.0,0.0,1.8178,1.8588,1.8598,1.8724,1.9004,1.9482,1.9883,2.0243,2.1284,2.238,2.3498,2.3668,2.4259,2.5146,2.5234,0.0,0.0,0.0,0.0,0.0,0.0,0.0,0.0,0.0,0.0,0.0,0.0,0.0,0.0,0.0,0.0,0.0,0.0,0.0,0.0,0.0,0.0,0.0,0.0,0.0,0.0,0.0,0.0,0.0,0.0,0.0,0.0,0.0,0.0,0.0,0.0,0.0,0.0,0.0,2.0297,2.1612,2.2498,2.2438,2.2672,0.0,0.0,0.0,0.0,0.0,0.0,0.0,0.0,0.0,2.0259,2.1788,2.2508,2.2291,2.3159,2.375,2.4012,2.4956,2.5501,2.574,2.652,2.6875,2.682,2.688,2.681,2.6627,2.5736,2.6128,2.7183,0.0,0.0,0.0,0.0,2.5336,2.5189,0.0,0.0,0.0,0.0,0.0,0.0,0.0,0.0,0.0,0.0,0.0,0.0,1.9277,1.8607,1.8273,1.8593,1.7591,1.7234,1.7956,1.7962,0.0,0.0,1.8198,1.8252,1.8754,1.9014,1.9346,1.9785,2.0576,2.0791,2.0586,2.1852,2.309,2.4303,2.4999,2.536,2.5432,2.54,2.4858,2.3954,0.0,0.0,0.0,0.0,0.0,0.0,0.0,0.0,0.0,0.0,0.0,0.0,0.0,0.0,0.0,0.0,0.0,0.0,0.0,0.0,0.0,0.0,0.0,0.0,0.0,0.0,0.0,0.0,0.0,0.0,0.0,0.0,0.0,0.0,0.0,0.0,0.0,2.0639,2.2019,2.3371,2.3266,2.361,0.0,0.0,0.0,0.0,0.0,0.0,2.1842,2.1512,2.1389,2.1566,2.2623,2.2999,2.2591,2.3788,2.4475,2.4681,2.6082,2.6803,2.6938,2.781,2.8201,2.8158,2.8191,2.8172,2.8052,2.7255,2.6963,2.7074,2.7303,2.7362,2.7292,2.7015,2.6523,2.5996,0.0,0.0,0.0,0.0,0.0,0.0,0.0,0.0,0.0,0.0,0.0,1.8792,1.9238,1.8025,1.7673,1.889,1.7842,1.7433,1.8246,1.8448,1.8556,1.8598,1.8198,1.8398,1.9238,2.0096,2.0693,2.1093,2.1592,2.2012,2.2393,2.2856,2.4215,2.6315,2.5822,2.6177,2.7059,2.5502,2.4531,2.3954,2.3333,0.0,0.0,0.0,0.0,0.0,0.0,0.0,0.0,0.0,0.0,0.0,0.0,0.0,0.0,0.0,0.0,0.0,0.0,0.0,0.0,0.0,0.0,0.0,0.0,0.0,0.0,0.0,0.0,0.0,0.0,0.0,0.0,0.0,0.0,0.0,0.0,0.0,0.0,2.1406,2.2688,0.0,0.0,0.0,0.0,2.4297,2.3478,2.3243,2.3991,2.4017,2.372,2.3104,2.3334,2.3622,2.3902,2.4912,2.5678,2.6206,2.7243,2.7824,2.8035,2.8211,2.8281,2.8281,2.8231,2.8198,2.8183,2.8065,2.8027,2.8007,2.7768,2.7682,2.7608,2.7093,2.6866,2.67,0.0,0.0,0.0,0.0,0.0,0.0,0.0,0.0,1.8008,1.8008,1.8623,1.9219,1.9648,1.8944,1.8736,1.943,1.7663,1.6961,1.8001,1.7487,1.7502,1.8163,1.8086,1.8408,1.9268,2.0165,2.0967,2.165,2.2353,2.2773,2.292,2.3763,2.501,2.6513,2.7013,2.7624,2.821,2.6176,2.4808,2.3891,2.2598,2.1768,0.0,0.0,0.0,0.0,0.0,0.0,0.0,0.0,0.0,0.0,0.0,0.0,0.0,0.0,0.0,0.0,0.0,0.0,0.0,0.0,0.0,0.0,0.0,0.0,0.0,0.0,0.0,0.0,0.0,0.0,0.0,0.0,0.0,0.0,0.0,0.0,0.0,2.2611,2.3815,0.0,0.0,2.5292,2.4796,2.5832,2.4488,2.3827,2.4365,2.4351,2.4354,2.4428,2.5069,2.5489,2.5598,2.6432,2.6973,2.7204,2.8226,2.8809,2.9012,2.9589,2.9898,2.9961,2.9869,2.9815,2.9793,2.9698,2.9007,2.7943,2.7026,2.6963,2.7265,2.6283,2.626,2.6655,0.0,0.0,0.0,0.0,0.0,0.0,0.0,0.0,1.7959,1.7822,1.8662,1.9394,1.9678,1.9554,1.9747,2.0441,1.825,1.7395,1.8703,1.7517,1.7176,1.8169,1.8461,1.8916,1.9482,2.0771,2.1728,2.2357,2.3154,2.352,2.3574,2.4331,2.5475,2.7007,2.7704,2.8587,2.939,2.772,2.605,2.4406,2.2937,2.2575,2.2686,0.0,0.0,0.0,0.0,0.0,0.0,0.0,0.0,0.0,0.0,0.0,0.0,0.0,0.0,0.0,0.0,0.0,0.0,0.0,0.0,0.0,0.0,0.0,0.0,0.0,0.0,0.0,0.0,0.0,0.0,0.0,0.0,0.0,0.0,0.0,2.3167,2.451,2.5718,2.6993,2.8458,2.7174,2.648,2.7065,2.5696,2.5027,2.5422,2.5279,2.5368,2.5799,2.6358,2.6671,2.6748,2.7581,2.8052,2.8179,2.9168,2.9702,2.9861,3.0448,3.0746,3.0838,3.0701,3.0671,3.0663,3.0517,2.9935,2.897,2.756,2.7267,2.7576,2.7074,2.7154,2.745,0.0,0.0,0.0,0.0,0.0,0.0,0.0,1.8008,1.7861,1.7441,1.8506,1.9307,1.9307,1.9761,2.0578,2.1812,1.9573,1.8806,2.045,1.8551,1.7715,1.8559,1.9407,1.9922,1.999,2.2029,2.3184,2.3266,2.4062,2.4463,2.4434,2.4434,2.5663,2.7885,2.7885,2.8918,3.0608,3.0068,2.826,2.5649,2.4506,2.4343,2.4636,0.0,0.0,0.0,0.0,0.0,0.0,0.0,0.0,0.0,0.0,0.0,0.0,0.0,0.0,0.0,0.0,0.0,0.0,0.0,0.0,0.0,0.0,0.0,0.0,0.0,0.0,0.0,0.0,0.0,0.0,0.0,0.0,0.0,2.0516,2.2834,2.5118,2.6836,2.8254,2.9268,2.9629,2.8655,2.8003,2.7989,2.7233,2.6942,2.7341,2.7005,2.6943,2.7257,2.7138,2.7138,2.7339,2.8388,2.9015,2.9223,3.0124,3.0572,3.0593,3.0704,3.0771,3.0782,3.0702,3.0681,3.0665,3.0519,3.0803,3.1157,2.9487,2.8719,2.8663,2.9473,2.9588,2.9087,0.0,0.0,0.0,0.0,0.0,0.0,0.0,1.8008,1.7861,1.7441,1.876,1.9746,1.9746,2.0997,2.1934,2.2292,2.0024,1.8843,1.9609,1.7324,1.6758,1.852,1.917,2.0195,2.1758,2.2988,2.3916,2.4587,2.542,2.5518,2.4893,2.4893,2.5961,2.7885,2.7885,2.9106,3.1173,3.1022,3.0281,2.9001,2.6251,2.4782,2.4123,0.0,0.0,0.0,0.0,0.0,0.0,0.0,0.0,0.0,0.0,0.0,0.0,0.0,0.0,0.0,0.0,0.0,0.0,0.0,0.0,0.0,0.0,0.0,0.0,0.0,0.0,0.0,0.0,0.0,0.0,0.0,0.0,1.9987,2.0585,2.4085,2.6925,2.784,3.0075,3.1464,3.1284,3.0759,3.03,2.9963,2.8956,2.842,2.8526,2.8984,2.9122,2.8889,2.9899,3.041,3.0314,3.109,3.1609,3.1852,3.1916,3.2129,3.246,3.2299,3.2363,3.2585,3.2501,3.243,3.2313,3.2039,3.1922,3.1785,3.011,2.968,2.9959,2.9421,2.8658,2.7855,0.0,0.0,0.0,0.0,0.0,0.0,0.0,1.7627,1.7529,1.6946,1.8789,2.0049,1.9697,2.1201,2.2178,2.1951,1.9941,1.8682,1.875,1.75,1.7369,1.8848,2.0019,2.1309,2.2701,2.3975,2.4941,2.5615,2.6309,2.6387,2.5879,2.5879,2.6672,2.8054,2.8798,2.9848,3.1048,3.1768,3.165,3.0746,2.8574,2.7193,2.6314,2.5272,2.446,2.39,2.345,2.3025,2.2631,2.2746,0.0,0.0,0.0,0.0,0.0,0.0,0.0,0.0,0.0,0.0,0.0,0.0,0.0,0.0,0.0,0.0,0.0,0.0,0.0,0.0,0.0,0.0,0.0,0.0,2.1597,2.2719,2.3894,2.6252,2.8543,3.0422,3.2152,3.3319,3.3711,3.2733,3.1915,3.1513,3.0535,2.9802,2.9523,3.0248,3.0614,3.0502,3.1573,3.2199,3.2293,3.2673,3.3007,3.3228,3.285,3.2838,3.3141,3.3041,3.3063,0.0,3.3217,3.3114,3.2977,3.2635,3.2572,0.0,0.0,0.0,0.0,0.0,2.9101,2.8259,0.0,0.0,0.0,0.0,0.0,0.0,0.0,1.7061,1.7044,1.6202,1.8599,2.0067,1.917,2.0625,2.1484,2.1015,1.9436,1.8295,1.7969,1.8344,1.888,1.9551,2.1514,2.2852,2.3374,2.4943,2.6045,2.6533,2.6953,2.7139,2.709,2.709,2.7583,2.8597,3.0156,3.0893,3.1009,3.2587,3.2616,3.1537,3.1072,3.0419,2.9528,2.7971,2.7137,2.6735,2.6472,2.5645,2.4597,2.437,0.0,0.0,0.0,0.0,0.0,0.0,0.0,0.0,0.0,0.0,0.0,0.0,0.0,0.0,0.0,0.0,0.0,0.0,0.0,0.0,0.0,0.0,0.0,0.0,2.39,2.657,2.8826,2.9023,3.0225,3.3692,3.4322,3.4992,3.638,3.4675,3.3368,3.3094,3.1992,3.1099,3.0629,0.0,0.0,0.0,0.0,3.3221,3.3703,3.3777,3.3876,3.3989,3.3616,3.3417,3.3406,3.3524,3.3558,3.3471,3.3443,3.335,3.3214,3.2837,3.2958,3.3296,3.2441,3.1719,3.1135,3.059,2.9941,2.9232,0.0,0.0,0.0,0.0,0.0,0.0,0.0,1.6775,1.667,1.6163,1.7783,1.8691,1.7842,1.9277,2.0127,1.9697,1.8418,1.7588,1.751,1.8213,1.9426,2.1309,2.2494,2.3721,2.5157,2.5908,2.6641,2.7474,2.7842,2.7871,2.7539,2.7539,2.8584,3.0415,3.0745,3.2008,3.3866,3.4259,3.3759,3.2742,3.2641,3.1185,2.8976,2.8235,2.7385,2.6504,2.5966,2.6161,2.6666,2.6167,2.6311,2.6553,2.6034,2.5285,0.0,0.0,0.0,0.0,0.0,0.0,0.0,0.0,0.0,0.0,0.0,0.0,0.0,0.0,0.0,0.0,0.0,0.0,0.0,2.4967,2.5654,2.7225,3.1283,3.1814,3.2679,3.5001,3.611,3.7014,3.7823,3.7053,3.6327,3.6008,3.3567,3.2355,3.2978,3.317,0.0,3.3359,3.48,3.5555,3.5504,3.6089,3.6195,3.5813,0.0,0.0,3.5219,3.5712,3.5683,3.5193,3.4923,3.4769,3.4644,3.4107,3.3623,3.3172,3.2343,3.1422,3.0448,2.9386,2.823,2.7286,0.0,0.0,0.0,0.0,0.0,0.0,0.0,1.6495,1.6393,1.6315,1.7652,1.8286,1.7471,1.8516,1.9023,1.8389,1.7376,1.7122,1.7959,1.9014,2.0381,2.2119,2.3652,2.4961,2.6045,2.6699,2.7441,2.8291,2.8506,2.8613,2.8667,2.8398,2.9122,3.0621,3.1318,3.241,3.3882,3.4728,3.45,3.347,3.3194,3.1901,3.0105,2.9566,2.885,2.8083,2.7469,2.7444,2.757,2.6776,2.6487,2.6302,2.5485,2.5034,2.4625,0.0,0.0,0.0,0.0,0.0,0.0,0.0,0.0,0.0,0.0,0.0,0.0,0.0,0.0,1.9686,0.0,0.0,2.45,2.6755,2.7694,2.932,3.2622,3.3095,3.3958,3.6297,3.6857,3.7533,3.8735,3.7755,3.6925,3.6621,3.496,3.4028,3.424,3.4604,3.4924,3.5182,3.6315,3.7,3.7202,3.7536,3.7652,3.7546,3.738,3.7195,3.6995,3.6866,3.6568,3.6132,3.5938,3.5359,3.4473,3.3508,3.2678,3.2004,3.1635,3.1139,3.0464,2.9347,2.8532,2.8075,0.0,0.0,0.0,0.0,0.0,0.0,0.0,1.6261,1.6246,1.6477,1.7567,1.7976,1.7112,1.7686,1.7861,1.7187,1.6662,1.7051,1.8734,2.0098,2.1476,2.2822,2.467,2.5977,2.6494,2.7187,2.7949,2.8799,2.8877,2.9092,2.9434,2.9346,2.9876,3.09,3.2123,3.305,3.3677,3.5074,3.5127,3.4173,3.3621,3.2729,3.165,3.1009,3.0369,2.9716,2.9139,2.8436,2.767,2.6914,2.6135,2.531,2.4556,2.4469,2.4424,2.3409,2.3424,0.0,0.0,0.0,0.0,0.0,0.0,0.0,0.0,0.0,1.9121,1.9833,2.0577,2.1524,2.2914,2.516,2.7137,2.8196,2.9567,3.1229,3.3306,3.3495,3.4339,3.6859,3.7166,3.7835,3.9536,3.8289,3.7342,3.7223,3.6457,3.5822,3.5394,3.5981,3.6559,3.7056,3.7717,3.8365,3.9013,3.9096,3.9119,3.9059,3.828,3.8056,3.8274,3.7519,3.6902,3.643,3.5998,3.5015,3.365,3.2464,3.1647,3.1113,3.0959,3.0904,3.0802,2.9884,2.9536,2.9628,0.0,0.0,0.0,0.0,0.0,0.0,0.0,0.0,1.6459,1.6503,1.699,1.6909,1.5743,1.6095,1.6339,1.6251,1.6868,1.7959,1.9658,2.1006,2.248,2.4131,2.5148,2.6064,2.6924,2.7041,2.751,2.8359,2.874,2.8945,2.8984,3.0207,3.1455,3.2723,3.3723,3.4848,3.6028,3.6245,3.5918,3.527,3.4718,3.3872,3.2767,3.1712,3.067,2.9716,2.9139,2.7946,2.6738,2.7102,2.6176,2.4938,2.531,2.4808,2.3966,2.3296,2.2816,2.2645,2.3319,2.3096,2.2439,2.1412,2.0444,1.9459,0.0,0.0,1.9859,2.0464,2.16,2.3032,2.483,2.6454,2.8282,3.0762,3.0782,3.1229,3.3306,3.3093,3.3504,3.5654,3.7433,3.9084,4.0573,3.9962,3.9646,4.0106,3.8415,3.7411,3.747,3.7663,3.7988,3.8465,3.9526,4.0449,4.1231,4.1824,4.1418,4.0053,4.1045,4.0385,3.8281,3.7945,3.7093,3.5796,3.4062,3.3091,3.2699,3.2132,3.1913,3.1794,3.0916,3.0875,3.1259,3.0586,3.0368,3.0366,0.0,0.0,0.0,0.0,0.0,0.0,0.0,0.0,0.0,1.766,1.7456,1.6888,1.6116,1.583,1.5684,1.5684,1.629,1.7484,1.9424,2.0781,2.2373,2.4326,2.5742,2.665,2.7012,2.75,2.8057,2.8662,2.8838,2.9471,3.0499,3.0826,3.2158,3.4194,3.4304,3.5126,3.6405,3.6405,3.6044,3.5445,3.4906,3.3859,3.2453,3.1348,2.9854,2.8298,2.8059,2.7554,0.0,2.5744,2.5369,2.5249,2.4419,2.3822,2.3437,2.3257,2.2856,2.2391,2.2038,2.2069,0.0,0.0,2.0067,1.9861,2.0062,2.0715,2.1544,2.2622,2.3932,2.5326,2.6903,2.8696,3.0426,0.0,3.2625,3.3382,3.4646,3.4593,3.4697,3.5535,3.6427,3.7716,3.9614,3.9477,3.937,3.9583,3.9164,3.8616,3.8061,3.9085,3.968,3.9692,4.0341,4.1208,4.2278,4.1561,4.1239,4.1297,4.0866,4.0013,3.8796,3.7854,3.653,3.4825,3.3084,3.2282,3.2202,3.1421,3.111,3.109,3.0657,3.0891,3.1425,3.1152,3.1332,3.1674,0.0,0.0,0.0,0.0,0.0,0.0,0.0,0.0,0.0,0.0,1.775,1.7032,1.6267,1.5729,1.541,1.541,1.5928,1.7012,1.8818,2.0342,2.199,2.3818,2.5557,2.6543,2.666,2.75,2.8357,2.9136,2.9375,3.034,3.1966,3.2048,3.3133,3.5023,3.4955,3.5463,3.6405,3.6194,3.5906,3.542,3.4568,3.3445,3.2026,3.0331,2.8698,2.7297,2.6936,2.6488,2.5777,2.4082,2.4142,2.4714,2.3542,2.3258,2.3431,2.3556,2.3269,2.2748,2.2036,0.0,0.0,2.1004,2.063,2.0752,2.1719,2.2372,2.32,2.4761,2.6038,2.7252,2.8441,3.0255,3.1879,3.2812,3.3794,3.4717,3.558,3.5374,3.5161,3.5297,3.5005,3.5752,3.8171,3.8552,3.8772,3.9105,3.9914,4.0027,3.93,4.0632,4.1263,4.0916,4.1238,4.1886,4.2815,4.167,4.1413,4.2086,4.0541,3.953,3.8917,3.6994,3.5339,3.3854,3.2397,3.1802,3.1766,3.1049,3.0746,3.0781,3.0792,3.1182,3.1795,3.1974,3.2348,3.2766,0.0,0.0,0.0,0.0,0.0,0.0,0.0,0.0,0.0,0.0,0.0,0.0,0.0,1.541,1.541,1.541,1.618,1.7058,1.7988,2.0011,2.16,2.2529,2.4209,2.5332,2.5713,2.6611,2.7902,2.9688,3.0527,3.1645,3.3001,3.4279,3.4934,3.5023,3.5949,3.6358,3.6367,3.5805,3.552,3.5357,3.3771,3.2754,3.1863,2.8624,2.7398,2.7232,2.6059,2.4323,2.2517,2.2385,2.2505,2.2754,2.3175,2.37,2.4204,2.4325,2.4043,2.3772,0.0,0.0,2.2697,2.3172,2.2755,2.2355,2.292,2.354,2.4494,2.6435,2.7511,2.8384,2.9143,3.0499,3.199,3.3437,3.3698,3.4182,3.5513,3.4507,3.3903,3.4552,3.3375,3.3641,0.0,3.7586,3.8505,3.9675,4.0986,4.1781,4.1874,4.2431,4.2567,4.2163,4.2534,4.2792,4.2899,4.3179,4.2896,4.2089,4.0933,3.9692,3.8313,3.5155,3.3451,3.2976,3.1885,3.1419,3.1418,3.1391,3.1418,3.1465,3.1466,3.1869,3.2557,3.32,3.344,3.338,0.0,0.0,0.0,0.0,0.0,0.0,0.0,0.0,0.0,0.0,0.0,0.0,0.0,0.0,0.0,0.0,1.5532,1.6436,1.709,1.9996,2.1669,2.1652,2.4933,2.6487,2.5998,2.751,2.8646,2.9237,2.9552,3.0378,3.1669,3.2136,3.2819,3.3736,3.407,3.4431,3.4688,3.4135,3.4123,3.4274,3.2252,3.111,3.0281,2.7293,2.576,2.5053,0.0,2.3564,2.3421,2.1882,2.1935,2.2555,2.1911,2.2098,2.2636,2.3128,0.0,0.0,0.0,0.0,2.4151,2.4295,2.4153,2.4217,2.5134,2.564,2.6259,2.7404,2.8318,2.9042,2.944,3.0259,3.1668,3.4046,3.4833,3.5635,3.6967,3.7489,3.7057,3.5279,3.5408,0.0,0.0,0.0,0.0,3.8401,3.9695,4.0483,4.0672,4.2787,4.3817,4.3404,4.3149,4.3349,4.4087,4.2226,4.1195,4.1006,3.8676,3.6742,3.516,3.381,3.2735,3.1914,3.1567,3.142,3.1492,3.1945,3.2147,3.2153,3.2153,3.2856,3.3784,3.3574,3.3769,3.4084,0.0,0.0,0.0,0.0,0.0,0.0,0.0,0.0,0.0,0.0,0.0,0.0,0.0,0.0,0.0,0.0,0.0,1.5918,1.6625,1.9039,2.0502,2.0555,2.3624,2.5139,2.4671,2.6194,2.7235,2.7707,2.8057,2.8942,3.0254,3.0459,3.1045,3.1901,3.1901,3.2215,3.2679,3.1913,3.18,3.1951,2.9942,2.8823,2.8076,2.5237,2.4015,0.0,2.2067,2.2462,2.3475,2.1755,2.1996,2.2847,2.1869,2.2084,2.2808,0.0,0.0,0.0,0.0,2.4856,2.5505,2.5648,2.5699,2.5887,2.6625,2.6657,2.6653,2.7182,2.7777,2.8291,2.849,2.9246,3.0648,3.3223,3.4227,3.5388,3.7495,3.8016,3.7856,3.6954,3.6882,3.7018,0.0,0.0,0.0,3.8204,3.9648,4.0648,4.1162,4.3343,4.4497,4.4251,4.343,4.3216,4.3658,4.1118,3.9467,3.8689,3.683,3.508,3.3437,3.3237,3.2784,3.2122,3.1907,3.1834,3.1884,3.2303,3.2512,3.2512,3.2766,3.3529,3.4459,3.4039,3.4144,3.4351,0.0,0.0,0.0,0.0,0.0,0.0,0.0,0.0,0.0,0.0,0.0,0.0,0.0,0.0,0.0,0.0,0.0,0.0,1.644,1.7445,1.8383,1.9253,2.062,2.1568,2.2015,2.2931,2.4015,2.5284,2.6235,2.7356,2.8612,2.9202,2.9453,2.9453,2.9453,2.9767,3.0206,2.9101,2.8674,2.8561,2.6961,2.6036,2.5319,2.248,2.2181,2.2956,2.071,2.1105,2.2596,2.1962,2.2606,0.0,0.0,0.0,0.0,0.0,0.0,2.5418,2.5823,2.6275,2.6751,2.7268,2.7369,2.7341,2.7326,2.6526,2.5845,2.5978,2.6173,2.6361,0.0,0.0,2.913,3.1406,3.2199,3.3717,3.7189,3.6471,3.6576,0.0,0.0,0.0,0.0,0.0,0.0,3.9121,0.0,4.2156,4.313,4.4063,4.4618,4.4729,4.3425,4.2411,4.1777,3.9887,3.7772,3.5424,3.5549,3.4747,3.3126,3.3336,3.3483,3.3468,3.2823,3.2527,3.2467,3.2512,3.2527,3.2587,3.3229,3.3917,3.4563,3.4518,3.4503,3.4273,0.0,0.0,0.0,0.0,0.0,0.0,0.0,0.0,0.0,0.0,0.0,0.0,0.0,0.0,0.0,0.0,0.0,0.0,1.4988,1.7682,1.8873,1.788,2.0534,2.1766,2.1227,2.2507,2.3349,2.368,2.3931,2.4228,2.4575,2.4725,2.48,2.48,2.48,2.5114,2.5661,2.5372,2.5463,2.5756,2.4485,2.3648,2.2975,2.0988,2.0758,2.1333,2.0277,2.1109,2.2676,2.25,0.0,0.0,0.0,2.4618,2.6044,0.0,0.0,2.721,2.7519,2.7915,2.8436,2.9013,2.8511,2.7814,2.7439,2.662,2.5971,2.6069,2.6228,2.6688,0.0,0.0,0.0,3.3303,3.4025,0.0,3.8224,3.9124,0.0,3.9522,0.0,4.0254,4.0686,4.0523,0.0,0.0,4.0736,4.109,4.1694,4.3268,4.4456,4.5137,4.2899,4.1539,4.1208,3.7489,3.5248,3.4543,3.4518,3.4096,3.3333,3.396,3.396,3.3487,3.3321,3.2847,3.2239,3.2748,3.2951,3.2966,3.314,3.403,3.5175,3.4666,3.4503,3.4273,0.0,0.0,0.0,0.0,0.0,0.0,0.0,0.0,0.0,0.0,0.0,0.0,0.0,0.0,0.0,0.0,0.0,0.0,0.0,1.7217,1.8044,1.7363,1.916,2.0,1.9709,2.0531,2.0939,2.0939,2.1189,2.1302,2.1315,2.154,2.1641,2.1669,2.1893,2.2352,2.2904,2.2863,2.3027,0.0,0.0,2.1839,2.1447,2.0243,2.017,2.0669,2.0033,2.0869,2.2403,0.0,0.0,2.5128,2.563,2.6476,2.7278,2.7329,0.0,2.8053,2.8392,2.8884,2.939,2.9716,2.8762,2.7748,2.7837,2.6493,2.53,2.5599,2.5591,0.0,2.719,0.0,0.0,0.0,0.0,0.0,3.7934,3.8986,3.9665,0.0,4.0833,0.0,4.1759,4.1662,4.1638,0.0,4.159,4.1591,4.1889,4.3397,4.4347,4.4491,4.2137,4.0103,3.8521,3.6329,3.4937,3.4324,3.458,3.4262,3.3496,3.4485,3.4561,3.3933,0.0,3.3022,3.2536,3.2482,3.2455,3.2518,3.3207,3.4055,3.4861,3.4912,3.4921,3.4722,0.0,0.0,0.0,0.0,0.0,0.0,0.0,0.0,0.0,0.0,1.5409,1.4489,0.0,0.0,0.0,0.0,0.0,0.0,0.0,0.0,1.6735,1.7272,1.7285,1.7488,1.7965,1.7978,1.7978,1.7978,1.8444,1.8669,1.8682,1.9133,1.9409,1.9484,1.9956,2.0526,2.1146,2.1097,2.1103,2.112,2.0658,2.0474,2.0401,0.0,1.9943,2.0418,1.9986,2.0572,2.1904,0.0,2.5307,2.6174,2.7984,2.8513,2.8521,2.8779,2.8659,2.8572,2.8936,2.9415,2.983,2.996,2.8645,2.7503,2.821,2.6205,2.4353,2.4982,0.0,2.4886,2.6253,2.6978,2.8304,3.1201,0.0,3.3802,3.7292,3.7746,3.8686,4.1353,4.1142,4.1271,4.2563,4.2284,4.2268,4.2867,4.2886,4.2899,4.2846,4.3912,4.4075,4.3077,4.0981,3.8372,3.5207,3.5688,3.5441,3.452,3.5106,3.479,3.3799,3.4981,3.5111,3.4401,0.0,0.0,3.2968,3.1972,3.157,3.1764,3.3105,3.3716,3.4013,3.4957,3.5332,3.519,0.0,0.0,0.0,0.0,0.0,0.0,0.0,0.0,0.0,0.0,1.6286,1.5729,0.0,0.0,0.0,0.0,0.0,0.0,0.0,0.0,0.0,1.6638,1.6672,1.6688,1.6789,1.6789,1.6789,1.6789,1.6889,1.6926,1.6939,1.7027,1.7317,1.7748,1.7833,1.8397,1.9264,1.9315,1.9562,1.9912,1.9873,1.9592,1.9209,1.9075,0.0,0.0,2.0213,2.0692,2.1421,2.5046,2.6692,2.7369,2.7984,2.9288,3.0409,2.9416,2.9464,2.9829,2.9669,2.9716,3.0011,3.0758,2.9155,2.7532,2.8038,2.605,0.0,0.0,2.503,2.5431,2.7219,2.8152,2.9623,3.2568,0.0,0.0,0.0,0.0,3.933,0.0,0.0,0.0,0.0,0.0,0.0,0.0,0.0,0.0,4.3153,4.3753,4.3044,4.0752,3.8716,3.6661,3.4664,3.4201,3.4152,3.4496,3.4616,3.4823,3.516,3.54,3.4993,3.4071,0.0,0.0,3.2632,3.1667,3.1478,3.1764,3.1694,3.236,3.3407,3.4008,3.4453,3.4578,0.0,0.0,0.0,0.0,0.0,0.0,0.0,1.5359,1.5832,1.6423,1.65,1.6042,1.4835,1.4422,1.4236,0.0,0.0,0.0,0.0,0.0,0.0,0.0,1.65,1.65,1.65,1.65,0.0,0.0,0.0,1.6337,1.6051,0.0,0.0,1.7693,1.8246,1.8886,1.9561,1.9869,2.0127,2.0314,2.0092,1.9866,1.9615,0.0,0.0,0.0,0.0,2.0632,2.1665,2.4582,2.6243,2.7388,2.9175,3.058,3.149,3.0747,3.037,3.0345,3.1072,3.0921,3.0771,3.1669,2.9787,2.7931,2.8828,0.0,0.0,0.0,2.5783,2.5991,2.7517,2.8111,0.0,0.0,0.0,0.0,0.0,0.0,0.0,0.0,0.0,0.0,0.0,0.0,0.0,0.0,0.0,0.0,4.3977,4.2611,4.0989,3.917,3.6723,3.5117,3.4516,3.4025,3.4189,3.5011,3.5011,3.519,3.5504,3.5504,3.5246,3.4725,3.3705,0.0,3.25,3.1057,3.0577,3.0774,3.1074,3.1892,3.2984,3.3742,3.4438,3.4797,0.0,0.0,0.0,0.0,0.0,0.0,1.4858,1.5796,1.6483,1.6491,1.648,1.6076,1.5005,1.4457,1.4388,0.0,0.0,0.0,0.0,0.0,0.0,0.0,0.0,0.0,0.0,0.0,0.0,0.0,0.0,0.0,0.0,0.0,0.0,0.0,0.0,0.0,2.0735,2.1006,2.1165,0.0,0.0,0.0,0.0,0.0,0.0,0.0,0.0,0.0,2.1823,2.3746,2.5285,2.6837,2.9334,3.0756,3.1425,3.1372,3.0691,3.0355,3.2116,3.1924,3.1436,3.2441,3.0331,2.8324,2.9512,2.704,0.0,2.6409,2.6411,2.6445,2.74,0.0,2.8483,0.0,3.1089,0.0,0.0,0.0,0.0,0.0,0.0,0.0,0.0,0.0,0.0,0.0,0.0,0.0,4.4089,4.1105,3.8905,3.7902,3.5129,3.3879,3.4396,3.4132,3.4509,3.5504,3.5504,3.5504,3.5504,3.5504,3.5392,3.51,3.3567,0.0,0.0,3.0771,3.0037,2.9986,3.0657,3.1426,3.2339,3.3174,3.4151,3.4795,0.0,0.0,0.0,0.0,0.0,0.0,1.5343,1.6015,1.6431,1.6485,1.6457,1.6179,1.5568,1.5477,1.5477,0.0,0.0,0.0,0.0,0.0,0.0,0.0,0.0,0.0,0.0,0.0,0.0,0.0,0.0,0.0,0.0,0.0,0.0,0.0,0.0,0.0,0.0,2.1716,0.0,0.0,0.0,0.0,0.0,0.0,0.0,0.0,0.0,0.0,0.0,0.0,0.0,2.5816,2.6529,2.7954,2.9448,2.9785,0.0,0.0,3.2006,3.1924,3.1489,3.2749,3.054,2.8309,2.9163,0.0,2.5301,2.595,2.6382,2.6674,2.6776,2.7351,2.8331,2.9937,0.0,3.251,0.0,0.0,0.0,0.0,0.0,0.0,0.0,0.0,0.0,0.0,0.0,0.0,0.0,3.9545,3.7606,3.675,3.418,3.32,3.4042,3.4032,3.4509,3.5504,3.5504,3.5504,3.5504,3.5504,3.4986,3.4129,0.0,0.0,0.0,3.1499,3.0779,3.0325,3.0024,3.0354,3.1033,3.1619,3.2606,3.3436,0.0,0.0,0.0,0.0,0.0,0.0,1.5543,1.609,1.6485,1.6504,1.6759,1.687,1.6642,1.692,1.6697,1.5686,0.0,0.0,0.0,0.0,0.0,0.0,0.0,0.0,0.0,0.0,0.0,0.0,0.0,0.0,0.0,0.0,0.0,0.0,0.0,0.0,0.0,0.0,0.0,0.0,0.0,0.0,0.0,0.0,0.0,0.0,0.0,0.0,0.0,0.0,0.0,0.0,2.4056,2.5174,0.0,0.0,2.9173,2.9603,3.2872,3.2925,3.2349,3.3609,3.1456,2.9055,2.9256,0.0,2.5354,2.5888,2.6367,2.6691,2.6691,2.6945,2.7725,2.9505,2.9446,0.0,3.4607,0.0,0.0,0.0,0.0,0.0,0.0,0.0,0.0,0.0,0.0,0.0,0.0,3.7729,3.6274,3.5783,3.2792,3.1826,3.3122,3.3171,3.3636,3.461,3.5213,3.5504,3.5504,3.5504,3.5279,3.4872,0.0,0.0,0.0,3.1815,3.1085,3.0816,3.0088,3.0324,3.1101,3.1472,3.1954,3.2339,0.0,0.0,0.0,0.0,0.0,1.5654,1.5842,1.6386,1.6753,1.6735,1.7232,1.7552,1.7551,1.7867,1.7619,1.6443,1.7066,0.0,0.0,0.0,0.0,0.0,0.0,0.0,0.0,0.0,1.66,1.6336,0.0,0.0,0.0,0.0,0.0,0.0,0.0,0.0,0.0,0.0,0.0,0.0,0.0,0.0,0.0,0.0,0.0,0.0,0.0,0.0,0.0,0.0,0.0,0.0,2.2703,2.343,2.4871,0.0,2.8522,2.9277,3.2684,3.3057,3.2645,3.341,3.1435,2.92,0.0,0.0,2.5125,2.5652,2.6016,2.6298,2.6453,2.6672,2.7419,2.9297,0.0,2.9931,3.3582,0.0,0.0,0.0,0.0,0.0,0.0,0.0,0.0,0.0,0.0,0.0,0.0,3.6058,3.4637,3.4442,3.1607,3.0881,3.2593,3.2593,3.3206,3.4461,3.5166,3.5504,3.5504,3.5504,3.5504,3.5472,0.0,0.0,0.0,3.2285,3.1462,3.1106,3.0177,3.024,3.095,3.1137,3.1308,3.133,0.0,0.0,0.0,0.0,0.0,0.0,1.6402,1.7011,1.7371,1.7308,1.7819,1.8163,1.8095,1.8106,1.8086,1.8086,1.8072,0.0,0.0,0.0,0.0,0.0,0.0,0.0,0.0,0.0,1.7544,1.8072,1.7544,1.7847,0.0,0.0,0.0,0.0,0.0,0.0,0.0,0.0,0.0,0.0,0.0,0.0,0.0,0.0,0.0,0.0,0.0,0.0,0.0,0.0,0.0,0.0,0.0,2.3122,2.4014,2.6033,2.734,2.8613,3.0922,3.1804,3.1994,3.1634,3.0046,2.8402,0.0,0.0,2.4572,2.5105,2.5221,2.5373,2.5906,2.6607,2.7651,2.9333,3.0196,0.0,3.3777,0.0,0.0,0.0,0.0,0.0,0.0,0.0,0.0,0.0,0.0,0.0,0.0,3.4589,3.2615,3.2629,3.0771,3.0696,3.2558,3.2593,3.3581,3.5472,3.5504,3.5504,3.5504,3.5504,3.5504,0.0,0.0,0.0,0.0,3.2996,3.2033,3.1106,3.0177,2.9972,3.0227,3.0214,3.0365,3.0508,0.0,0.0,0.0,0.0,0.0,0.0,1.6466,1.697,1.7326,1.7297,1.8091,1.8663,1.866,1.8968,1.9188,1.9188,1.8855,0.0,0.0,0.0,0.0,0.0,0.0,0.0,0.0,0.0,1.7927,1.8106,1.8302,1.8574,1.893,2.0165,2.1053,0.0,0.0,0.0,0.0,0.0,0.0,0.0,0.0,0.0,0.0,0.0,0.0,0.0,0.0,0.0,0.0,0.0,0.0,0.0,0.0,0.0,0.0,2.4238,2.5297,0.0,2.8904,2.9445,2.9376,2.9495,2.8368,2.704,2.6331,2.5249,2.445,2.4632,2.4934,2.5259,2.5411,2.594,2.696,2.8816,2.9774,0.0,0.0,0.0,0.0,0.0,0.0,0.0,0.0,0.0,0.0,0.0,0.0,0.0,0.0,3.4851,3.3567,3.3567,3.1756,3.1365,3.2593,3.3241,3.3891,3.4461,3.5166,3.5504,3.5504,3.5504,0.0,0.0,0.0,0.0,0.0,3.329,3.2429,3.1997,3.0432,2.9858,2.9972,3.0116,2.9892,2.9494,0.0,0.0,0.0,0.0,0.0,0.0,1.6774,1.7097,1.7442,1.7847,1.8496,1.8987,1.9188,1.9497,1.9708,1.9708,1.9387,0.0,0.0,0.0,0.0,0.0,0.0,0.0,1.8688,1.8516,1.8496,1.8688,1.8836,1.9006,1.9225,2.0449,2.118,2.1541,2.2565,0.0,0.0,0.0,0.0,0.0,0.0,0.0,1.9877,0.0,0.0,0.0,0.0,0.0,0.0,0.0,0.0,0.0,0.0,0.0,0.0,0.0,2.4179,2.5256,2.7006,2.7836,2.8151,2.7902,2.7178,0.0,0.0,2.4638,2.4095,2.4095,2.4565,2.5026,2.5173,2.6131,2.7342,2.8617,2.9904,0.0,0.0,0.0,0.0,0.0,0.0,0.0,0.0,0.0,0.0,0.0,0.0,0.0,0.0,0.0,3.4177,3.4543,3.2713,3.2177,3.3136,3.3705,3.4211,3.4576,3.5213,3.5504,3.5504,3.5504,0.0,0.0,0.0,0.0,0.0,3.3394,3.2593,3.2429,3.0533,2.9792,2.9819,2.9983,2.9718,2.929,0.0,0.0,0.0,0.0,0.0,0.0,0.0,1.7394,1.7767,1.8765,1.8968,1.9192,1.9693,1.9764,1.9782,1.9747,1.9764,0.0,0.0,0.0,0.0,0.0,0.0,0.0,1.9708,1.9207,1.9207,1.9708,1.9207,1.9207,1.9711,2.0582,2.1165,2.1513,2.2327,2.2708,2.2669,2.2249,2.1871,2.1597,2.1484,2.1022,0.0,0.0,0.0,0.0,0.0,0.0,0.0,0.0,0.0,0.0,0.0,0.0,0.0,0.0,0.0,0.0,0.0,2.6832,2.7849,2.6729,0.0,0.0,0.0,2.4059,0.0,2.3595,2.4096,2.4667,2.508,2.6858,2.8341,2.8613,0.0,0.0,0.0,0.0,0.0,0.0,0.0,0.0,0.0,0.0,0.0,0.0,0.0,0.0,0.0,0.0,3.4543,3.5472,3.3754,3.3206,3.4095,3.4095,3.4576,3.5504,3.5504,3.5504,3.5504,3.5504,0.0,0.0,0.0,0.0,0.0,3.3463,3.2664,3.2429,3.0608,2.9869,2.9792,2.9792,2.9792,2.9716,0.0,0.0,0.0,0.0,0.0,0.0,0.0,0.0,0.0,0.0,1.9528,2.0022,2.0158,2.0482,2.0549,0.0,0.0,0.0,0.0,0.0,0.0,0.0,0.0,0.0,1.9708,1.9584,1.9566,1.9708,1.9566,1.9584,1.9711,2.0582,2.1039,2.1165,2.2221,2.2708,2.2656,2.2003,2.1672,2.1567,2.1243,2.1007,0.0,0.0,0.0,0.0,1.9803,1.9442,0.0,0.0,0.0,0.0,0.0,0.0,0.0,0.0,2.3763,2.4328,2.5084,0.0,2.5277,2.4995,2.4563,2.4189,0.0,0.0,0.0,0.0,0.0,0.0,0.0,2.5879,0.0,0.0,0.0,0.0,0.0,0.0,0.0,0.0,0.0,0.0,0.0,0.0,0.0,0.0,0.0,0.0,0.0,0.0,3.5246,3.5504,3.5067,3.492,3.5133,3.5133,3.5279,3.5504,3.5504,3.5504,3.5504,3.5504,0.0,0.0,0.0,0.0,3.5392,3.4177,3.3241,3.25,3.1328,3.0419,2.9792,2.9792,2.9792,2.9882,0.0,0.0,0.0,0.0,0.0,0.0,0.0,0.0,0.0,0.0,2.0179,2.0616,2.0616,2.0845,2.0894,0.0,0.0,0.0,0.0,0.0,0.0,0.0,0.0,1.9708,1.9708,1.9708,1.9708,1.9708,1.9708,1.9708,1.9711,2.0364,2.0682,2.0715,2.1738,2.2374,2.2682,2.2441,2.233,2.2317,2.2269,0.0,0.0,0.0,0.0,0.0,1.9573,1.9151,0.0,1.8612,1.8688,1.9007,0.0,0.0,0.0,0.0,2.3722,2.4515,2.4906,2.4888,2.4712,2.4471,2.4163,2.3885,2.3659,2.3595,0.0,0.0,0.0,0.0,0.0,0.0,0.0,0.0,0.0,0.0,0.0,0.0,0.0,0.0,0.0,0.0,0.0,0.0,0.0,0.0,0.0,0.0,0.0,0.0,3.5504,3.5504,3.5504,3.5504,3.5504,3.5504,3.5504,3.5504,3.5504,3.5504,3.5504,3.5504,3.5504,0.0,0.0,0.0,3.5424,3.4428,3.3705,3.3136,3.2213,3.1549,3.1095,3.1095,3.1095,3.1055,0.0,0.0,0.0,0.0,0.0,0.0,0.0,0.0,0.0,0.0,0.0,0.0,0.0,0.0,0.0,0.0,0.0,0.0,0.0,0.0,0.0,0.0,1.9962,1.9708,1.9708,1.9708,1.9708,1.9708,1.9813,1.9813,1.9708,2.0214,2.0475,2.0517,2.132,2.206,2.2721,2.3057,2.32,2.3224,2.3511,0.0,0.0,0.0,0.0,0.0,0.0,0.0,0.0,1.8243,1.8444,1.8958,1.9459,0.0,0.0,0.0,0.0,0.0,2.4739,2.4855,2.4846,2.448,2.4348,2.4158,2.3702,2.3595,0.0,0.0,0.0,0.0,0.0,2.6888,0.0,0.0,0.0,0.0,0.0,0.0,0.0,0.0,0.0,0.0,0.0,0.0,0.0,0.0,0.0,0.0,0.0,0.0,0.0,3.5504,3.5504,3.5504,3.5504,3.5504,3.5504,3.5504,3.5504,3.5504,3.5504,3.5504,3.5504,0.0,0.0,0.0,3.5424,3.4576,3.4129,3.391,3.3136,3.2749,3.2593,3.2593,3.2593,3.2417,0.0,0.0,0.0,0.0,0.0,0.0,0.0,0.0,0.0,0.0,0.0,0.0,0.0,0.0,0.0,0.0,0.0,0.0,0.0,0.0,0.0,2.0894,2.0137,1.9708,1.9708,1.9708,1.9708,1.9708,2.0273,2.0258,1.9708,2.0689,2.1234,2.1413,2.1842,2.2293,2.2721,2.3057,2.32,2.32,2.3265,0.0,0.0,0.0,0.0,0.0,0.0,0.0,0.0,1.7967,1.8416,1.8919,1.9429,0.0,0.0,0.0,0.0,0.0,2.4477,2.4246,2.3779,2.429,2.4053,2.3702,2.3616,0.0,2.3595,0.0,0.0,0.0,0.0,2.7062,0.0,0.0,0.0,0.0,0.0,0.0,0.0,0.0,0.0,0.0,0.0,0.0,0.0,0.0,0.0,0.0,0.0,0.0,0.0,3.5504,3.5504,3.5504,3.5504,3.5504,3.5504,3.5504,3.5504,3.5504,3.5504,3.5504,3.5504,0.0,0.0,3.5504,3.5504,3.5326,3.4758,3.3993,3.3842,3.331,3.2593,3.2593,3.2593,3.2558,0.0,0.0,0.0,0.0,0.0,0.0,0.0,0.0,0.0,0.0,0.0,0.0,0.0,0.0,0.0,0.0,0.0,0.0,0.0,0.0,2.0991,2.0991,2.0172,1.9708,1.9708,1.9708,1.9887,2.0243,2.0183,2.0183,2.0262,2.0612,2.1034,2.1546,2.1924,2.2595,2.3407,2.3573,2.3738,2.3886,0.0,0.0,0.0,0.0,0.0,0.0,0.0,0.0,0.0,0.0,1.8168,1.8927,1.9685,0.0,0.0,0.0,0.0,0.0,2.2868,2.2883,2.2863,2.2923,2.3024,2.3122,2.3122,0.0,0.0,0.0,0.0,0.0,0.0,0.0,0.0,0.0,0.0,0.0,0.0,0.0,0.0,0.0,0.0,0.0,0.0,0.0,0.0,0.0,0.0,0.0,0.0,0.0,0.0,0.0,3.4951,3.4786,3.4412,3.4771,3.513,3.5504,3.5504,3.5504,3.5504,3.5504,3.5504,3.5504,0.0,3.5504,3.5504,3.5504,3.5246,3.4806,3.4806,3.4558,3.4158,3.4158,3.3822,3.3415,0.0,0.0,0.0,0.0,0.0,0.0,0.0,0.0,0.0,0.0,0.0,0.0,0.0,0.0,0.0,0.0,0.0,0.0,0.0,2.1569,2.1134,2.1134,2.0398,1.9925,1.9693,1.9708,2.0034,2.0703,2.0183,2.0239,2.0831,2.0537,2.0847,2.1659,2.2129,2.2922,2.3929,2.4053,2.4238,2.4409,0.0,0.0,0.0,0.0,0.0,0.0,0.0,0.0,0.0,0.0,0.0,0.0,0.0,0.0,0.0,2.1491,2.179,2.2021,2.1452,2.1633,2.1915,2.1573,0.0,0.0,0.0,0.0,0.0,0.0,0.0,0.0,0.0,0.0,0.0,0.0,0.0,0.0,0.0,0.0,0.0,0.0,0.0,0.0,0.0,0.0,0.0,0.0,0.0,0.0,0.0,0.0,0.0,0.0,3.5018,3.4699,3.4014,3.4501,3.4863,3.504,3.5518,3.5674,3.5524,3.5897,3.6022,3.6022,3.6022,3.593,3.5793,3.5961,3.593,3.5809,3.5961,3.6022,3.6037,3.5814,3.527,3.4684,0.0,0.0,0.0,0.0,0.0,0.0,0.0,0.0,0.0,0.0,0.0,0.0,0.0,0.0,0.0,0.0,0.0,0.0,0.0,2.1823,2.1552,2.1552,2.1134,2.0515,1.9726,1.9708,2.0034,2.0703,2.0643,2.0842,2.125,2.092,2.1237,2.2079,2.2743,2.3298,2.3749,2.4256,2.4365,2.4218,2.4062,0.0,0.0,0.0,0.0,0.0,0.0,0.0,0.0,0.0,0.0,0.0,0.0,0.0,2.1521,2.115,2.0763,2.0584,2.1151,2.1069,2.082,2.0782,2.1739,0.0,2.4186,2.5435,0.0,2.8085,0.0,0.0,0.0,0.0,0.0,0.0,0.0,0.0,0.0,0.0,0.0,0.0,0.0,0.0,0.0,0.0,0.0,0.0,0.0,0.0,0.0,0.0,0.0,0.0,0.0,3.619,3.5467,3.5498,3.4883,3.368,3.5615,3.6198,3.5641,3.7008,3.7648,3.7648,3.7648,3.7236,3.668,3.7348,3.7221,3.6695,3.7364,3.7648,3.7544,3.6798,3.6492,3.6337,0.0,0.0,0.0,0.0,0.0,0.0,0.0,0.0,0.0,0.0,0.0,0.0,0.0,0.0,0.0,0.0,0.0,0.0,0.0,2.163,2.1337,2.1582,2.1213,2.0715,2.0089,2.0072,2.0279,2.0703,2.0962,2.0939,2.0686,2.1323,2.1902,2.2435,2.3159,2.3744,2.4211,2.4408,2.4328,2.4024,2.3518,2.2564,0.0,0.0,0.0,0.0,0.0,0.0,0.0,0.0,1.8731,1.9614,2.0129,2.0732,2.1134,2.0699,2.0449,2.0308,2.0304,2.0734,2.1072,2.0592,2.2047,0.0,0.0,2.5978,2.7793,2.9748,3.1286,0.0,0.0,0.0,0.0,0.0,0.0,0.0,0.0,0.0,0.0,0.0,0.0,0.0,0.0,0.0,0.0,0.0,0.0,0.0,0.0,0.0,0.0,0.0,0.0,3.5075,3.4345,3.4777,3.4508,3.3595,3.5663,3.6298,3.5638,3.7122,3.7537,3.7121,3.7121,3.6961,3.671,3.7009,3.6961,3.6757,3.7505,3.7793,3.769,3.6904,3.6615,3.6492,0.0,0.0,0.0,0.0,0.0,0.0,0.0,0.0,0.0,0.0,0.0,0.0,0.0,0.0,0.0,0.0,0.0,0.0,2.2046,2.1507,2.1385,2.1794,2.1569,2.1134,2.0533,2.0516,2.0582,2.0703,2.1097,2.1103,2.0732,2.1663,2.2283,2.2659,2.3264,2.3741,2.4099,2.4274,2.4118,2.3692,2.3131,2.2023,0.0,0.0,0.0,0.0,0.0,0.0,0.0,0.0,1.8906,1.9656,2.0004,2.0431,2.0682,2.0244,2.0039,1.9933,1.9902,2.0426,2.0944,2.073,0.0,0.0,2.6091,2.7657,2.9557,3.196,3.3515,0.0,0.0,0.0,0.0,0.0,0.0,0.0,0.0,0.0,0.0,0.0,0.0,0.0,0.0,0.0,0.0,0.0,0.0,0.0,0.0,0.0,0.0,0.0,0.0,3.4944,3.4227,3.4691,3.4691,3.4243,3.5929,3.6366,3.569,3.7172,3.7557,3.7085,3.7085,3.6955,3.6765,3.7232,3.7568,3.7829,3.8318,3.853,3.8402,3.7352,3.6964,3.6828,0.0,0.0,0.0,0.0,0.0,0.0,0.0,0.0,0.0,0.0,0.0,0.0,0.0,0.0,0.0,0.0,0.0,0.0,2.1597,2.1613,2.1809,2.2282,2.2296,2.1886,2.1007,2.1007,2.0892,2.0707,2.11,2.1396,2.1613,2.1943,2.2317,2.2721,2.3057,2.32,2.3236,2.3771,2.3679,2.3171,2.2953,2.1993,2.0399,0.0,0.0,0.0,0.0,0.0,0.0,0.0,1.9218,1.9603,1.9678,1.9965,2.0227,1.9836,1.9457,1.9363,2.0111,2.0113,2.0204,0.0,0.0,0.0,2.9307,3.0859,3.2353,3.4889,0.0,3.4837,3.3646,0.0,0.0,0.0,0.0,0.0,0.0,0.0,0.0,0.0,0.0,0.0,0.0,0.0,0.0,0.0,0.0,0.0,0.0,0.0,0.0,0.0,0.0,0.0,3.56,3.56,3.56,3.56,3.64,3.6417,3.5745,3.723,3.7905,3.7889,3.7889,3.7483,3.6914,3.8386,3.9436,4.0096,4.0096,4.0096,3.9901,3.8374,3.7793,3.756,0.0,0.0,0.0,0.0,0.0,0.0,0.0,0.0,0.0,0.0,0.0,0.0,0.0,0.0,0.0,0.0,0.0,0.0,2.1552,2.1337,2.1507,2.2268,2.1988,2.1553,2.1007,2.0682,2.0474,2.0413,2.0863,2.1263,2.1612,2.2224,2.2587,2.2721,2.3057,2.32,2.3212,2.3379,2.3053,2.2363,2.1635,2.0272,1.8463,0.0,0.0,0.0,0.0,0.0,0.0,0.0,0.0,0.0,1.9693,1.9782,1.9856,1.9744,1.9828,2.0067,2.054,2.152,0.0,2.3193,0.0,0.0,0.0,3.2509,0.0,0.0,0.0,0.0,0.0,0.0,0.0,0.0,0.0,0.0,0.0,0.0,0.0,0.0,0.0,0.0,0.0,0.0,0.0,0.0,0.0,0.0,0.0,0.0,0.0,0.0,0.0,0.0,3.56,3.56,3.56,3.56,3.5836,3.583,3.5685,3.7202,3.7618,3.7134,3.7134,3.7015,3.6829,3.7269,3.82,3.9326,3.9326,3.9303,3.9139,3.8149,3.7456,3.6828,0.0,0.0,0.0,0.0,0.0,0.0,0.0,0.0,0.0,0.0,0.0,0.0,0.0,0.0,0.0,0.0,0.0,0.0,0.0,2.0862,2.1039,2.1751,2.1507,2.1166,2.0732,2.0449,2.0399,2.0583,2.1023,2.1353,2.1612,2.206,2.2183,2.204,2.2398,2.2556,2.257,2.288,2.2456,2.1525,2.0847,1.9447,1.7604,0.0,0.0,0.0,0.0,0.0,0.0,0.0,0.0,0.0,1.9708,1.9708,1.9666,1.9537,1.966,2.0003,2.0781,2.1794,0.0,2.4379,2.7037,2.9869,3.2082,0.0,0.0,0.0,0.0,0.0,0.0,0.0,0.0,0.0,0.0,0.0,0.0,0.0,0.0,0.0,0.0,0.0,0.0,0.0,0.0,0.0,0.0,0.0,0.0,0.0,0.0,0.0,0.0,0.0,3.592,3.592,3.5827,3.56,3.56,3.5447,3.5194,3.6411,3.6586,3.5898,3.5898,3.6045,3.6349,3.6677,3.7492,3.8514,3.8514,3.85,3.8358,3.7616,3.7024,3.6492,0.0,0.0,0.0,0.0,0.0,0.0,0.0,0.0,0.0,0.0,2.0878,0.0,0.0,0.0,0.0,0.0,0.0,0.0,0.0,2.0348,2.055,2.0975,2.0959,2.0747,2.0314,2.0348,2.0583,2.1039,2.1414,2.1597,2.1597,2.1597,2.1432,2.1167,2.1543,2.1726,2.1817,2.2422,2.1907,2.0654,2.0341,1.9127,1.7352,1.6306,0.0,0.0,0.0,0.0,0.0,0.0,0.0,0.0,1.969,1.9708,1.9644,1.9369,1.926,1.9547,2.1056,0.0,0.0,2.5015,2.7224,0.0,3.3053,0.0,0.0,0.0,0.0,0.0,0.0,0.0,0.0,0.0,0.0,0.0,0.0,0.0,0.0,0.0,0.0,0.0,0.0,0.0,0.0,0.0,0.0,0.0,0.0,0.0,0.0,0.0,0.0,0.0,3.6478,3.6416,3.6126,0.0,3.552,3.5115,3.4421,3.5143,3.5115,3.4387,3.4455,3.4878,3.5566,3.6434,3.7142,3.7702,3.7768,3.7768,3.7602,3.6873,3.6554,3.6415,0.0,0.0,0.0,0.0,0.0,0.0,0.0,0.0,0.0,0.0,0.0,0.0,0.0,0.0,0.0,0.0,0.0,0.0,0.0,2.0633,2.0894,2.1007,2.0649,2.0399,2.0297,2.0649,2.1055,2.1476,2.1552,2.1597,2.1597,2.1597,2.1863,2.2342,2.242,2.2669,2.3007,2.2789,2.152,1.9576,1.9099,1.7648,1.5775,1.6029,1.616,0.0,0.0,0.0,0.0,0.0,0.0,0.0,1.9566,1.9708,1.9752,1.9991,2.0051,2.0425,2.2163,2.2666,0.0,0.0,2.8063,3.0815,3.3635,0.0,0.0,0.0,0.0,0.0,0.0,0.0,0.0,0.0,0.0,0.0,0.0,0.0,0.0,0.0,0.0,0.0,0.0,0.0,0.0,0.0,0.0,0.0,0.0,0.0,0.0,0.0,0.0,3.6863,3.702,3.6603,3.606,0.0,3.4925,3.4353,3.366,3.4404,3.4336,3.3677,3.4252,3.459,3.4844,3.6237,3.6841,3.6995,3.7571,3.7419,3.6843,3.6661,3.6228,3.5701,0.0,0.0,0.0,0.0,0.0,0.0,0.0,0.0,0.0,0.0,0.0,0.0,0.0,0.0,0.0,0.0,0.0,0.0,0.0,0.0,2.0582,2.0396,2.0139,2.0089,2.0297,2.0764,2.1197,2.1597,2.1597,2.1491,2.1323,2.1632,2.1714,2.1584,2.2491,2.2655,2.2269,2.2606,2.1255,1.8874,1.8523,1.717,1.5472,1.583,1.6384,1.7083,1.805,0.0,0.0,0.0,0.0,0.0,0.0,0.0,1.9704,1.9757,2.0111,2.0779,2.2156,0.0,0.0,2.5421,0.0,3.0004,3.1216,0.0,0.0,0.0,0.0,0.0,0.0,0.0,0.0,0.0,0.0,0.0,0.0,0.0,0.0,0.0,0.0,0.0,0.0,0.0,0.0,0.0,0.0,0.0,0.0,0.0,0.0,0.0,3.6503,3.6477,3.6381,3.6112,3.5547,3.4716,3.4432,3.3809,3.2882,3.3275,3.3241,3.2899,3.3643,3.3792,3.3668,3.588,3.634,3.578,3.7241,3.7307,3.6646,3.7024,3.6935,3.6538,0.0,0.0,0.0,0.0,0.0,0.0,0.0,0.0,0.0,0.0,0.0,0.0,0.0,0.0,0.0,0.0,0.0,0.0,0.0,0.0,0.0,1.9836,1.9803,2.0,2.0416,2.0862,2.126,2.1597,2.1597,2.1353,2.0894,2.1661,2.1589,2.0872,2.2545,2.269,2.1697,2.2445,2.1113,1.8527,1.8268,1.7145,1.5669,1.5956,1.686,1.8102,1.8855,0.0,0.0,0.0,0.0,0.0,0.0,0.0,1.9937,1.9678,2.0214,2.11,2.2062,0.0,2.387,2.5132,2.672,0.0,0.0,0.0,0.0,0.0,0.0,0.0,0.0,0.0,0.0,0.0,0.0,0.0,0.0,0.0,0.0,0.0,0.0,0.0,0.0,0.0,0.0,0.0,0.0,0.0,0.0,0.0,3.5936,3.6064,3.6083,3.5911,3.5514,3.5432,3.4888,3.3917,3.3699,3.3085,3.2107,3.1989,3.2094,3.2344,3.3085,3.316,3.2971,3.5676,3.6034,3.5063,3.7041,3.7375,3.6889,3.7544,3.7793,3.769,0.0,0.0,0.0,0.0,0.0,0.0,0.0,0.0,0.0,0.0,0.0,0.0,0.0,0.0,0.0,0.0,0.0,0.0,0.0,0.0,0.0,2.0212,2.0212,2.0448,2.0894,2.1306,2.1536,2.1597,2.1597,2.1181,2.0414,2.1561,2.2354,2.2848,2.3667,2.4139,2.4224,2.3034,2.1085,1.8707,1.8162,1.6907,1.5515,1.7026,1.8081,1.8892,2.0037,0.0,0.0,0.0,2.1325,0.0,0.0,0.0,0.0,2.1246,2.1424,2.1875,0.0,0.0,2.4364,0.0,2.4688,2.4739,0.0,0.0,0.0,0.0,0.0,0.0,0.0,0.0,0.0,0.0,0.0,0.0,0.0,0.0,0.0,0.0,0.0,0.0,0.0,0.0,0.0,0.0,0.0,0.0,0.0,3.4137,3.4449,3.5151,3.5169,3.5309,3.5578,3.513,3.434,3.3234,3.2119,3.1506,3.1343,3.0808,3.1204,3.2344,3.3085,3.3729,3.4331,3.6017,3.6586,3.6501,3.7447,3.7726,3.7661,3.7748,3.7793,3.769,0.0,0.0,0.0,0.0,0.0,0.0,0.0,0.0,0.0,0.0,0.0,0.0,0.0,0.0,0.0,0.0,0.0,0.0,0.0,0.0,0.0,2.0314,2.0297,2.0633,2.1322,2.1291,2.1368,2.1597,2.0862,2.0605,2.0885,2.1554,2.214,2.2628,2.3787,2.4137,2.3813,2.3294,2.1596,1.9193,1.8678,1.7714,1.6658,1.7222,1.8646,2.0419,2.1235,0.0,0.0,0.0,0.0,0.0,0.0,0.0,0.0,0.0,2.2401,0.0,2.3752,2.3959,2.384,0.0,2.3606,2.3722,0.0,0.0,0.0,0.0,0.0,0.0,0.0,0.0,0.0,0.0,0.0,0.0,0.0,0.0,0.0,0.0,0.0,0.0,0.0,0.0,0.0,0.0,0.0,0.0,3.3825,3.3807,3.3858,3.3989,3.3993,3.3946,3.3861,3.3628,3.3125,3.2363,3.1581,3.1234,3.1254,3.0988,3.1191,3.1753,3.2166,3.2724,3.3487,3.5368,3.5872,3.5625,3.7186,3.7793,3.7835,3.8246,3.8707,3.8968,0.0,0.0,0.0,0.0,0.0,0.0,0.0,0.0,0.0,0.0,0.0,0.0,0.0,0.0,0.0,0.0,0.0,0.0,0.0,0.0,0.0,2.0331,2.0501,2.0878,2.143,2.1244,2.1134,2.1086,2.0081,1.9984,2.0697,2.1229,2.1751,2.2246,2.3733,2.4049,2.342,2.3338,2.2098,2.0119,1.9555,1.8841,1.8125,1.8044,1.9391,2.1484,2.2366,0.0,0.0,0.0,0.0,0.0,0.0,0.0,0.0,0.0,0.0,0.0,0.0,0.0,2.3242,2.2733,2.2859,2.3122,0.0,0.0,0.0,0.0,0.0,0.0,0.0,0.0,0.0,0.0,0.0,0.0,0.0,0.0,0.0,0.0,0.0,0.0,0.0,0.0,0.0,0.0,0.0,0.0,3.3648,3.3652,3.3465,3.3029,3.3014,3.2793,3.2333,3.2406,3.2369,3.2207,3.1738,3.1529,3.1555,3.1248,3.1186,3.1357,3.1807,3.2357,3.3076,3.4904,3.5398,3.523,3.7089,3.7793,3.7892,3.887,3.9332,3.9454,0.0,0.0,0.0,0.0,0.0,0.0,0.0,0.0,0.0,0.0,0.0,0.0,2.3257,2.2733,2.2581,2.3274,2.2699,2.193,2.1071,2.1353,2.1197,2.0348,2.1086,0.0,2.1039,2.1384,2.0959,1.9695,1.9624,1.9401,1.9059,2.0353,2.1456,2.2434,2.3809,2.4363,2.4261,2.3194,2.2372,2.1708,2.084,2.0141,1.9666,2.0278,0.0,0.0,0.0,0.0,0.0,0.0,0.0,0.0,0.0,0.0,0.0,0.0,0.0,0.0,0.0,2.3038,0.0,2.2436,0.0,0.0,0.0,0.0,0.0,0.0,0.0,0.0,0.0,0.0,0.0,0.0,0.0,0.0,0.0,0.0,0.0,0.0,0.0,0.0,0.0,0.0,0.0,0.0,0.0,0.0,3.3258,3.3229,3.3014,3.255,3.2534,3.2298,3.1843,3.2151,3.2659,3.3309,3.2636,3.234,3.2305,3.109,3.0846,3.1477,3.2823,3.3781,3.4465,3.5208,3.5904,3.6599,3.7469,3.7793,3.7978,3.948,3.9146,3.8007,0.0,0.0,0.0,0.0,0.0,0.0,0.0,0.0,0.0,0.0,0.0,0.0,0.0,2.275,2.2598,2.3325,2.2733,2.193,2.1071,2.1368,2.1353,2.0764,2.1306,2.1521,2.1384,2.0943,2.0338,1.9588,1.9001,1.922,2.0186,2.0231,2.1302,2.3182,2.3673,2.4266,2.4855,2.4106,2.3434,2.2768,2.1739,2.1201,2.0987,0.0,0.0,0.0,0.0,0.0,0.0,0.0,0.0,0.0,0.0,0.0,0.0,0.0,0.0,0.0,0.0,0.0,0.0,2.2599,0.0,0.0,0.0,0.0,0.0,0.0,0.0,0.0,0.0,0.0,0.0,0.0,0.0,0.0,0.0,0.0,0.0,0.0,0.0,0.0,0.0,0.0,0.0,0.0,0.0,0.0,3.2759,3.2745,3.255,3.2074,3.2545,3.2812,3.2824,3.2947,3.2929,3.2752,3.2512,3.2172,3.1744,3.1275,3.1459,3.2169,3.3096,3.3631,3.3925,3.4576,3.5273,3.5926,3.6227,3.6615,3.7174,3.8234,3.8569,3.8553,0.0,0.0,0.0,0.0,0.0,0.0,0.0,0.0,0.0,2.1809,0.0,0.0,0.0,0.0,2.3165,2.3469,2.3051,2.2285,2.1162,2.1504,2.1439,2.0797,2.1165,2.1436,2.1488,2.0883,2.0281,1.9701,1.9301,1.962,2.0563,2.072,2.1706,2.3317,2.3704,2.4056,2.4343,2.4124,0.0,2.3104,0.0,0.0,2.2525,0.0,0.0,0.0,0.0,0.0,0.0,0.0,0.0,0.0,0.0,0.0,0.0,0.0,0.0,0.0,2.2892,0.0,0.0,0.0,0.0,0.0,0.0,0.0,0.0,0.0,0.0,0.0,0.0,0.0,0.0,0.0,0.0,0.0,0.0,0.0,0.0,0.0,0.0,0.0,0.0,0.0,0.0,0.0,0.0,0.0,3.1894,3.2124,3.2161,3.1982,3.2479,3.3094,3.3761,3.3778,3.3672,3.3461,3.3255,3.2885,3.2442,3.2226,3.2378,3.2871,3.3305,3.3499,3.3575,3.4468,3.5121,3.5593,3.6076,3.6581,3.7144,3.8189,3.8569,3.8553,0.0,0.0,0.0,0.0,0.0,0.0,0.0,0.0,2.1827,2.2271,0.0,0.0,0.0,0.0,0.0,2.3753,2.3704,2.3041,2.1435,2.1757,2.1492,2.0393,2.0764,2.1097,2.1303,2.1286,2.0833,1.9923,2.0578,2.0592,2.0016,2.1783,2.265,2.2801,2.3912,2.3759,2.271,0.0,2.3127,2.2752,0.0,2.3238,2.4215,0.0,0.0,0.0,2.7949,2.8492,0.0,0.0,0.0,0.0,0.0,0.0,0.0,0.0,0.0,0.0,0.0,0.0,0.0,0.0,0.0,0.0,0.0,0.0,0.0,0.0,0.0,0.0,0.0,0.0,0.0,0.0,0.0,0.0,0.0,0.0,0.0,0.0,0.0,0.0,0.0,0.0,0.0,0.0,0.0,3.1152,3.0699,3.1409,3.1963,3.233,3.2344,3.3072,3.4506,3.4556,3.4929,3.5571,3.4917,3.4589,3.4454,3.3789,3.3469,3.3499,3.3469,3.3454,3.3576,3.4941,3.5548,3.5741,3.7221,3.7785,3.7946,3.9506,3.9086,3.7857,0.0,0.0,0.0,0.0,0.0,2.1974,2.2092,2.2557,2.2954,0.0,0.0,0.0,2.522,2.5304,2.4875,2.3803,2.3704,2.3218,2.2112,2.2023,2.1713,2.1058,2.1016,2.1097,2.1303,2.0914,2.0699,2.0605,2.0803,2.1226,2.1854,2.2316,2.2944,2.3723,2.409,2.3483,2.2292,2.3973,0.0,2.4204,2.3874,2.3929,0.0,0.0,0.0,0.0,0.0,2.6386,2.7036,0.0,2.7608,2.8585,0.0,0.0,0.0,0.0,0.0,0.0,2.3031,0.0,0.0,0.0,0.0,0.0,0.0,0.0,0.0,0.0,0.0,0.0,0.0,0.0,0.0,0.0,0.0,0.0,0.0,0.0,0.0,0.0,0.0,0.0,0.0,0.0,0.0,0.0,2.9302,3.0093,3.0266,3.1472,3.2451,3.3068,3.3609,3.4336,3.5301,3.5859,3.5721,3.4874,3.5246,3.4826,3.3759,3.2867,3.2851,3.3454,3.2788,3.2586,3.2931,3.4817,3.5592,3.5758,3.7224,3.7468,3.7187,3.8673,3.8292,3.703,0.0,0.0,0.0,0.0,0.0,2.2868,2.3173,2.3579,2.3864,0.0,0.0,0.0,2.5681,2.5933,2.5581,2.4432,2.4328,2.3804,2.2546,2.2358,2.204,2.1503,2.136,2.1469,2.1881,2.1581,2.1479,2.1643,2.2127,2.2407,2.2534,2.3305,2.3726,2.3827,2.4229,2.3753,2.2762,0.0,0.0,0.0,2.3587,0.0,0.0,2.4104,2.4422,0.0,0.0,0.0,2.7257,2.626,2.6778,0.0,0.0,0.0,0.0,0.0,0.0,0.0,0.0,0.0,0.0,0.0,0.0,0.0,0.0,2.4559,0.0,0.0,0.0,0.0,0.0,0.0,0.0,0.0,0.0,0.0,0.0,0.0,0.0,0.0,0.0,0.0,0.0,0.0,0.0,0.0,2.8253,2.9654,3.0516,3.1667,3.2649,3.3389,3.4117,3.5013,3.6096,3.6575,3.6347,3.5463,3.5906,3.5274,3.3677,3.2901,3.2641,3.2742,3.1679,3.1504,3.2107,3.3931,3.5065,3.5827,3.728,3.798,3.8181,3.8754,3.8387,3.7541,0.0,0.0,2.2632,2.3291,2.346,2.3731,2.4406,2.4558,2.4626,0.0,2.4846,2.5272,2.6002,2.6401,2.6245,2.5278,2.5163,2.4461,2.2885,2.2733,2.2433,2.1829,2.1739,2.1994,2.2688,2.275,2.2804,2.2897,2.391,2.3833,2.2793,2.4475,2.4673,2.36,2.445,0.0,0.0,0.0,0.0,2.3259,2.2792,2.3663,0.0,0.0,2.5894,0.0,2.7327,2.7807,2.7649,2.5838,2.5672,0.0,0.0,0.0,0.0,0.0,2.4279,0.0,0.0,0.0,0.0,0.0,0.0,0.0,2.4964,2.4697,2.4477,0.0,0.0,0.0,0.0,0.0,0.0,0.0,0.0,0.0,0.0,0.0,0.0,0.0,0.0,0.0,0.0,0.0,2.549,2.549,2.7673,2.9565,3.0909,3.1898,3.2713,3.3389,3.4184,3.5318,3.6795,3.688,3.6904,3.6834,3.683,3.5858,3.4018,3.3369,3.2482,3.1439,3.0259,3.0189,3.1014,3.2549,3.4164,3.5825,3.7402,3.8768,3.9783,3.9201,3.8838,3.8444,0.0,2.2784,2.3224,2.3376,2.3898,2.4321,2.4474,2.5,2.5389,2.5389,2.5932,2.6387,2.6556,2.6314,2.5872,2.5259,2.4812,2.4241,2.3458,2.2972,2.2643,2.2508,2.1999,2.1994,2.2688,2.3071,2.3543,2.408,2.436,2.4654,2.4975,2.5025,2.4892,2.4649,2.5407,2.5016,0.0,0.0,0.0,2.4551,2.4488,0.0,2.4786,2.4557,2.4492,2.4547,2.4693,2.4792,2.4842,0.0,2.519,2.5725,0.0,0.0,0.0,0.0,0.0,0.0,0.0,0.0,0.0,0.0,0.0,0.0,2.5398,2.5737,2.5778,0.0,0.0,0.0,0.0,0.0,0.0,0.0,0.0,0.0,0.0,0.0,0.0,0.0,0.0,0.0,0.0,0.0,2.4711,2.4711,2.7385,2.9198,2.9646,3.1916,3.3254,3.3406,3.4687,3.5842,3.6795,3.7381,3.766,3.7588,3.7581,3.6449,3.4269,3.2763,3.1196,2.9568,2.86,2.8445,2.9088,3.1048,3.3072,3.5186,3.7778,3.8599,3.8374,3.8759,3.8173,3.6993,0.0,2.3427,2.4068,2.4425,2.4797,2.5088,2.523,2.5547,2.5695,2.5435,2.6025,2.6578,2.6865,2.6705,2.6512,2.6278,2.5679,2.5082,2.453,2.3899,2.3539,2.3539,2.2983,2.2802,2.3152,2.3374,2.3896,2.4697,2.5108,2.5321,2.5363,2.5691,2.5413,2.4666,2.5179,2.4994,0.0,0.0,2.5508,2.5387,2.4718,0.0,2.4995,2.449,2.4266,2.4235,2.4471,2.453,2.4492,2.439,2.5015,0.0,0.0,2.5946,2.6085,0.0,2.6435,2.602,0.0,0.0,0.0,2.811,0.0,0.0,0.0,2.6661,2.6405,0.0,0.0,0.0,0.0,0.0,0.0,0.0,0.0,0.0,0.0,0.0,0.0,0.0,0.0,0.0,0.0,0.0,2.4965,2.6065,2.7927,2.9203,2.966,3.2045,3.3406,3.3406,3.4822,3.5994,3.6795,3.7533,3.7885,3.7801,3.8171,3.6732,3.374,3.2254,3.021,2.7863,2.7118,2.7195,2.7925,2.9681,3.1475,3.3472,3.667,3.7475,3.6933,3.7574,3.6928,3.5696,2.3659,2.422,2.4866,2.5344,2.558,2.5749,2.5984,2.6013,2.5919,2.5737,2.6047,2.6512,2.7055,2.6886,2.6699,2.6599,2.5966,2.5453,2.5155,2.4641,2.4349,2.4318,2.3956,2.3642,2.343,2.3642,2.4194,2.5038,2.5765,2.5915,2.5564,2.6458,2.6162,2.4848,2.508,2.5163,0.0,0.0,0.0,2.5951,0.0,2.491,2.5692,2.4963,2.4707,2.4734,2.5056,2.5147,2.5042,2.4496,0.0,2.612,2.5767,2.6363,0.0,0.0,0.0,0.0,0.0,0.0,0.0,0.0,0.0,2.8353,0.0,0.0,0.0,0.0,0.0,0.0,0.0,0.0,0.0,0.0,0.0,0.0,0.0,0.0,0.0,0.0,0.0,0.0,0.0,0.0,2.5379,2.7338,2.8228,2.8982,2.9736,3.1832,3.3132,3.3406,3.4687,3.5887,3.6922,3.7687,3.8152,3.8346,3.8785,3.7162,3.3712,3.2508,3.0352,2.7497,2.7242,2.7468,2.8164,2.9437,3.0602,3.1899,3.4987,3.5968,3.5664,3.6155,3.5628,3.4709,2.4567,2.4966,2.5361,2.4961,2.5471,2.5968,2.5997,2.6013,2.637,2.7377,2.6992,2.6776,2.7155,0.0,0.0,0.0,0.0,0.0,2.4119,0.0,2.4111,2.4058,2.4201,2.3835,2.2808,2.3784,2.4597,2.5186,2.5861,2.6503,2.7153,2.7447,2.7171,2.6432,2.6521,0.0,0.0,0.0,2.6558,0.0,2.5958,2.6349,0.0,2.582,2.5712,2.6061,2.5285,2.5232,2.552,0.0,2.5769,2.6355,0.0,2.6308,0.0,0.0,0.0,0.0,0.0,0.0,0.0,0.0,2.9272,0.0,0.0,0.0,0.0,0.0,0.0,0.0,0.0,0.0,0.0,0.0,0.0,0.0,0.0,0.0,0.0,0.0,0.0,0.0,0.0,0.0,2.5208,2.6298,2.7074,2.7807,2.8543,3.0532,3.2179,3.3368,3.4201,3.5509,3.7396,3.8221,3.9164,4.0266,3.9633,3.8052,3.5663,3.4775,3.2975,3.0535,3.1199,3.1378,3.1246,3.1991,3.2039,3.1773,3.3415,3.4359,3.4819,3.4895,3.4834,3.4486,2.5254,2.5727,2.6168,2.595,2.6167,2.6314,2.6033,2.5726,2.5987,2.7225,2.6821,0.0,0.0,0.0,0.0,0.0,0.0,2.4745,0.0,0.0,2.5021,2.5768,2.4973,2.4639,2.4897,2.4661,2.503,2.6067,2.6857,2.7422,2.776,2.8316,2.7927,2.6765,2.6827,0.0,2.5976,0.0,0.0,0.0,0.0,0.0,0.0,2.5662,2.5533,2.6124,2.5348,2.5725,2.6413,0.0,2.6047,0.0,0.0,0.0,0.0,0.0,0.0,0.0,0.0,0.0,0.0,0.0,0.0,0.0,0.0,0.0,2.876,0.0,0.0,0.0,0.0,0.0,0.0,0.0,0.0,0.0,0.0,0.0,0.0,0.0,0.0,0.0,0.0,0.0,0.0,0.0,0.0,2.7443,2.7753,3.007,3.1648,3.2217,3.3713,3.504,3.6208,3.7862,3.9114,3.9967,4.0704,3.9744,3.72,3.6551,3.4818,3.2334,3.2352,3.2166,3.181,3.1873,3.1773,3.1637,3.1789,3.2233,3.2887,3.3188,3.2823,3.2094,2.5765,0.0,0.0,2.6315,2.6419,2.6384,2.6049,2.5944,0.0,0.0,0.0,0.0,2.8991,2.7801,0.0,0.0,2.5379,2.4996,0.0,0.0,2.5315,0.0,0.0,0.0,0.0,2.5277,2.5687,2.686,2.763,2.8175,2.8499,2.8995,2.8475,2.7129,0.0,2.6484,2.5804,0.0,0.0,2.6953,2.6896,2.6778,2.6563,2.5502,2.5533,2.6098,2.5808,2.6454,2.7255,2.5804,2.6558,0.0,2.6995,0.0,0.0,0.0,0.0,0.0,2.8877,0.0,0.0,0.0,0.0,0.0,0.0,0.0,0.0,0.0,0.0,0.0,0.0,0.0,0.0,0.0,0.0,0.0,0.0,0.0,0.0,0.0,0.0,0.0,0.0,0.0,0.0,0.0,2.5675,2.6604,2.6782,2.9023,3.0561,3.1068,3.2745,3.4181,3.5292,3.73,3.8833,3.9906,4.1432,4.1015,3.8857,3.8645,3.7133,3.4673,3.4336,3.39,3.3407,3.2576,3.2159,3.1943,3.1213,3.1058,3.1304,3.1634,3.098,2.9984,2.6036,2.6015,0.0,0.0,0.0,2.6031,2.6013,0.0,0.0,0.0,0.0,0.0,0.0,0.0,0.0,0.0,0.0,2.2968,2.3359,0.0,2.4331,0.0,0.0,2.6013,0.0,0.0,2.6732,2.7267,2.7758,2.8599,2.9744,2.944,2.8826,2.7931,2.7282,2.6836,2.6541,2.6264,2.5932,2.5508,2.4784,2.4313,2.4174,0.0,2.617,2.6296,2.6974,0.0,0.0,2.7738,2.7491,0.0,0.0,0.0,0.0,0.0,0.0,0.0,0.0,0.0,0.0,3.0572,0.0,0.0,0.0,0.0,2.9696,0.0,0.0,0.0,0.0,0.0,0.0,0.0,0.0,0.0,0.0,0.0,0.0,0.0,0.0,0.0,0.0,0.0,0.0,2.4491,2.4555,2.4842,2.5433,2.6782,2.8385,3.0282,3.1078,3.2723,3.5275,3.6647,3.8528,4.0864,4.1504,4.1469,4.0825,4.1397,4.0398,3.8243,3.8355,3.8026,3.7271,3.5455,3.4031,3.3002,3.2297,3.1457,3.0604,3.042,2.9797,2.899,0.0,0.0,0.0,0.0,0.0,0.0,0.0,2.822,0.0,0.0,0.0,0.0,0.0,0.0,2.5209,0.0,0.0,2.345,2.3367,2.4663,0.0,0.0,0.0,2.6795,0.0,0.0,0.0,0.0,0.0,2.8402,2.9797,2.9276,2.8698,2.8025,0.0,2.64,0.0,0.0,0.0,0.0,0.0,2.4357,2.4681,0.0,0.0,2.5493,2.6193,2.6388,0.0,2.6231,2.6488,2.6742,2.6476,2.6662,2.7155,2.797,2.8209,0.0,0.0,0.0,2.9706,3.0413,0.0,0.0,0.0,0.0,0.0,0.0,0.0,0.0,0.0,0.0,0.0,0.0,0.0,0.0,0.0,0.0,0.0,0.0,0.0,0.0,0.0,0.0,0.0,2.203,2.3202,2.3745,0.0,2.546,2.6935,2.7515,2.9571,3.1748,3.3946,3.6197,3.8115,3.974,4.1259,4.1662,4.1077,4.2159,4.0691,3.7272,3.7138,3.5569,3.3026,3.2066,3.1455,3.1049,3.11,3.0562,2.9816,2.974,2.9538,2.9158,2.5974,0.0,0.0,0.0,0.0,0.0,0.0,0.0,0.0,0.0,2.8718,0.0,2.821,0.0,2.5216,0.0,2.382,2.3501,2.3132,2.4179,0.0,2.4303,2.5898,0.0,0.0,0.0,0.0,0.0,0.0,2.8802,3.0228,2.9141,2.8356,2.7835,0.0,2.5772,2.492,0.0,2.4718,0.0,0.0,2.3736,0.0,0.0,2.4388,2.5652,0.0,2.5779,2.5678,2.5476,2.5742,2.6135,2.5907,2.6347,2.7119,2.797,2.8393,2.8638,2.8932,2.9207,0.0,3.0764,3.1022,0.0,3.2333,0.0,0.0,0.0,0.0,0.0,0.0,0.0,0.0,0.0,0.0,0.0,0.0,0.0,0.0,0.0,0.0,0.0,0.0,0.0,2.0943,2.0819,2.2099,2.2457,0.0,0.0,2.4731,2.5054,2.7127,2.9423,3.1891,3.4054,3.5983,3.7667,3.9853,4.0753,4.0589,4.2062,3.9919,3.4994,3.4924,3.2721,2.9179,2.883,2.8884,2.9295,2.9526,2.9123,2.8437,2.9171,2.9074,2.8602,0.0,0.0,0.0,0.0,2.8645,0.0,0.0,0.0,3.0419,0.0,2.9629,2.8792,2.8814,2.7006,2.5392,2.4424,2.3614,0.0,2.2569,2.2837,0.0,0.0,2.4541,2.5091,2.4271,0.0,0.0,0.0,0.0,0.0,3.0968,2.9,2.7851,2.7377,2.5913,0.0,2.4523,2.387,2.3337,2.2934,2.247,2.2497,2.276,2.2699,0.0,2.6548,2.5698,2.5659,2.5898,2.5521,2.5393,2.554,2.6355,2.6098,2.5962,2.8271,2.8429,2.8026,2.8785,2.9555,3.0403,3.1518,0.0,0.0,0.0,0.0,3.166,0.0,0.0,0.0,0.0,0.0,0.0,0.0,0.0,0.0,0.0,0.0,0.0,0.0,0.0,0.0,0.0,2.0841,2.1301,2.0795,2.1235,2.0974,0.0,0.0,2.1893,2.293,2.3853,2.5878,2.9135,3.045,3.2351,3.4847,3.7349,3.8839,3.9419,4.1113,3.821,3.1792,3.1968,2.9779,2.6044,2.5935,2.6626,2.7758,2.781,2.7267,2.6717,2.8596,2.8411,2.7326,2.7207,2.8404,2.9726,0.0,3.1036,3.0872,0.0,0.0,0.0,0.0,2.8382,2.7018,2.6384,2.5085,2.4064,2.3543,2.3037,0.0,0.0,0.0,0.0,2.1853,2.3747,2.4491,2.3797,2.5203,0.0,2.8429,0.0,0.0,2.9726,2.8322,2.7317,2.6637,0.0,0.0,2.4189,2.346,2.2892,2.2473,2.2346,2.285,0.0,0.0,2.3374,2.4664,2.4302,2.4068,2.4098,2.5074,2.5393,2.554,2.6355,2.6869,2.7321,2.7934,2.8393,2.873,2.895,2.9152,2.9652,3.1138,3.1501,3.19,0.0,0.0,0.0,0.0,0.0,0.0,0.0,0.0,0.0,0.0,0.0,0.0,0.0,0.0,0.0,0.0,0.0,0.0,0.0,1.8697,1.9196,1.9991,2.0589,2.0264,0.0,0.0,0.0,1.9561,2.1183,2.3287,2.5882,2.828,3.0415,3.2271,3.5081,3.6804,3.7609,3.8542,3.5771,3.0133,2.9159,2.6272,2.2305,2.2776,2.3993,2.5701,2.6539,2.6696,2.6562,2.7047,2.7007,2.6718,2.8298,0.0,0.0,3.172,0.0,0.0,3.1039,0.0,0.0,2.9564,2.7895,0.0,2.5794,2.4516,2.3338,2.2449,2.216,0.0,0.0,0.0,0.0,2.1961,2.2577,2.3146,2.3588,2.4312,0.0,2.8066,0.0,0.0,2.9444,2.8307,2.7426,2.6734,0.0,2.4934,0.0,2.3648,2.3027,2.275,2.2431,0.0,0.0,2.253,2.2702,2.3267,2.3258,2.3141,2.3217,2.4679,2.5181,2.5421,2.6709,2.7438,2.786,2.8227,2.8638,2.9005,2.9005,2.9005,2.9299,3.0558,3.087,3.1201,3.2449,3.3018,3.2816,0.0,0.0,0.0,0.0,0.0,0.0,0.0,0.0,0.0,0.0,0.0,0.0,0.0,0.0,0.0,0.0,1.7892,1.8617,2.0131,2.0566,2.0211,0.0,0.0,0.0,1.806,1.8811,2.0461,2.3002,2.5103,2.7349,2.9776,3.2718,3.4747,3.5954,3.6479,3.3572,2.804,2.6982,2.4045,2.0,2.082,2.2308,2.4125,2.4766,2.502,2.502,2.502,2.5347,2.5839,0.0,0.0,0.0,0.0,0.0,0.0,0.0,3.1342,0.0,2.9087,0.0,2.65,2.5863,2.4397,2.2898,2.1433,0.0,2.0994,2.0369,1.9891,2.0465,2.2329,2.1379,2.1702,2.3666,2.3963,0.0,0.0,0.0,0.0,2.9606,2.8638,2.7839,0.0,0.0,0.0,0.0,2.3994,2.3342,0.0,2.2564,2.2347,2.2431,2.233,2.2415,2.2623,2.2735,2.2812,2.3088,2.4563,2.5118,2.5518,2.7368,2.7952,2.8081,2.8785,2.9005,2.9005,2.9005,2.9078,2.9335,3.0026,3.0356,3.0668,3.1256,3.2027,3.2129,3.0461,2.9584,2.8156,0.0,0.0,0.0,0.0,0.0,0.0,0.0,0.0,0.0,0.0,0.0,0.0,0.0,0.0,1.8995,2.0682,2.087,0.0,0.0,0.0,0.0,1.7695,1.7203,0.0,2.0555,0.0,2.4264,2.7471,3.0499,3.2763,3.4273,3.4508,3.1505,2.6033,2.5357,2.2717,1.8964,1.989,2.1384,2.3091,2.3091,2.3091,2.3091,2.3091,2.3714,2.4713,0.0,0.0,0.0,0.0,0.0,3.1186,2.9142,2.9228,2.9155,2.8143,2.6183,2.4676,2.4187,2.3082,2.2095,2.136,2.1101,0.0,0.0,0.0,0.0,2.0938,2.0857,2.189,2.4204,2.531,2.6536,0.0,0.0,0.0,2.9282,2.887,0.0,0.0,0.0,0.0,2.3802,2.3515,0.0,2.2482,2.2347,2.2651,2.3139,2.2533,2.3054,2.4034,2.3466,2.3473,2.3928,2.5392,2.6285,2.7025,2.8363,2.8785,2.8822,2.8968,2.9005,2.9005,2.9005,2.9482,3.0026,3.0173,3.1201,3.2045,3.1525,3.2027,3.2059,3.0109,2.9037,2.7845,2.5915,0.0,0.0,0.0,0.0,0.0,0.0,0.0,0.0,0.0,0.0,0.0,0.0,0.0,0.0,0.0,0.0,0.0,0.0,0.0,0.0,0.0,0.0,0.0,0.0,0.0,2.4073,2.6096,2.9162,3.1121,3.1967,3.1689,2.9338,2.5387,2.4243,2.2281,1.9956,2.0533,2.1689,2.3091,2.3091,2.3091,2.3091,2.3091,2.3222,2.343,0.0,0.0,0.0,0.0,0.0,0.0,0.0,2.7747,0.0,2.6406,2.5371,2.4406,2.3591,2.266,2.1644,2.0526,1.9943,1.9341,1.8585,1.897,1.9902,2.1418,2.1324,0.0,2.4848,2.4758,2.5747,2.7904,0.0,0.0,0.0,0.0,0.0,0.0,0.0,2.5655,0.0,0.0,0.0,2.3427,2.3427,2.3495,2.3529,2.3163,2.3305,2.3704,2.3601,2.3906,2.4538,2.5746,2.653,2.7184,2.8329,2.8839,2.9005,2.9005,2.9005,2.9005,2.9005,2.928,2.9684,3.0099,3.0779,3.1187,3.0597,3.1123,3.1066,2.877,2.782,2.6624,2.3998,2.1973,0.0,0.0,0.0,0.0,0.0,0.0,0.0,0.0,0.0,0.0,0.0,0.0,0.0,0.0,0.0,0.0,0.0,0.0,0.0,0.0,0.0,0.0,0.0,0.0,0.0,2.6045,2.8545,3.0072,3.0646,2.949,2.7735,2.5463,2.3753,2.2271,2.1127,2.1759,2.2451,2.3091,2.3091,2.3091,2.3091,2.3091,2.3091,2.3091,0.0,3.1527,0.0,0.0,3.021,0.0,2.8095,2.6783,2.5672,2.4907,2.4673,2.4242,2.3362,2.2472,2.1301,1.9718,1.8945,1.8434,1.8147,1.8607,1.9846,2.1965,2.2153,2.3331,2.5701,2.4697,2.5402,0.0,0.0,0.0,0.0,0.0,0.0,0.0,0.0,0.0,0.0,0.0,2.4643,2.4491,2.4491,2.4275,2.3917,2.3753,2.3595,2.3496,2.371,2.4325,2.5174,2.5906,2.6551,2.7196,2.8118,2.867,2.9005,2.9005,2.9005,2.9005,2.9005,2.9185,2.9491,2.996,3.027,3.027,2.9625,2.9942,2.9715,2.7436,2.642,2.4975,2.1845,2.0576,0.0,0.0,0.0,0.0,0.0,0.0,0.0,0.0,0.0,0.0,0.0,0.0,0.0,0.0,0.0,0.0,0.0,0.0,0.0,0.0,0.0,2.0886,2.1838,0.0,2.4012,0.0,2.8046,2.9011,2.9173,2.775,2.6311,2.4924,2.3718,2.3054,2.2928,2.3315,2.3464,2.343,2.3178,2.3091,2.3091,2.3091,2.3091,2.3091,0.0,0.0,0.0,0.0,0.0,0.0,0.0,2.6491,2.5208,2.4539,2.3774,2.3249,2.3135,2.2136,2.0945,1.9626,1.9004,1.8102,1.6715,1.8434,2.0046,2.1237,2.3183,2.5077,2.69,2.7159,2.7593,0.0,0.0,0.0,0.0,0.0,0.0,0.0,0.0,0.0,0.0,2.5541,2.5101,2.4491,2.4491,2.4577,2.4624,2.395,2.4231,2.491,2.4287,2.4861,2.5898,2.5987,2.68,2.7861,2.8267,2.867,2.9005,2.9005,2.9005,2.9005,2.9005,2.9804,3.0477,2.9809,3.0482,3.0904,2.9393,2.8782,2.8164,2.684,2.5086,2.3178,2.1212,2.0777,2.0519,0.0,0.0,0.0,0.0,0.0,0.0,0.0,0.0,0.0,0.0,0.0,0.0,0.0,0.0,0.0,0.0,0.0,0.0,2.3905,0.0,2.4418,2.304,2.4927,0.0,2.6311,2.7353,2.7406,2.6659,2.6489,2.4932,2.244,2.4079,2.5265,2.6019,2.5052,2.4617,2.4542,2.3507,2.3091,2.3091,2.3091,2.3091,2.3091,0.0,0.0,0.0,0.0,0.0,0.0,0.0,2.58,2.4955,2.371,2.326,2.2795,2.2144,2.1266,2.0268,1.9128,1.8015,1.7341,1.7266,1.9017,2.0874,2.262,2.4515,2.6386,2.8262,2.7793,2.7987,0.0,0.0,0.0,0.0,0.0,0.0,0.0,0.0,2.6198,2.5112,2.5112,2.4794,2.4307,2.4733,2.4969,2.4961,2.434,2.4365,2.4685,2.4379,2.4614,2.5144,2.5781,2.669,2.7604,2.7978,2.836,2.8682,2.8929,2.9005,2.905,2.93,2.9714,3.0056,2.9987,3.0305,3.0329,2.9006,2.8309,2.7521,2.603,2.3953,2.2081,2.1004,2.0472,2.0105,0.0,0.0,0.0,0.0,0.0,0.0,0.0,0.0,0.0,0.0,0.0,0.0,0.0,0.0,0.0,0.0,0.0,0.0,2.5493,0.0,2.6264,2.4823,2.5968,2.6327,2.5896,2.6784,2.6933,2.6389,2.58,2.4881,2.3848,2.467,2.5564,2.6472,2.6016,2.542,2.4745,2.4296,2.3714,2.3091,2.3091,2.3091,2.3091,3.1038,0.0,2.9569,0.0,2.8576,2.7916,2.6219,2.5614,2.4924,2.3791,2.3374,2.2809,2.1789,2.1117,2.0238,1.9095,1.802,1.7813,1.8731,2.0656,2.2741,2.4885,2.6929,0.0,2.9638,2.8758,2.8614,2.9218,2.908,0.0,0.0,0.0,0.0,0.0,2.699,2.6101,2.4906,2.4906,2.4742,2.4457,2.499,2.5105,2.4914,2.4536,2.4307,2.4163,2.4163,2.4163,2.4277,2.5205,2.6021,2.6753,2.7497,2.7978,2.8303,2.8583,2.8901,2.921,2.9391,2.9747,3.0076,3.0002,2.9934,2.958,2.8538,2.7606,2.6424,2.4556,2.2856,2.1448,2.0633,2.0131,1.985,2.0055,0.0,0.0,0.0,0.0,0.0,0.0,0.0,2.4259,2.4082,0.0,0.0,0.0,0.0,0.0,0.0,0.0,0.0,0.0,0.0,0.0,0.0,2.6502,2.6375,2.5598,2.6412,2.6542,2.6025,2.5004,2.4811,2.5241,2.539,2.6145,2.7203,2.703,2.6295,2.5252,2.4914,2.4082,2.3091,2.3091,2.3091,2.3091,2.8781,2.8809,2.8862,2.8053,2.7577,2.7303,2.7286,2.6109,2.5205,2.517,2.4251,2.3295,2.2494,2.1959,2.1143,1.98,1.9624,2.0017,2.1097,2.3593,2.5952,0.0,0.0,3.1828,3.0999,3.0636,2.9922,2.8803,0.0,0.0,2.7565,0.0,2.8952,2.7998,2.8133,2.7068,2.5205,2.5205,2.5186,2.5186,2.5202,2.4875,2.441,2.441,2.4074,2.3595,2.3595,2.3571,2.3597,2.421,2.4678,2.5273,2.6836,2.7574,2.7911,2.7911,2.8707,2.9521,2.91,3.0115,3.0991,2.9813,2.9247,2.879,2.7994,2.6471,2.457,2.2229,2.172,2.1328,2.0042,1.9811,2.0029,2.0671,0.0,0.0,0.0,0.0,0.0,0.0,2.6916,2.6251,2.5709,0.0,0.0,0.0,0.0,0.0,0.0,0.0,0.0,2.7575,2.7533,0.0,2.6194,2.6658,2.646,2.5598,2.621,2.5978,2.4969,2.3963,2.4336,2.5814,2.6338,2.7454,2.8825,2.8288,2.7452,2.6359,2.5252,2.4082,2.3091,2.3091,2.3091,2.3091,2.9682,2.8888,2.8267,2.825,2.7728,2.6985,2.6003,2.5491,2.495,2.4204,2.3815,2.3171,2.2064,2.1741,2.1288,0.0,2.0284,2.0864,0.0,2.5285,2.7465,2.8666,3.1534,3.258,3.1429,3.0897,3.0057,2.8871,0.0,0.0,0.0,2.8139,2.7555,2.6751,2.6338,2.5598,2.4637,2.4637,2.445,2.4116,2.4116,2.4241,2.4369,2.3991,2.397,2.4095,2.373,2.3319,2.3047,2.3591,2.3878,2.4189,2.5364,2.6538,2.765,2.8429,2.8908,2.9316,2.9924,3.0454,3.0543,2.9452,2.9084,2.8654,2.7351,2.6091,2.4444,2.1705,2.114,2.0646,1.8999,1.902,1.9321,1.9545,2.1529,0.0,0.0,0.0,0.0,0.0,2.6956,2.6424,0.0,2.5955,0.0,0.0,0.0,0.0,0.0,0.0,0.0,0.0,2.8509,0.0,2.5477,2.641,2.646,2.5598,2.5787,2.5927,2.6025,2.5687,2.6015,2.6853,2.7397,2.8102,2.8938,2.9169,2.8609,2.7481,2.6378,2.5252,2.4168,2.3387,2.3091,2.3091,2.909,2.8209,2.7519,2.7735,2.7377,2.679,2.5892,2.5433,2.4969,2.4287,2.3651,2.2868,2.1815,2.1655,0.0,2.1147,2.1443,2.2668,2.5024,2.7876,2.9924,3.0869,3.2901,3.3478,3.2305,0.0,0.0,2.9001,2.8441,2.7973,2.7577,2.7137,2.6444,2.5597,2.5411,2.4847,2.4095,2.4095,2.3921,2.3595,2.3595,2.3794,2.4053,2.373,2.3815,2.4053,2.3709,2.3039,2.2377,2.2669,2.2774,2.2944,2.3968,2.5283,2.6674,2.779,2.8454,2.8923,2.9403,2.9989,3.0177,2.9059,2.8766,2.8303,2.6547,2.5456,2.4075,2.1456,2.0717,2.0147,1.876,1.877,1.9145,1.9608,2.1196,2.2688,2.3561,0.0,0.0,0.0,0.0,0.0,0.0,2.6361,0.0,0.0,0.0,0.0,0.0,0.0,0.0,2.6735,2.7971,0.0,2.5406,2.6087,2.625,2.5925,2.6126,2.6348,2.6499,2.6499,2.6688,2.7052,2.777,2.8298,2.865,2.9465,2.9145,2.8044,2.736,2.6419,2.5336,2.4638,2.4392,2.4392,2.7363,2.7004,0.0,0.0,2.6725,0.0,2.6657,2.5835,2.5182,2.5163,2.3713,2.2452,2.1767,2.1649,2.1708,2.191,0.0,0.0,0.0,3.0958,3.2848,3.4019,3.4609,3.4397,3.3281,3.1212,2.9795,2.904,2.6925,2.5766,2.5542,2.6048,2.5723,2.4724,2.5253,2.4825,2.3724,2.3724,2.3724,2.3724,2.3724,2.3724,2.3724,2.3724,2.3702,2.3659,2.3659,2.2809,2.1697,2.1566,2.1529,2.1713,2.2688,2.3891,2.5191,2.6418,2.7569,2.8383,2.8032,2.9019,2.9867,2.8685,2.8315,2.7691,2.5672,2.4697,2.3584,2.1366,2.0441,1.983,1.9093,1.897,1.9382,2.0491,2.1308,2.2214,2.345,0.0,0.0,0.0,0.0,0.0,0.0,2.7163,2.6381,0.0,0.0,0.0,0.0,0.0,2.6876,2.6914,2.6342,2.5993,2.5931,2.5804,2.6021,2.6562,2.7115,2.709,2.6549,2.6587,2.6612,2.6663,2.7708,2.816,2.8247,2.9352,2.9184,2.8215,2.8136,2.7493,2.6595,2.6524,2.6524,2.6524,0.0,0.0,2.724,2.7487,2.708,2.659,2.6227,2.5633,2.5051,2.4652,2.3485,2.2452,2.1767,2.1293,2.1617,2.3116,2.3985,2.5719,2.8704,3.1282,3.3018,3.3758,3.4607,3.4022,3.1835,3.0396,2.8937,2.7431,2.6899,2.6691,2.6762,2.6404,2.6089,2.5806,2.5441,2.5092,2.4816,2.4816,2.4816,2.4816,2.4816,2.4816,2.4816,2.4816,2.4572,2.4204,2.4204,2.312,2.1612,2.1027,2.0897,2.1083,2.162,2.2992,2.4808,2.6914,2.7742,2.8135,2.8888,2.9384,2.9465,2.8621,2.7487,2.6338,2.5406,2.476,2.3711,2.138,2.0786,2.0213,1.867,1.8719,1.9095,1.9382,2.0755,2.2044,2.2758,2.4455,0.0,0.0,2.7253,2.7433,2.7004,2.5841,2.5057,0.0,0.0,0.0,0.0,2.499,2.5693,2.6135,2.6871,2.698,2.6375,2.6706,2.6954,2.7128,2.7645,2.762,2.714,2.7519,2.772,2.7758,2.8436,2.87,2.875,2.9503,2.9624,2.9326,2.8426,2.7924,2.7602,2.6801,2.6524,2.6524,2.6657,2.642,2.6415,2.6938,2.657,2.6219,2.6299,2.5672,2.4976,2.4393,2.3084,2.2007,2.1366,2.0733,2.1105,2.3038,2.4368,2.6572,3.0011,3.2056,3.3278,3.364,3.3793,3.3066,3.1378,2.998,2.8524,2.6991,2.6404,2.6167,2.6274,2.5911,2.584,2.5988,2.5442,2.5303,2.5459,2.5265,2.5202,2.5202,2.5202,2.5202,2.5202,2.5202,2.5028,2.4772,2.4772,2.3794,2.2361,2.1305,2.0895,2.0879,2.1264,2.2504,2.4256,2.6749,2.7395,2.7521,2.8459,2.887,2.8986,2.8917,2.7811,2.6553,2.5857,2.48,2.3495,2.1728,2.1103,2.0585,1.9622,1.9456,1.955,1.9782,2.0423,2.1186,2.2023,2.3632,0.0,2.633,2.6839,2.7137,2.7267,2.5409,2.4425,2.5039,0.0,0.0,2.4815,2.5394,2.5613,2.5485,2.658,2.7067,2.6864,2.7632,2.7908,2.767,2.8222,2.8197,2.767,2.7971,2.8109,2.8134,2.865,2.8888,2.8938,2.9553,2.9792,2.9753,2.9106,2.8897,2.8819,2.8211,2.8011,2.8011,2.5841,2.5454,2.5344,2.5996,2.586,2.5878,2.6506,2.5801,2.4941,2.4194,2.2693,2.1472,2.087,2.0358,2.0836,2.2666,2.479,2.7561,3.1214,3.2735,3.35,3.3505,3.2775,3.1986,3.1145,2.9621,2.83,2.7232,2.6153,2.5672,2.5787,2.5787,2.6041,2.6465,2.6122,2.6092,2.6281,2.5937,2.5749,2.5672,2.5559,2.5619,2.5756,2.564,2.5618,2.5657,2.5657,2.4923,2.3708,2.2202,2.1417,2.1133,2.1343,2.2286,2.3806,2.6406,2.6946,2.6877,2.7674,2.8134,2.8537,2.9075,2.8287,2.7156,2.623,2.4656,2.3126,2.2206,2.1479,2.1052,2.1149,2.0597,2.0303,2.0835,2.0284,2.0257,2.1537,0.0,2.4196,2.5979,2.6341,2.6815,2.7754,2.5273,2.4179,2.5547,2.4621,2.4648,0.0,2.6258,2.5966,2.5266,2.6151,2.6927,2.7519,2.8549,2.8775,2.8235,2.875,2.8762,2.8235,2.8323,2.836,2.8386,2.885,2.9026,2.9063,2.9591,2.9792,2.9792,2.9792,2.9792,2.9792,2.9792,2.9792,2.9792,2.5052,2.5446,2.5908,2.6068,2.6059,2.6036,2.611,2.558,2.482,2.3752,2.2489,2.1472,2.087,2.1108,2.201,2.372,2.637,2.8628,3.0156,3.2298,3.3387,3.311,3.2532,3.1488,2.9906,2.8687,2.797,2.7779,2.7577,2.7824,2.8483,2.8483,2.8897,2.9607,2.9544,2.916,2.8592,2.8531,2.8284,2.7843,2.7226,2.7539,2.8335,2.7662,2.7542,2.7734,2.7734,2.6997,2.5742,2.375,2.2787,2.2297,2.1678,2.233,2.3834,2.6552,2.7038,2.6944,2.8011,2.8349,2.83,2.7912,2.7164,2.619,2.5035,2.3778,2.2787,2.2614,2.2041,2.1762,2.2325,2.1475,2.0848,2.1391,2.054,2.0352,2.1974,0.0,2.3392,2.5085,2.586,2.6234,2.626,2.4741,2.3943,2.4418,2.3624,2.3536,2.4591,2.504,2.5573,2.6326,2.6903,2.7645,2.8624,2.9327,2.9365,2.8762,2.9377,2.9352,2.8775,2.9302,2.9528,2.9541,2.9616,2.9654,2.9666,2.9754,2.9792,2.9792,2.9792,2.9792,2.9792,2.9792,2.9792,2.9792,2.4512,2.4635,2.4837,2.5094,2.5333,2.5466,2.5374,2.5262,2.48,2.364,2.2757,2.1997,2.1342,2.2338,2.3537,2.4699,2.7359,2.9553,3.0877,3.2893,3.3828,3.3339,3.2608,3.1592,3.0261,2.9318,2.8927,2.9136,2.8741,2.8737,2.9121,2.9547,3.0074,3.0607,3.0398,3.0217,3.0069,2.9849,2.9622,2.9386,2.9051,2.9239,2.9672,2.929,2.921,2.9317,2.9317,2.8665,2.7537,2.5883,2.461,2.3542,2.2885,2.3157,2.4217,2.6687,2.766,2.7994,2.8175,2.8241,2.8282,2.8478,2.7472,2.6248,2.5651,2.3925,2.2462,2.263,2.2015,2.1623,2.209,2.1423,2.0888,2.1127,2.0066,0.0,0.0,2.1481,2.2156,2.3443,2.4564,2.533,2.5544,2.4637,2.4536,2.5781,2.5006,2.5122,2.6687,2.6156,2.6582,2.8255,2.8226,2.8411,2.8888,2.9503,2.9654,2.9402,2.9666,2.9654,2.9402,2.9666,2.9792,2.9792,2.9792,2.9792,2.9792,2.9792,2.9792,2.9792,2.9792,2.9792,2.9792,2.9792,2.9792,2.9792,2.419,2.3996,2.3966,2.4493,2.4878,2.5124,2.5076,2.5149,2.4823,2.38,2.3216,2.277,2.2512,2.3815,2.4998,2.5805,2.8045,3.0021,3.1427,3.3056,3.3842,3.3579,3.2618,3.1744,3.0948,3.0328,3.017,3.0484,2.9822,2.9579,2.9789,3.0395,3.0951,3.1426,3.1203,3.1186,3.1266,3.0963,3.0784,3.0677,3.0517,3.0581,3.0792,3.063,3.0665,3.0825,3.0879,3.0404,2.9518,2.8193,2.6685,2.5186,2.4356,2.4205,2.4771,2.6804,2.8273,2.9084,2.8318,2.8128,2.8282,2.8806,2.7828,2.6595,2.6094,2.4021,2.2255,2.2337,2.1524,2.094,2.1336,2.0876,2.0463,2.0617,0.0,0.0,0.0,2.0649,2.1198,2.2267,2.3365,2.431,2.5154,2.4608,2.4992,2.6766,2.6469,2.6891,2.8435,2.7468,2.7659,2.9341,2.9199,2.9126,2.9126,2.9566,2.9792,2.9792,2.9792,2.9792,2.9792,2.9792,2.9792,2.9792,2.9792,2.9792,2.9792,2.9792,2.9792,2.9792,2.9792,2.9792,2.9792,2.9792,2.9792,2.9792,2.419,2.418,2.4437,2.5263,2.5438,2.5556,2.5876,2.5508,2.4941,2.4234,2.3743,2.3803,2.4751,2.5397,2.6175,2.7158,2.8467,2.9641,3.0617,3.1736,3.2675,3.3375,3.2393,3.1678,3.1359,3.1304,3.1273,3.1321,3.088,3.1056,3.1805,3.1859,3.2288,3.3051,3.34,3.3135,3.247,3.2439,3.2206,3.1823,3.1131,3.1455,3.2269,3.1592,3.1753,3.2372,3.2622,3.2503,3.2001,3.0469,2.9028,2.7545,2.5811,2.5205,2.5408,2.696,2.8636,2.9741,2.845,2.8188,2.8156,2.768,2.7496,2.6932,2.506,2.3418,2.2166,2.1692,2.0391,1.9607,2.0445,1.9897,1.9515,2.0048,0.0,0.0,2.0905,2.0737,2.0973,2.2495,2.2767,2.3418,2.4885,2.4586,2.47,2.5643,2.6745,2.7406,2.7427,2.7778,2.8052,2.8215,2.9199,2.9729,2.9729,2.9779,2.9792,2.9792,2.9792,2.9792,2.9792,2.9792,2.9792,2.9792,2.9792,2.9792,2.9792,2.9792,2.9792,2.9792,2.9792,2.9792,2.9792,2.9792,2.9792,2.9792,2.4384,2.4384,2.4385,2.4368,2.476,2.5102,2.5248,2.5459,2.5597,2.5512,2.5482,2.5832,2.6742,2.7308,2.7712,2.7945,2.8047,2.8146,2.8298,2.9049,3.0574,3.3032,3.3078,3.2754,3.2155,3.2137,3.202,3.1774,3.162,3.1544,3.1586,3.2361,3.291,3.3214,3.3606,3.3623,3.3361,3.3524,3.35,3.3362,3.3282,3.3505,3.3833,3.3543,3.3617,3.3882,3.3981,3.3752,3.3208,3.1783,3.0219,2.8589,2.716,2.658,2.6801,2.8558,2.9636,3.0094,2.9593,2.9173,2.8832,2.8672,2.8338,2.7619,2.5994,2.3845,2.1902,2.102,1.9495,1.85,1.9034,1.9057,1.9095,1.9306,0.0,1.8934,1.9789,1.9795,2.0031,2.0859,2.1745,2.2507,2.3088,2.4098,2.5138,2.6144,2.7247,2.8161,2.8813,2.9034,2.8819,2.8136,2.9197,2.9456,2.8767,2.9456,2.9456,2.8767,2.9456,2.9792,2.9792,2.9792,2.9792,2.9792,2.9792,2.9792,2.9792,2.9792,2.9792,2.9792,2.9792,2.9792,2.9792,2.9792,2.9792,2.9792,2.4591,2.4534,2.453,2.4624,2.5005,2.5451,2.5919,2.6303,2.6644,2.702,2.7299,2.7725,2.8343,2.8662,2.8628,2.815,2.7276,2.6605,2.6284,2.7197,2.9295,3.2691,3.3543,3.3618,3.2999,3.2968,3.283,3.2563,3.2448,3.2206,3.1912,3.2793,3.3199,3.3214,3.3606,3.3807,3.3815,3.4093,3.42,3.4223,3.4561,3.4694,3.4694,3.4694,3.4694,3.4742,3.5077,3.4936,3.4403,3.3216,3.1672,2.9982,2.8305,2.7698,2.7879,2.9387,3.0172,3.0601,3.0751,3.0406,2.9922,2.9484,2.8905,2.8069,2.6623,2.4145,2.177,2.0503,1.8772,1.7564,1.7935,1.8337,1.8657,1.8775,1.88,1.89,1.9304,1.9415,1.9648,2.0068,2.1094,2.2001,2.2654,2.4265,2.5681,2.6754,2.7964,2.8976,2.9754,2.9792,2.9443,2.8648,2.9404,2.9236,2.8124,2.8897,2.8858,2.8096,2.853,2.9131,2.9792,2.9443,2.9456,2.9792,2.9792,2.9792,2.9792,2.9792,2.9792,2.9792,2.9792,2.9792,2.9792,2.9792,2.9792,2.9792,2.4804,2.4639,2.4969,2.6432,2.6539,2.6898,2.8367,2.822,2.8098,2.8628,2.8993,2.9275,2.9477,2.9252,2.8707,2.7773,2.6214,2.5182,2.4896,2.6642,2.9105,3.2324,3.358,3.4062,3.382,3.3807,3.3807,3.3807,3.3408,3.3199,3.3199,3.3199,3.3199,3.3214,3.3606,3.3807,3.3834,3.4093,3.4218,3.4242,3.4561,3.4694,3.4723,3.4723,3.4723,3.4848,3.593,3.6131,3.5754,3.4888,3.3615,3.1925,2.9234,2.8383,2.849,2.9046,3.0152,3.1291,3.1696,3.1807,3.1403,2.9816,2.895,2.8128,2.6637,2.4177,2.1758,2.0205,1.8197,1.6843,1.7314,1.7734,1.812,1.8539,1.9014,1.9434,1.9853,1.9912,2.0078,2.0546,2.0957,2.2027,2.4064,2.5178,2.62,2.7194,2.885,2.9792,2.9792,2.9792,2.9792,2.9792,2.9792,2.9236,2.8124,2.8096,2.8096,2.8084,2.7005,2.7637,2.9753,2.8609,2.8727,2.9792,2.9792,2.9792,2.9792,2.9792,2.9792,2.9792,2.9792,2.9792,2.9792,2.9792,2.9792,2.9792,2.5823,2.5244,2.5043,2.611,2.624,2.674,2.8427,2.8543,2.8701,2.9384,2.9562,2.9751,3.0095,2.881,2.7592,2.6851,2.553,2.4416,2.3614,2.4965,2.6747,2.8822,3.1463,3.3165,3.3775,3.3807,3.3666,3.3375,3.3258,3.3029,3.2713,3.3045,3.3199,3.3214,3.3606,3.4119,3.4628,3.4334,3.4652,3.537,3.5088,3.5096,3.5266,3.5266,3.5618,3.6143,3.6474,3.623,3.5582,3.4361,3.2295,2.9838,2.7624,2.7272,2.7896,2.8904,2.984,3.0799,3.1865,3.1455,3.0798,3.1021,3.0232,2.8828,2.6531,2.3919,2.1501,1.9831,1.8481,1.773,1.8149,1.8613,1.8945,1.9072,1.9453,1.9775,1.9893,2.0176,2.0458,2.0586,2.1275,2.1855,2.2114,2.3686,2.4787,2.5103,2.727,2.8949,2.9753,2.9792,2.9792,2.9792,2.9792,2.9236,2.8124,2.8096,2.7723,2.6953,2.6637,2.725,2.8597,2.8255,2.8727,2.9792,2.9792,2.9792,2.9792,2.9792,2.9792,2.9792,2.9792,2.9792,2.9792,2.9792,2.9792,2.9792,2.6452,2.6161,2.6237,2.7152,2.7272,2.7737,2.9187,2.9415,2.9654,3.0346,3.0576,3.0432,2.9836,2.8577,2.7197,2.5699,2.4309,2.3108,2.2146,2.3095,2.4443,2.6143,2.894,3.1446,3.3518,3.3721,3.368,3.3451,3.3451,3.3284,3.3011,3.3299,3.3451,3.3451,3.4023,3.4546,3.5,3.5137,3.5464,3.5883,3.5656,3.5545,3.5538,3.5846,3.6077,3.6339,3.721,3.6596,3.5169,3.3973,3.1149,2.786,2.6405,2.6404,2.7174,2.8184,2.9134,3.0102,3.1095,3.0763,3.0125,3.0172,2.9248,2.7766,2.5593,2.3134,2.0963,1.9789,1.8849,1.8403,1.8997,1.9355,1.959,1.9766,2.0,2.0176,2.0176,2.0547,2.083,2.083,2.1659,2.225,2.2372,2.3644,2.4618,2.5092,2.6973,2.8386,2.9106,2.9585,2.9792,2.9792,2.9792,2.9495,2.8767,2.7896,2.7128,2.6483,2.561,2.5964,2.7441,2.6982,2.7643,2.9118,2.9118,2.9365,2.9792,2.9792,2.9792,2.9792,2.9792,2.9792,2.9792,2.9792,2.9792,2.9792,2.6981,2.729,2.802,2.905,2.9129,2.9361,3.0368,3.0505,3.0698,3.1322,3.1655,3.1082,2.9158,2.8596,2.7292,2.4627,2.2937,2.1726,2.1033,2.1471,2.2566,2.4354,2.6456,2.9233,3.2831,3.3443,3.3762,3.3807,3.3807,3.3807,3.3807,3.3807,3.3807,3.3825,3.4564,3.4986,3.5179,3.6088,3.6295,3.6015,3.6141,3.5957,3.5692,3.6423,3.6281,3.595,3.7925,3.6933,3.4461,3.3178,2.9816,2.6005,2.5384,2.5617,2.6256,2.7,2.8016,2.9077,2.9675,2.9614,2.9081,2.7821,2.6566,2.5297,2.4034,2.2013,2.0314,1.9981,1.9284,1.8968,1.9824,2.001,2.0166,2.0595,2.0664,2.0674,2.0723,2.1006,2.121,2.1249,2.2056,2.2948,2.395,2.4399,2.5126,2.6265,2.7238,2.7884,2.8096,2.9067,2.9702,2.9792,2.9792,2.9792,2.9792,2.7718,2.6595,2.6483,2.4178,2.4221,2.6307,2.5252,2.6025,2.8096,2.8096,2.8767,2.9792,2.9792,2.9792,2.9792,2.9792,2.9792,2.9792,2.9792,2.9792,2.9792,2.8566,2.8079,2.8053,2.9162,2.9322,2.9629,3.0521,3.0482,3.0597,3.1312,3.0839,3.0368,3.0139,2.887,2.7194,2.5175,2.3312,2.2505,2.3083,2.2626,2.3015,2.4564,2.5905,2.7837,3.0477,3.237,3.3494,3.3807,3.3807,3.3807,3.3807,3.3807,3.3807,3.3807,3.399,3.4798,3.5964,3.51,3.5546,3.6756,3.577,3.5782,3.6462,3.6635,3.6892,3.7149,3.7261,3.5721,3.3039,2.9134,2.6471,2.4612,2.3842,2.4108,2.4868,2.5479,2.6265,2.7189,2.8351,2.7375,2.6048,2.6048,2.4051,2.2158,2.2289,2.1404,2.0439,2.0009,1.974,1.9805,2.037,2.0713,2.0937,2.1034,2.1094,2.1211,2.1553,2.1387,2.1317,2.1699,2.2554,2.3074,2.2874,2.3216,2.392,2.5083,2.5368,2.6273,2.8004,2.8347,2.8897,2.9753,2.9792,2.9792,2.9792,2.8438,2.7331,2.6483,2.4178,2.3844,2.5168,2.4914,2.6025,2.8096,2.8096,2.8767,2.9792,2.9792,2.9792,2.9792,2.9792,2.9792,2.9792,2.9792,2.9792,2.9792,2.9201,2.9108,2.9274,2.9879,2.996,3.0082,3.0416,3.0449,3.0638,3.1185,3.0798,3.043,3.0275,2.896,2.7186,2.4967,2.3321,2.2647,2.3235,2.2207,2.2309,2.3904,2.4508,2.6026,2.8607,3.0583,3.222,3.3508,3.3508,3.3606,3.3807,3.3807,3.3807,3.3825,3.4197,3.4857,3.5661,3.5338,3.5646,3.6271,3.5574,3.5695,3.6315,3.6323,3.6378,3.643,3.6174,3.4044,3.0771,2.7102,2.5176,2.4147,2.3335,2.3395,2.3771,2.4076,2.4636,2.5231,2.5577,2.4937,2.4037,2.3542,2.2235,2.1149,2.1252,2.0748,2.0209,1.9938,2.0078,2.0361,2.0801,2.1074,2.1268,2.1514,2.1543,2.1621,2.1855,2.1865,2.1924,2.2158,2.2787,2.3323,2.3556,2.3788,2.4168,2.4745,2.4787,2.5535,2.7238,2.7804,2.8636,2.9753,2.9792,2.9792,2.9792,2.8688,2.7562,2.6472,2.4755,2.392,2.4006,2.4542,2.5744,2.7371,2.7896,2.8767,2.9792,2.9792,2.9792,2.9792,2.9792,2.9792,2.9792,2.9792,2.9792,2.9792,2.9562,3.0079,3.0593,3.0604,3.0556,3.0424,3.0152,3.0327,3.0575,3.0805,3.081,3.0577,3.0063,2.8896,2.7205,2.4854,2.3448,2.2791,2.3051,2.173,2.1755,2.3535,2.3494,2.4632,2.7284,2.8683,3.0552,3.2929,3.3027,3.3258,3.3578,3.3578,3.3578,3.3615,3.429,3.4641,3.4819,3.5454,3.5602,3.5361,3.5274,3.5472,3.5808,3.5792,3.5397,3.4853,3.4779,3.2283,2.8698,2.6247,2.499,2.4294,2.3403,2.3017,2.2871,2.2827,2.3111,2.3309,2.2692,2.2659,2.2488,2.133,2.0998,2.0916,2.0653,2.0313,2.0029,2.0029,2.0371,2.0791,2.1132,2.1317,2.1531,2.1934,2.1992,2.2021,2.209,2.2334,2.2539,2.2607,2.305,2.3757,2.4702,2.4787,2.4787,2.4787,2.4628,2.5083,2.6442,2.7319,2.8438,2.9753,2.9792,2.9792,2.9792,2.8858,2.7855,2.676,2.5828,2.466,2.342,2.4372,2.5504,2.6801,2.7723,2.8767,2.9792,2.9792,2.9792,2.9792,2.9792,2.9792,2.9792,2.9792,2.9792,2.9792,3.0432,3.051,3.0604,3.0605,3.0405,3.0127,2.9735,2.9869,2.9953,2.9816,2.9851,2.9909,2.9976,2.8521,2.7113,2.6138,2.4433,2.374,2.4464,2.319,2.3271,2.5182,2.4613,2.5145,2.7104,2.7518,2.907,3.1812,3.2347,3.2632,3.2681,3.2681,3.2681,3.2681,3.2787,3.3213,3.385,3.3517,3.3945,3.4857,3.4389,3.4675,3.5381,3.5381,3.4623,3.3504,3.3107,3.104,2.8181,2.6101,2.5248,2.4853,2.3504,2.2628,2.2063,2.2051,2.1823,2.1544,2.1425,2.1184,2.0997,2.1138,2.0639,2.0179,2.0504,2.0545,2.0517,2.0517,2.083,2.1122,2.1181,2.1836,2.2363,2.2422,2.2432,2.2549,2.2877,2.2705,2.2646,2.2974,2.3932,2.4628,2.4787,2.4787,2.4787,2.4787,2.3877,2.4264,2.64,2.6648,2.7666,2.9714,2.9792,2.9792,2.9792,2.9663,2.8988,2.7884,2.7723,2.6562,2.4585,2.4745,2.5942,2.7896,2.8056,2.8767,2.9792,2.9792,2.9792,2.9792,2.9792,2.9792,2.9792,2.9792,2.9792,2.9792,3.0597,3.0566,3.0549,3.0535,3.0352,3.0081,2.9703,2.9946,2.9982,2.9452,2.9759,2.9935,2.9681,2.8607,2.7485,2.6399,2.4738,2.383,2.394,2.2941,2.2925,2.4378,2.4006,2.4366,2.5565,2.6379,2.7606,2.9247,3.0486,3.125,3.1492,3.1492,3.1492,3.1492,3.1492,3.188,3.2512,3.2261,3.2679,3.3484,3.3266,3.3457,3.3846,3.3396,3.2805,3.2003,3.0637,2.8914,2.7123,2.5712,2.4675,2.3791,2.2769,2.2005,2.1417,2.0928,2.0839,2.0775,2.0264,2.0181,2.0249,2.0441,2.0381,2.037,2.0556,2.0762,2.0937,2.0937,2.1289,2.167,2.1863,2.2256,2.2588,2.2779,2.2818,2.2886,2.3071,2.2935,2.2886,2.3071,2.4681,2.5766,2.5766,2.6284,2.6397,2.5797,2.467,2.4755,2.6389,2.6524,2.7504,2.9714,2.9792,2.9792,2.9792,2.9792,2.8922,2.7197,2.7804,2.7267,2.5755,2.6367,2.7186,2.8136,2.8767,2.9326,2.9792,2.9792,2.9792,2.9792,2.9792,2.9792,2.9792,2.9792,2.9792,2.9792]}]]